GFSWCAN_sfc_30mbdewp_000.txt.gz
Dewpoint
48 48 48 47 48 48 48 47 47 47 47 47 48 49 49 50 50 51 51 53 44 45 46 47 43 39 40 39 35 40 38 37 31 27 23 24 26 27 27 28 29 26 24 22 22 19 12 25 30 27 28 30 34 36
48 48 47 47 48 48 47 47 48 48 47 47 47 48 49 50 51 50 49 54 50 44 45 47 47 47 45 40 41 41 36 38 35 31 26 31 29 32 28 20 32 24 24 19 21 16 25 28 31 32 33 31 35 36
47 47 47 48 48 48 47 47 47 48 46 47 47 49 50 51 51 51 51 50 44 42 43 43 44 46 48 46 44 37 37 40 37 35 32 31 24 33 26 28 30 31 30 25 27 26 28 31 31 33 35 35 37 38
47 48 48 48 48 48 48 47 47 47 47 47 48 50 50 51 51 51 49 50 40 39 36 41 46 45 47 48 45 42 42 41 40 37 33 31 24 33 28 30 30 31 33 30 30 31 32 33 36 37 37 40 40 40
48 48 48 48 48 48 48 47 47 47 48 48 48 49 50 51 50 50 49 50 49 33 36 40 44 44 47 47 45 44 41 40 38 35 33 31 31 33 34 33 30 33 29 27 24 26 28 28 31 38 39 39 41 40
48 48 48 48 48 47 47 47 47 48 48 48 48 49 48 50 48 35 33 47 50 45 37 36 42 43 46 46 46 46 45 42 40 37 35 34 36 34 33 32 32 34 35 33 29 33 34 34 38 40 39 41 41 37
47 47 47 47 48 47 46 47 47 48 49 49 49 48 48 48 48 37 34 47 47 45 36 37 39 41 42 45 44 44 45 44 41 38 36 35 39 37 34 31 31 33 35 37 38 39 38 39 38 41 41 38 29 22
46 46 46 47 47 47 47 46 47 48 49 49 48 49 49 49 49 46 49 47 47 40 37 32 36 39 43 42 42 42 42 42 41 39 38 37 38 37 35 36 37 38 39 39 39 39 39 40 36 27 24 22 22 24
45 45 45 46 47 47 47 46 46 48 49 48 46 47 45 46 46 47 48 47 46 40 34 36 27 26 42 39 39 40 40 39 39 40 39 39 36 35 37 36 36 38 38 38 39 40 37 28 22 23 25 29 30 31
45 45 45 46 46 47 47 47 47 49 48 46 44 39 40 45 47 46 42 39 40 41 41 36 37 36 41 39 39 38 37 37 35 36 39 38 36 36 33 32 34 36 37 39 36 31 26 28 30 32 31 31 32 33
44 45 45 46 47 47 47 48 47 47 46 44 42 42 46 45 43 39 36 35 38 37 39 38 37 37 40 38 38 37 36 35 32 33 36 34 32 30 26 30 32 33 33 33 32 33 34 34 34 33 33 32 34 35
43 43 43 43 45 45 46 45 45 45 44 44 44 43 40 38 38 34 33 36 35 34 37 38 38 39 39 39 37 36 35 33 30 35 34 30 28 24 30 32 34 34 33 33 34 35 35 35 36 35 35 32 28 26
42 43 42 42 42 43 43 43 44 43 42 40 38 37 36 35 34 31 31 33 33 34 35 36 37 36 38 37 36 36 33 32 34 31 30 29 30 35 36 31 29 31 32 33 33 33 31 23 21 20 19 23 25 24
42 42 41 42 42 41 41 42 40 39 38 36 36 34 32 31 30 30 31 31 32 33 34 35 34 36 34 36 33 32 31 31 28 26 25 30 33 34 24 24 27 30 33 33 25 20 20 21 22 25 26 26 26 26
41 41 41 41 42 41 40 39 37 36 33 30 30 28 28 29 31 31 32 32 33 35 34 34 33 34 32 31 30 29 27 25 25 24 29 32 34 33 20 23 28 26 23 23 24 26 25 25 25 26 27 27 28 28
39 39 40 42 42 39 40 37 34 33 31 30 30 28 30 30 30 31 32 32 35 34 34 34 31 30 28 29 27 25 24 22 25 30 32 34 31 29 32 28 27 32 31 31 27 27 28 27 27 27 28 27 27 27
38 37 40 41 41 38 38 34 32 30 29 28 29 32 31 31 31 32 33 34 36 34 30 30 28 26 28 27 26 28 26 28 32 33 34 33 33 26 31 33 31 28 29 28 28 27 27 27 27 27 28 28 28 28
36 38 39 40 39 36 35 33 29 28 28 30 29 30 31 32 32 33 33 34 32 32 31 28 29 26 25 23 25 29 30 32 31 31 32 30 28 28 27 26 26 26 26 27 27 28 28 28 28 27 27 28 28 28
38 39 38 39 37 33 32 33 30 26 28 30 31 30 31 31 30 32 32 33 32 30 29 27 26 25 26 28 28 31 32 32 30 31 29 29 28 28 28 28 28 28 28 28 28 28 27 28 26 26 25 25 25 26
38 38 37 37 35 31 29 31 31 27 25 27 30 29 28 28 29 30 31 32 32 30 27 26 25 25 26 26 26 29 32 31 29 27 27 27 28 28 28 28 28 28 27 26 25 24 24 23 22 22 20 20 21 21
34 36 36 33 32 31 30 30 30 29 28 27 29 27 26 28 26 27 28 31 28 26 24 26 26 27 28 29 28 30 30 28 27 26 26 27 27 26 25 24 23 24 22 20 20 20 19 19 18 16 15 15 17 19
36 36 31 31 28 30 29 31 30 30 26 28 28 27 26 24 24 26 28 27 26 27 29 28 28 29 29 28 27 29 28 28 27 27 26 25 24 23 20 19 18 17 17 17 16 13 11 13 13 12 12 12 15 15
35 32 28 26 23 23 25 31 28 28 21 24 28 26 25 25 27 28 25 26 27 30 30 30 28 28 26 26 25 25 24 21 20 21 22 22 20 19 16 13 11 9 9 11 13 11 9 9 9 9 9 9 10 9
33 29 24 22 22 22 26 24 26 26 26 24 24 23 24 24 26 25 22 23 28 28 28 28 26 24 24 22 20 19 21 21 20 18 20 20 17 16 14 12 10 8 8 7 7 7 6 5 6 6 6 7 7 7
21 23 23 21 24 23 20 20 21 22 20 21 20 21 22 24 21 20 20 22 24 24 24 27 26 24 20 19 19 17 18 20 17 13 13 12 10 8 8 8 8 8 7 4 3 3 3 3 3 4 4 5 6 7
18 22 22 21 21 21 20 18 19 20 20 21 21 21 21 21 18 18 19 20 22 22 22 22 21 19 18 19 16 15 13 15 14 11 10 9 6 2 1 0 -0 1 5 4 2 1 1 2 2 2 4 5 7 5
20 21 24 26 25 24 22 22 21 22 21 20 21 20 20 17 16 17 21 19 20 19 21 22 21 18 15 11 10 11 12 13 12 10 9 8 7 5 2 0 -0 1 4 3 1 0 0 1 1 2 4 6 4 3
24 25 22 22 24 25 23 23 22 22 22 23 22 19 17 15 13 15 17 19 18 16 15 13 14 11 8 7 7 9 11 10 9 8 6 5 5 3 2 1 1 3 1 -0 0 1 1 2 3 4 5 4 2 0
25 26 25 22 23 23 22 21 21 24 25 24 21 17 13 12 11 11 14 17 16 14 11 10 9 9 8 7 5 4 3 3 2 -1 -1 -1 -1 1 2 -0 -1 -1 -1 -2 1 3 5 7 6 4 0 1 1 1
22 24 23 21 21 21 22 23 23 25 23 20 17 15 11 10 10 12 13 12 10 8 7 7 7 8 6 5 4 4 2 2 2 2 1 0 1 2 0 -0 -1 -1 -2 -3 -4 -3 -0 0 -2 -3 -4 -5 -5 -5
27 26 24 20 21 23 25 26 25 27 25 17 15 11 8 8 9 9 8 7 7 6 6 5 5 1 4 3 3 3 3 1 -0 1 0 0 1 1 0 -1 -2 -3 -4 -6 -6 -4 -4 -3 -5 -6 -6 -7 -7 -8
23 22 20 19 20 20 18 18 17 18 18 19 12 9 7 6 5 6 6 5 1 0 1 1 3 4 3 1 -0 -1 1 1 1 1 0 1 1 -1 -2 -3 -4 -5 -4 -5 -7 -5 -5 -6 -6 -7 -8 -9 -9 -10
16 16 15 17 18 19 14 12 8 12 13 13 9 8 5 5 4 6 5 2 2 1 1 1 2 1 1 -2 -1 -0 0 -1 -2 -1 1 2 1 1 -1 -4 -6 -7 -6 -6 -7 -7 -6 -7 -8 -9 -10 -10 -11 -12

GFSWCAN_sfc_30mbdewp_003.txt.gz
Dewpoint
48 48 48 48 48 48 47 47 47 47 47 47 47 47 48 48 49 51 51 52 44 44 45 46 42 38 39 39 36 40 38 37 31 28 26 26 25 26 24 26 28 22 21 20 20 17 10 24 30 24 25 31 31 35
47 47 47 48 47 47 47 47 47 47 48 47 48 48 48 47 48 52 50 53 49 45 45 47 47 46 45 40 41 40 37 37 35 31 27 29 29 30 27 20 31 22 26 21 21 17 23 26 31 32 33 31 32 35
47 47 47 47 47 47 47 48 47 46 48 49 50 49 50 48 50 50 51 50 46 43 44 44 44 46 47 46 44 38 37 40 36 35 31 29 22 31 25 27 29 31 29 26 26 26 27 29 31 32 32 33 34 36
47 47 47 47 47 47 46 47 47 48 48 49 50 50 51 51 50 50 48 48 43 41 39 42 46 45 47 48 44 42 40 40 39 36 31 29 22 32 28 29 29 30 31 30 29 30 30 30 33 34 34 37 38 39
47 47 47 47 47 46 46 47 48 48 48 49 50 50 50 50 50 50 50 50 47 39 38 41 43 44 47 45 43 42 39 38 36 33 31 28 31 32 33 33 30 33 29 27 24 26 28 28 29 33 35 36 39 40
48 48 48 47 46 46 47 48 48 48 48 48 48 50 50 49 46 42 40 47 48 45 38 37 42 43 45 45 45 45 42 40 39 36 35 34 36 33 32 31 31 32 34 32 29 34 32 33 35 38 38 40 42 41
47 47 47 46 46 46 46 47 49 48 48 48 48 48 48 47 47 35 36 46 46 44 36 38 40 41 42 44 43 44 45 42 40 38 36 35 37 35 33 31 33 37 36 36 37 38 37 38 38 40 39 29 24 22
47 47 47 47 46 45 46 47 49 48 48 48 48 48 48 48 48 47 48 47 46 38 36 32 36 40 42 41 39 42 41 42 40 38 37 36 37 37 35 36 35 36 37 39 40 40 40 34 27 24 23 25 27 30
46 46 46 47 47 46 46 47 48 48 47 45 45 47 45 46 45 47 48 46 45 36 30 32 25 26 42 39 39 40 40 39 39 39 38 39 35 34 32 31 32 33 35 36 33 28 26 25 25 27 29 31 32 33
45 45 46 47 47 46 46 48 47 47 46 45 43 39 40 46 47 45 40 38 40 40 41 34 36 34 41 39 38 38 38 36 34 36 39 37 35 29 26 29 31 33 33 37 35 28 29 31 30 31 33 34 34 34
44 45 46 46 47 47 46 46 46 45 45 43 42 43 46 44 40 37 34 34 37 36 38 37 37 37 40 38 38 36 35 34 32 33 35 34 31 26 30 33 33 32 34 34 34 34 34 35 34 33 34 35 36 36
43 43 43 44 45 45 46 46 45 45 43 44 44 42 39 38 36 33 33 36 34 33 37 38 38 39 39 40 37 36 34 34 30 35 34 30 26 25 31 32 33 34 35 36 36 36 36 35 35 35 36 36 33 29
43 43 43 43 43 42 42 42 43 42 41 40 38 36 36 35 32 30 30 32 32 34 35 36 37 36 38 37 36 36 34 32 34 32 30 28 25 34 32 31 32 34 34 33 33 34 31 26 25 26 25 27 28 28
41 41 42 43 42 41 40 39 38 37 38 35 35 32 31 32 31 31 32 32 32 33 34 35 34 36 34 36 34 34 31 32 28 27 26 28 32 31 31 31 34 34 33 27 21 23 23 24 25 26 27 27 27 28
39 39 39 41 42 41 38 38 37 36 33 31 30 27 28 29 31 31 32 32 33 34 34 35 34 34 33 32 30 30 27 25 25 24 29 31 31 23 21 22 23 30 26 23 26 26 26 26 26 27 27 28 28 28
38 36 37 41 41 39 38 35 34 34 32 31 31 28 30 30 30 31 32 32 35 34 35 35 32 30 28 29 28 26 25 22 25 30 32 33 33 34 28 24 27 30 31 31 28 27 28 27 27 28 27 28 27 28
35 34 39 41 39 37 36 33 31 30 30 29 30 32 32 32 31 32 33 34 35 33 30 30 29 27 29 26 26 28 25 27 31 32 34 34 33 30 30 31 30 27 27 27 27 28 27 27 27 27 26 26 27 27
36 38 39 39 37 35 35 31 29 29 28 30 29 30 31 32 32 32 32 33 32 31 30 28 29 26 24 23 24 28 29 30 32 33 33 31 28 26 26 25 25 27 28 28 28 28 27 26 25 24 23 21 22 22
38 38 38 38 36 33 31 31 29 26 28 30 30 30 31 30 30 31 32 32 30 29 29 26 25 24 25 27 28 29 30 31 30 30 28 28 28 28 28 28 28 28 27 26 26 25 25 23 21 18 16 16 16 18
35 36 36 36 34 30 29 30 30 26 25 27 29 28 28 28 29 30 31 31 31 29 26 25 25 24 25 26 26 29 32 32 30 27 27 27 28 27 26 26 26 26 23 22 20 17 17 17 14 14 13 12 13 14
33 35 34 32 32 31 30 29 28 29 27 26 28 27 26 27 26 26 28 29 28 26 23 26 26 27 28 28 28 29 30 28 27 27 27 25 24 22 21 21 20 18 17 16 13 11 11 11 11 11 11 10 11 12
35 34 29 29 27 29 28 30 29 28 25 28 28 27 26 23 24 25 28 27 27 27 28 28 28 29 28 26 26 27 27 26 26 25 25 24 22 18 14 13 13 13 13 12 12 9 8 8 8 8 8 9 9 9
34 29 25 22 22 23 25 29 26 26 21 24 26 25 25 24 26 27 24 27 27 29 30 28 26 26 24 24 24 24 24 23 21 21 20 18 16 14 11 10 8 8 8 7 7 7 7 5 6 6 6 6 7 7
30 27 23 22 21 21 24 23 25 24 24 22 22 22 23 23 25 24 22 23 27 27 28 27 25 22 22 21 19 20 22 20 18 16 19 16 14 12 11 9 7 6 4 4 4 3 3 3 3 3 4 4 5 6
19 23 20 20 21 20 19 19 20 20 19 20 19 19 22 23 21 19 19 20 21 22 23 26 24 22 18 17 17 17 18 18 15 12 11 10 9 6 5 4 6 5 4 3 2 2 2 2 2 2 2 3 4 5
18 23 20 20 21 20 19 18 18 19 20 19 20 18 20 20 17 16 16 17 19 19 21 21 19 17 16 17 15 13 13 15 11 9 7 5 3 1 0 -1 -1 0 3 2 0 -0 0 0 1 1 2 3 4 2
19 20 24 26 24 23 21 20 18 20 20 19 20 20 19 16 14 15 19 18 18 16 17 18 19 16 14 12 12 12 12 12 11 8 7 6 4 3 1 0 -1 1 3 2 -0 -2 -2 -1 -0 2 3 4 3 0
23 22 21 22 23 24 22 21 20 20 21 23 22 18 17 15 15 14 15 18 16 15 13 12 12 11 9 9 10 10 9 8 7 7 6 5 4 3 2 1 0 2 -0 -1 -1 -0 0 1 2 3 2 1 0 -0
24 25 24 21 22 22 21 21 21 23 24 23 21 17 13 11 10 10 13 15 15 13 11 9 8 8 7 5 3 3 4 5 2 -1 -2 -1 -1 1 2 0 -1 -1 -1 -2 -1 1 4 6 4 1 -1 -2 -2 -2
22 23 22 20 21 20 22 23 22 23 21 19 16 13 10 8 9 10 11 11 10 8 7 6 6 8 6 5 4 3 1 1 2 1 -1 -1 1 1 0 -1 -1 -1 -3 -3 -4 -4 -1 -2 -3 -4 -5 -6 -6 -6
26 26 24 21 20 22 23 23 26 26 19 15 13 10 8 7 8 7 6 5 6 6 7 5 4 1 4 3 3 2 2 1 -1 -1 -1 -1 -1 -1 -1 -2 -3 -5 -5 -5 -5 -5 -5 -5 -6 -7 -7 -7 -9 -9
20 20 19 18 19 18 15 15 15 17 17 16 10 7 6 6 4 6 5 4 2 2 1 1 4 4 2 -0 -2 -2 -0 1 1 -0 -1 -1 -0 -1 -2 -3 -6 -6 -5 -5 -6 -6 -7 -7 -7 -8 -9 -9 -10 -11
15 15 15 16 17 18 13 11 7 11 10 10 6 5 3 4 3 5 4 1 2 1 1 2 2 1 1 -0 -1 0 -1 -2 -4 -3 -2 -1 -0 0 -0 -3 -4 -7 -7 -6 -7 -8 -7 -8 -8 -9 -10 -11 -12 -13

GFSWCAN_sfc_30mbdewp_006.txt.gz
Dewpoint
43 42 46 48 48 48 48 48 48 48 48 48 49 49 49 50 50 52 54 54 49 43 43 43 41 40 41 41 40 41 39 40 38 34 34 34 33 30 27 28 30 27 28 27 26 22 17 23 30 25 28 35 33 34
42 46 48 48 48 48 48 48 48 47 48 48 48 49 49 49 50 53 52 53 53 47 46 49 48 48 46 42 42 42 41 40 40 38 37 38 33 32 33 27 32 27 30 28 26 24 27 28 31 33 35 34 34 34
48 47 47 47 47 47 47 47 47 47 47 47 47 48 48 49 50 50 52 53 50 48 45 46 45 48 48 49 48 39 41 42 40 42 41 40 26 38 30 32 32 32 31 30 28 26 27 28 30 30 32 33 34 34
47 47 47 47 47 47 47 47 47 48 49 48 48 48 48 48 50 52 50 51 51 48 42 45 48 47 48 49 47 46 44 43 40 40 39 34 30 36 35 34 34 33 32 31 30 29 29 30 32 33 33 35 37 37
47 46 46 46 46 47 48 48 48 49 49 49 49 48 48 49 50 52 52 51 51 48 43 46 46 47 47 45 44 44 43 40 40 38 33 35 37 37 37 36 34 33 30 31 28 26 31 30 32 35 36 37 38 40
46 46 45 46 46 47 48 48 48 48 49 50 50 49 50 50 49 49 44 51 49 50 47 43 45 45 46 46 45 45 43 43 42 41 40 37 38 39 35 33 33 34 34 35 32 35 35 36 38 41 41 40 39 37
45 45 45 46 47 47 48 47 48 48 49 50 50 47 45 46 47 41 43 48 47 48 46 42 43 44 45 46 45 47 47 45 45 43 41 41 40 38 37 34 37 37 37 39 40 40 38 39 37 34 32 30 30 31
46 46 45 45 46 47 48 47 46 47 48 48 48 48 48 48 49 47 49 48 47 43 44 39 40 44 45 44 41 44 44 45 42 40 39 39 39 40 37 37 35 35 35 39 35 38 39 32 29 29 31 33 34 35
46 46 46 45 46 47 47 47 46 45 45 47 47 47 49 48 48 49 48 46 48 44 33 36 37 37 43 40 41 42 43 39 40 40 39 41 36 36 32 31 33 34 35 35 32 32 31 30 30 32 34 35 34 33
46 46 46 45 46 47 46 46 45 45 44 44 43 40 42 47 46 45 43 41 41 43 42 34 39 36 41 40 38 40 41 37 37 38 40 38 35 28 30 32 33 34 34 38 36 33 31 31 33 35 34 35 35 35
45 45 46 47 46 47 46 45 45 45 45 45 45 44 48 44 43 40 35 35 38 36 39 38 39 38 41 39 37 38 36 36 33 36 36 35 32 29 33 33 34 35 35 34 34 34 35 36 34 35 35 36 35 35
43 43 43 43 44 44 44 45 45 46 46 46 46 44 43 40 38 33 34 36 36 34 37 38 38 40 39 41 39 37 35 35 31 37 34 32 29 31 33 34 35 36 37 36 36 36 36 35 34 35 35 33 30 28
43 43 43 42 41 41 41 40 42 43 43 44 40 36 37 36 31 29 27 32 33 35 35 37 37 38 39 40 37 37 34 33 36 32 31 30 29 33 34 34 34 33 33 32 32 30 26 25 27 28 29 29 30 29
40 41 42 42 42 40 39 38 38 38 40 36 35 31 32 32 32 31 32 33 32 34 36 37 35 37 35 36 35 35 32 33 30 28 29 29 32 33 35 34 33 31 31 25 24 26 27 27 28 29 29 30 30 30
38 39 40 41 42 41 40 38 36 37 36 33 33 29 29 30 31 31 32 33 33 35 36 36 35 36 34 33 32 31 29 28 29 28 29 32 32 34 31 30 28 33 28 28 30 29 28 28 30 30 31 30 30 30
36 36 38 40 40 38 37 37 36 37 35 33 31 29 31 31 30 32 32 32 35 34 36 35 32 32 30 31 29 29 29 26 28 31 32 32 31 30 26 27 30 31 30 32 29 30 30 29 29 30 29 27 27 27
35 35 38 40 39 36 35 33 34 32 32 32 30 32 32 32 31 31 32 32 35 34 31 32 30 28 30 29 28 30 28 31 31 32 34 35 34 33 33 33 31 29 29 29 30 29 29 28 27 25 22 19 20 21
35 37 38 38 37 37 35 33 31 31 29 30 30 30 31 32 32 31 32 33 34 32 32 30 30 28 28 26 27 31 31 32 34 34 35 33 30 29 29 28 29 30 30 28 28 27 26 24 21 17 15 15 15 16
35 36 36 37 36 35 32 32 31 28 29 31 31 31 32 31 32 32 33 33 32 33 32 30 28 26 29 30 31 30 31 32 32 30 30 30 30 30 30 30 29 28 26 25 24 22 21 17 15 14 13 13 14 14
35 34 34 35 35 33 31 31 32 28 27 29 30 29 29 29 30 30 32 33 32 32 29 28 28 29 30 30 30 33 34 33 31 29 28 28 27 28 28 27 26 25 23 19 15 15 15 14 12 12 13 12 13 13
34 34 34 35 33 32 30 30 28 29 28 26 28 29 28 29 28 28 29 31 31 28 26 28 28 29 29 29 31 32 32 32 32 32 29 25 25 24 23 21 18 18 18 17 14 13 13 11 10 10 12 13 12 13
34 33 31 30 29 30 29 31 29 29 26 28 28 28 28 25 28 29 30 30 29 29 29 29 30 30 28 27 27 28 28 28 27 26 25 24 21 18 16 16 17 15 14 13 13 12 11 8 8 10 11 11 11 11
33 30 27 26 23 25 25 29 27 26 24 25 27 25 26 27 28 29 24 28 28 30 30 29 26 27 25 25 25 25 26 25 23 22 20 19 18 17 13 11 11 12 10 7 7 8 8 7 8 9 10 10 10 10
29 25 22 24 24 21 25 23 23 23 23 23 23 23 25 26 27 25 23 23 24 25 27 26 25 23 23 22 20 21 22 22 20 20 20 19 16 12 11 9 8 7 6 6 6 7 7 8 7 8 8 8 8 8
20 22 21 20 23 21 20 20 20 19 19 20 21 21 23 25 22 20 19 19 21 22 23 25 24 22 20 19 19 18 20 20 17 14 13 13 11 9 6 6 6 5 6 6 6 6 6 6 6 6 6 7 6 5
20 24 21 21 22 21 20 20 20 20 20 20 21 22 23 22 19 16 16 19 20 20 20 22 21 19 17 18 17 16 15 14 12 10 7 6 6 7 5 4 4 5 5 6 5 4 4 4 4 4 5 5 5 4
19 20 23 27 24 23 22 22 22 22 20 20 22 22 21 17 16 17 18 17 18 17 17 18 19 18 15 14 13 13 13 12 11 9 7 6 5 5 5 4 3 3 4 4 4 4 3 3 3 4 5 5 5 4
23 22 21 23 23 24 22 22 22 21 22 24 23 20 19 18 17 15 15 17 17 16 15 14 13 13 13 12 13 12 10 10 9 8 7 7 6 6 5 5 3 3 3 3 3 3 3 3 4 4 4 3 3 2
24 26 25 21 22 23 22 22 22 23 24 24 22 20 15 12 12 13 14 15 17 16 14 12 11 11 10 8 8 8 9 9 6 2 2 3 3 5 5 4 4 3 3 2 1 2 3 4 4 3 2 1 1 1
23 25 23 21 20 21 23 25 24 26 22 21 18 14 11 10 10 12 13 14 13 12 11 11 11 12 10 9 8 7 7 6 5 4 3 2 3 4 4 3 3 3 2 1 1 1 0 1 1 1 -0 -1 -1 -2
26 26 24 22 21 24 23 23 26 24 21 17 16 14 10 9 10 10 9 9 10 11 11 9 8 8 7 6 6 5 5 5 3 3 3 3 4 4 4 3 3 2 1 0 -0 -1 -2 -1 -0 -1 -2 -3 -4 -5
21 18 19 19 21 20 19 19 18 20 19 17 12 11 9 10 7 8 8 9 9 8 4 6 7 7 6 5 4 4 1 4 4 4 3 3 4 4 3 3 2 1 -0 -1 -1 -2 -2 -3 -3 -3 -3 -4 -6 -7
18 18 18 18 18 19 17 16 12 13 14 12 9 8 7 8 5 6 8 7 7 7 6 6 7 7 5 3 3 4 2 3 2 2 1 1 -0 1 2 2 2 0 -2 -2 -2 -2 -3 -4 -4 -5 -6 -7 -8 -9

GFSWCAN_sfc_30mbdewp_009.txt.gz
Dewpoint
41 42 43 43 44 44 44 45 46 48 48 46 48 48 48 49 49 50 52 54 38 30 37 34 28 30 30 32 42 42 40 42 40 38 37 34 36 32 29 28 31 28 30 29 32 30 20 21 26 23 31 29 28 30
43 43 42 42 44 44 43 47 47 48 48 48 48 48 48 49 49 50 50 53 52 36 47 48 49 48 39 37 38 42 34 40 40 35 41 43 36 36 35 28 32 29 29 29 26 25 28 26 25 27 31 30 30 30
42 41 41 41 42 46 47 47 47 47 47 47 47 48 48 49 50 50 51 52 47 48 46 44 44 48 48 50 51 39 43 41 42 46 46 46 35 41 34 34 33 31 31 29 28 22 24 25 26 28 29 30 32 33
43 45 47 47 47 48 47 47 47 47 48 48 48 48 49 49 50 50 51 54 44 48 43 46 48 47 49 48 48 49 45 46 44 44 47 39 38 38 40 36 33 32 31 28 28 25 24 26 28 31 32 35 36 37
46 46 46 47 47 47 47 47 47 47 47 47 48 48 49 49 49 52 52 52 53 42 45 46 47 47 47 47 46 46 45 43 42 43 35 41 40 39 40 38 33 32 25 31 28 29 32 30 34 37 38 39 41 40
46 46 47 47 47 47 48 48 48 49 48 47 47 48 49 49 49 50 47 50 50 54 47 44 47 46 46 45 44 44 44 42 41 44 45 39 40 39 38 30 32 35 36 37 34 37 37 37 39 37 35 34 33 33
46 46 47 47 47 48 48 49 49 49 48 48 48 48 49 49 49 46 41 50 50 51 48 45 45 46 47 46 47 46 47 45 41 42 46 42 39 38 40 32 36 36 36 39 39 40 39 36 35 34 34 36 36 36
45 46 47 46 46 46 47 48 49 48 48 48 48 49 49 48 49 49 48 47 49 46 46 43 44 47 47 47 45 46 47 45 44 42 43 43 40 43 38 37 35 35 37 38 35 37 34 33 33 34 36 36 36 35
45 46 46 46 45 45 45 45 47 48 48 48 49 49 49 50 45 48 47 46 51 48 42 44 41 41 45 42 44 45 45 42 42 40 41 42 38 38 35 35 35 35 36 37 34 33 33 33 33 34 35 35 34 34
46 46 45 45 45 44 44 45 45 45 45 48 46 45 43 49 46 47 44 47 47 45 43 39 43 41 43 42 40 42 42 40 37 39 40 40 38 33 33 34 35 35 35 37 35 34 34 34 34 34 34 35 34 33
44 44 43 43 43 43 44 45 46 48 48 49 47 45 48 45 45 43 38 38 39 38 40 39 41 40 43 40 38 40 38 39 35 38 37 36 35 32 34 35 36 36 35 35 35 35 35 34 34 35 34 33 35 33
43 42 42 41 42 40 41 44 47 47 48 48 48 47 45 42 40 33 35 38 39 36 38 38 39 40 41 42 39 39 36 36 33 37 35 31 32 33 35 36 36 35 35 34 34 34 33 33 33 32 30 29 30 30
42 42 42 41 40 40 38 38 41 43 46 45 41 37 38 38 32 31 28 33 34 36 36 39 37 40 40 41 38 37 34 34 37 33 31 32 32 34 35 34 33 33 32 31 29 26 25 27 30 31 31 31 33 31
40 41 41 42 41 39 39 38 40 42 42 39 37 31 34 33 31 31 33 33 33 34 38 39 36 38 38 37 36 34 32 35 31 29 30 32 33 34 35 33 30 30 29 25 26 28 29 31 31 31 31 31 31 30
39 39 39 40 40 40 39 40 40 40 38 34 35 29 29 31 32 32 33 33 34 36 38 39 38 39 35 34 34 33 30 30 31 30 31 32 34 35 34 32 31 27 28 30 31 31 32 33 32 30 29 29 29 27
35 36 37 40 39 37 37 38 40 39 36 34 32 30 31 32 31 32 32 32 35 35 38 38 34 34 31 33 32 31 31 29 30 31 33 33 35 36 30 29 31 30 28 32 31 31 31 29 29 29 26 24 26 25
35 35 38 39 38 36 36 36 36 34 33 32 30 32 32 32 30 31 32 32 35 34 31 33 31 29 31 30 29 32 29 30 31 32 34 34 35 33 29 32 31 31 31 31 30 29 28 28 26 23 19 17 18 19
34 36 38 38 38 36 35 34 33 31 30 32 30 30 32 33 32 32 33 35 36 34 34 31 33 30 29 28 29 31 32 33 34 34 34 35 34 32 32 32 31 31 30 29 28 27 26 24 20 18 15 14 14 14
32 35 37 37 37 36 32 32 32 29 30 31 32 32 32 33 33 34 36 36 35 35 33 31 30 28 30 32 31 31 33 33 31 32 32 31 31 31 31 30 30 29 28 26 25 24 19 16 16 15 14 12 14 14
34 33 35 35 35 33 31 31 31 29 28 30 32 30 30 30 33 33 35 34 32 30 30 28 28 28 29 29 31 33 34 34 32 31 30 29 30 29 29 28 27 25 21 19 17 18 17 16 13 12 14 13 14 14
32 31 34 35 33 32 30 29 27 28 27 27 30 29 28 32 30 32 32 33 32 29 28 28 29 30 30 30 30 32 32 33 32 32 29 27 27 27 27 27 25 23 22 21 18 16 15 12 11 11 14 15 14 14
30 33 33 32 30 31 29 31 26 26 25 25 26 26 26 27 28 28 31 29 27 28 29 29 29 30 27 26 27 28 29 29 29 28 27 27 25 24 23 23 22 19 16 15 14 15 14 10 11 11 13 13 12 13
32 31 31 32 26 26 25 27 25 26 23 24 26 23 25 26 27 29 26 27 26 27 29 27 26 26 25 26 25 25 27 25 23 22 22 22 21 21 19 15 16 15 13 9 9 10 11 10 10 10 12 11 12 11
29 28 26 26 25 24 26 23 22 22 24 23 23 22 24 25 27 25 22 21 22 24 26 25 25 24 24 23 21 22 23 24 22 23 23 21 18 17 14 11 10 9 9 9 10 11 10 11 9 10 10 9 9 8
23 23 26 23 26 23 22 22 22 22 20 21 22 22 23 26 22 19 19 19 21 21 24 25 23 23 22 21 20 19 21 21 19 16 17 17 15 11 9 8 8 8 9 10 9 9 9 8 8 8 7 8 7 6
21 25 22 23 23 22 22 21 21 21 21 21 22 24 25 22 19 17 17 19 20 20 20 22 23 21 19 19 18 17 17 17 15 12 9 9 10 11 9 8 8 10 8 9 8 7 7 6 6 5 6 6 7 7
20 21 23 25 24 23 23 23 24 21 20 20 22 21 21 19 17 17 19 18 19 19 19 20 20 19 17 16 15 15 15 14 13 10 8 8 8 8 8 8 6 6 6 7 6 6 6 5 5 5 5 6 6 6
22 24 20 23 23 24 22 22 22 21 22 23 23 20 19 18 17 17 17 18 19 18 18 17 16 16 15 16 16 16 14 12 11 10 10 10 8 8 7 7 7 5 5 6 5 4 5 4 4 5 6 5 4 4
23 26 25 22 23 23 22 21 21 23 24 23 22 21 17 14 15 16 16 18 20 20 17 16 15 15 14 12 12 12 12 11 9 5 4 6 7 9 7 6 6 5 6 5 4 4 4 3 4 4 3 3 4 4
24 27 23 22 21 20 23 26 25 26 24 23 20 16 14 13 13 16 17 17 15 14 14 14 15 15 13 12 10 9 9 8 6 6 5 4 5 5 5 5 5 5 5 5 4 3 3 3 3 4 3 2 2 1
26 25 23 21 20 23 24 25 26 25 23 20 20 18 14 12 12 12 12 13 14 14 14 12 10 10 9 8 7 7 7 8 5 4 4 5 5 5 5 5 5 5 4 3 2 2 2 1 1 2 1 -0 -1 -2
23 21 21 18 20 23 23 22 22 21 21 20 16 15 13 14 9 9 10 13 12 10 9 10 9 7 7 7 7 6 3 5 5 4 4 4 4 5 5 5 5 4 3 2 1 1 1 -0 -0 -0 -1 -1 -3 -5
21 20 18 18 17 18 20 19 17 16 16 14 12 12 11 11 6 8 10 10 9 8 7 8 8 8 7 6 6 5 3 3 4 4 4 3 3 3 2 3 4 3 1 1 1 1 -0 -1 -1 -2 -4 -4 -5 -6

GFSWCAN_sfc_30mbdewp_012.txt.gz
Dewpoint
41 41 40 40 41 41 42 44 44 44 45 46 45 45 46 45 46 49 49 53 54 44 36 35 31 27 30 39 42 43 41 41 42 37 36 37 36 33 28 28 32 30 34 31 35 33 24 23 24 24 33 31 29 29
40 39 40 41 41 42 42 44 44 45 46 45 45 45 45 45 48 49 48 52 57 53 47 50 49 47 41 32 42 45 38 42 44 37 38 40 37 37 35 30 30 29 31 32 31 31 30 24 25 26 28 29 30 30
41 42 42 42 43 44 44 44 45 45 46 46 47 46 46 47 49 49 49 51 54 48 47 42 43 48 49 50 53 42 42 41 41 47 48 46 38 43 33 37 31 31 32 31 28 21 24 25 26 27 28 30 32 34
41 41 41 41 43 42 44 43 44 47 46 46 47 47 48 48 48 49 49 54 54 48 43 47 49 47 48 48 50 50 48 49 49 49 49 41 40 41 40 37 35 34 31 28 27 28 26 25 33 34 35 36 38 40
41 40 40 40 42 42 43 45 47 47 47 47 47 47 47 48 48 50 51 53 54 40 43 47 47 47 47 47 47 48 48 47 46 44 33 41 41 42 43 40 35 33 29 29 31 35 35 34 38 40 39 37 36 35
42 42 41 41 43 44 46 46 45 46 47 47 47 47 47 49 50 50 49 51 54 50 48 44 48 46 45 46 46 45 47 45 44 47 46 41 41 41 36 33 30 36 37 37 36 39 39 39 36 36 35 35 35 35
46 46 46 46 47 46 46 46 47 47 47 47 47 48 49 49 50 50 45 50 49 53 46 44 44 46 46 46 46 45 46 44 44 44 47 43 40 42 40 33 36 36 37 38 38 40 37 36 34 36 37 36 36 36
46 46 47 47 47 47 47 47 46 46 46 47 48 49 49 49 49 49 48 48 51 47 47 42 43 45 47 48 46 47 47 45 45 44 45 44 42 45 39 36 35 36 37 37 36 35 35 35 36 36 36 35 34 33
44 44 45 46 47 47 47 47 47 47 47 48 48 49 49 48 48 49 46 49 53 48 42 43 40 40 46 44 45 47 46 43 44 41 42 42 39 39 38 36 35 36 38 36 34 35 35 35 35 35 34 33 32 32
42 42 42 45 46 47 48 47 48 48 48 48 49 45 44 49 47 46 46 44 43 45 46 42 44 42 43 42 41 42 43 41 37 39 41 40 38 34 35 36 36 36 38 36 34 33 34 34 33 33 33 33 35 34
42 42 41 41 43 46 46 47 48 48 48 48 45 46 48 46 46 44 39 40 40 39 41 41 42 42 44 41 38 42 40 41 35 38 37 35 35 34 35 36 36 36 35 36 36 36 35 34 33 34 34 32 30 30
43 42 42 41 41 42 44 46 48 48 49 49 47 48 47 44 42 35 36 38 40 38 38 38 40 41 42 44 39 40 35 37 33 38 35 32 34 34 35 36 35 35 34 34 34 33 33 34 32 31 30 31 31 31
41 42 41 42 42 42 41 43 45 46 47 46 42 38 40 39 34 34 30 34 34 35 37 39 37 41 41 41 38 37 34 34 37 34 31 33 34 34 36 35 34 33 33 32 29 28 29 31 33 31 31 31 33 32
39 40 40 40 41 42 42 41 43 44 43 40 37 32 35 32 31 30 31 32 33 34 38 39 37 38 39 36 37 33 34 35 32 29 31 32 33 35 34 34 32 29 28 27 28 31 31 30 30 30 30 30 29 27
38 38 38 39 39 39 41 41 41 41 38 34 35 29 29 31 32 32 33 33 34 37 38 39 39 39 36 34 34 33 31 30 30 30 32 33 35 35 33 33 29 29 31 31 31 31 31 30 29 28 28 27 27 26
37 36 36 39 38 38 39 40 40 39 36 33 31 30 32 32 31 31 32 32 35 36 39 39 36 34 32 34 32 32 32 30 30 31 32 34 35 36 36 33 29 30 33 32 32 31 30 29 28 26 24 25 25 22
35 35 38 39 38 36 37 37 36 35 33 32 30 32 32 31 29 30 32 33 36 35 32 34 31 29 33 31 29 31 28 30 31 32 34 35 35 34 33 33 32 33 32 32 30 29 28 28 26 23 19 17 18 21
33 35 38 38 38 35 35 36 34 32 29 31 29 30 32 32 32 32 34 37 36 34 34 31 34 31 29 28 28 30 31 31 34 34 34 36 36 33 34 32 33 31 30 28 28 28 27 25 21 19 16 14 15 16
33 36 36 36 36 35 32 33 33 29 30 32 32 33 34 34 34 35 36 37 36 36 35 34 31 28 27 28 28 31 32 32 32 33 33 33 34 34 32 31 30 29 28 28 27 22 19 17 16 16 14 15 16 16
32 32 35 34 34 33 30 30 32 30 29 31 33 31 31 31 34 34 36 36 34 31 29 27 25 26 26 27 29 30 32 33 33 31 31 31 31 31 30 29 28 25 22 20 20 20 19 17 13 14 15 16 16 15
29 31 34 35 32 32 31 29 28 29 29 29 31 29 28 32 31 32 32 33 28 27 27 29 28 29 30 29 29 30 30 30 28 33 30 29 29 29 29 30 30 28 26 25 20 17 16 14 13 13 16 17 15 16
29 33 34 34 31 31 28 31 26 26 26 27 26 26 27 28 28 29 30 26 24 26 28 28 28 28 26 25 26 28 28 27 27 27 30 30 27 26 26 27 24 22 20 18 17 17 15 12 13 13 14 14 14 14
32 33 33 33 26 27 25 27 25 24 22 23 26 23 23 24 28 29 25 25 25 29 29 27 26 26 25 25 24 24 26 25 24 23 23 22 22 21 20 19 21 20 14 11 12 13 13 12 12 12 13 12 13 13
31 30 27 27 26 24 26 23 23 22 24 21 21 21 22 25 27 23 20 22 24 25 25 25 28 26 23 21 20 21 24 24 23 23 23 21 18 18 18 17 13 12 13 13 13 13 13 12 11 11 11 10 11 10
23 24 27 23 27 24 22 21 22 20 19 21 23 22 23 27 22 21 20 21 21 22 23 26 23 24 22 21 20 19 22 21 18 17 20 21 18 14 12 11 10 10 11 11 10 10 10 10 10 9 8 8 8 8
21 24 22 22 22 22 21 19 20 20 20 21 21 23 25 23 20 18 18 21 20 20 20 21 24 21 18 18 17 16 17 19 15 12 10 11 13 13 12 11 12 11 10 10 9 8 7 8 7 6 7 7 7 9
19 21 24 26 24 24 23 23 24 23 21 21 23 23 22 19 17 18 19 19 19 20 20 21 20 19 17 16 16 16 14 13 12 10 10 10 10 10 10 9 8 7 7 7 7 6 5 6 6 6 6 8 9 8
22 24 21 23 23 24 21 22 22 22 23 24 24 21 19 17 15 18 19 20 21 19 18 18 16 16 16 17 18 18 17 15 14 13 13 12 11 11 9 9 9 7 7 9 6 7 6 6 5 5 7 6 6 7
23 26 26 22 21 21 23 23 23 24 23 24 22 20 17 15 15 18 17 20 22 23 19 17 17 17 16 14 13 13 12 11 10 7 7 8 11 12 8 7 7 7 7 7 7 7 7 6 5 6 5 4 5 7
22 27 22 20 20 21 24 25 25 25 23 23 20 16 14 13 15 18 17 17 16 16 16 16 16 15 15 16 11 11 10 8 7 6 5 5 5 7 7 7 7 6 7 6 5 5 5 6 3 5 7 6 5 4
24 23 21 20 21 23 24 24 27 26 24 21 20 18 13 12 13 13 13 17 14 15 16 13 11 10 8 8 8 8 10 9 6 5 4 5 5 6 8 7 7 8 6 5 5 3 3 3 2 2 3 3 2 1
21 20 19 17 21 24 22 21 21 23 23 21 17 17 15 16 9 9 11 14 12 10 11 10 9 8 8 8 8 9 4 6 7 6 4 4 4 6 6 6 6 7 7 4 4 3 3 3 2 1 1 1 0 -2
19 18 18 17 16 18 20 18 17 18 16 15 13 14 12 11 6 10 13 12 10 9 9 10 11 11 9 8 6 6 3 4 6 6 8 8 4 3 2 3 4 4 3 2 1 2 2 2 2 1 -1 -2 -2 -3

GFSWCAN_sfc_30mbdewp_015.txt.gz
Dewpoint
39 39 39 40 40 41 41 40 42 44 44 44 44 44 46 47 48 48 45 48 48 49 46 45 38 38 37 43 40 45 44 42 43 34 30 34 32 29 31 34 32 28 29 26 34 30 23 27 24 17 32 31 30 30
40 40 40 40 40 40 40 41 41 41 42 43 45 45 45 45 46 46 44 48 50 47 50 52 49 43 42 44 44 44 37 40 43 37 39 38 34 35 32 29 34 29 33 30 31 29 32 25 27 32 30 29 30 33
41 41 41 41 41 41 41 41 42 42 43 44 45 45 45 46 46 45 43 47 49 48 47 51 47 49 50 50 49 40 45 44 45 48 42 43 30 37 31 30 32 32 33 31 29 27 28 25 26 31 35 38 41 39
41 41 41 42 42 42 42 43 44 44 44 45 45 45 45 45 46 46 44 47 50 49 44 46 49 47 48 51 50 50 49 51 51 49 40 37 33 44 35 35 33 35 31 29 29 27 36 39 40 41 39 39 34 34
42 42 42 42 43 44 44 44 45 44 45 46 45 45 45 46 47 48 48 49 52 47 44 45 47 47 47 48 49 50 49 48 46 37 32 37 42 41 40 37 33 34 32 28 27 37 37 38 38 36 35 34 35 35
41 41 41 43 43 42 43 43 44 45 46 46 46 46 47 48 49 48 44 48 50 51 48 41 48 46 46 48 47 48 48 47 48 43 42 42 43 37 32 29 37 37 39 39 39 40 37 37 38 38 37 36 36 36
40 38 38 41 41 42 42 44 44 46 45 46 46 47 48 48 49 46 47 50 51 49 46 42 42 46 48 48 48 47 47 48 47 47 44 40 39 42 36 31 36 38 37 39 39 37 35 37 36 36 36 35 36 35
42 42 42 42 42 42 41 43 46 47 47 47 47 48 48 49 50 47 51 50 49 49 45 41 43 44 48 46 44 48 46 45 45 44 44 41 42 42 35 36 36 37 37 36 35 37 37 37 36 35 35 34 33 33
46 45 43 43 43 43 43 45 46 46 47 47 48 48 48 48 48 48 47 48 52 45 41 42 40 40 46 43 45 45 46 40 43 40 42 38 38 37 37 36 36 38 37 35 36 36 36 35 34 34 33 32 32 33
46 46 46 46 46 46 46 46 46 47 48 48 48 48 45 47 48 47 47 39 40 45 43 40 42 41 43 41 41 40 41 40 33 38 41 39 34 35 36 37 37 38 35 35 34 34 34 33 33 33 34 34 32 29
44 45 47 47 46 46 46 46 47 48 48 49 46 44 47 47 45 41 37 38 39 37 40 40 40 41 44 39 37 40 38 39 30 36 34 35 33 34 36 36 36 36 36 36 36 35 34 33 34 33 30 29 28 28
43 43 44 47 47 47 47 46 47 49 49 47 46 48 46 44 39 35 34 36 37 35 37 38 40 42 41 44 38 39 35 36 33 38 35 31 34 36 36 35 35 35 34 34 35 34 34 33 31 29 30 30 29 29
41 42 43 43 44 47 48 48 49 49 47 44 38 37 37 37 33 31 31 32 33 34 37 38 37 40 40 40 38 37 34 33 37 34 32 33 35 35 35 35 34 34 34 31 32 32 31 30 31 31 31 31 29 28
39 39 40 42 43 42 43 45 45 44 41 37 34 31 33 31 29 30 31 32 33 34 37 38 37 37 38 36 36 33 34 35 32 29 30 32 34 35 36 34 33 29 29 29 30 30 30 29 29 30 29 28 26 26
36 38 38 39 40 41 41 41 40 39 36 33 32 28 28 30 32 32 33 33 33 36 37 38 38 37 35 34 34 32 30 28 29 29 31 34 35 34 32 29 29 29 30 30 30 29 29 29 28 27 27 26 24 24
37 35 36 39 39 38 40 41 39 37 35 32 31 30 32 31 30 31 32 32 35 35 38 38 35 33 31 33 31 30 30 27 28 30 33 35 34 35 31 31 32 32 31 31 31 30 29 28 25 25 25 21 18 18
37 35 39 38 38 37 38 36 37 34 32 31 29 31 31 31 29 31 32 33 36 35 32 33 30 28 33 31 27 29 27 29 30 32 34 35 35 34 33 33 33 32 31 30 30 29 29 27 23 22 19 22 20 17
36 37 38 38 38 36 36 36 34 32 28 30 28 30 31 32 31 32 33 36 35 33 33 30 33 30 27 26 26 29 30 31 32 33 34 36 35 35 34 33 32 30 29 29 29 28 26 24 19 17 16 18 18 17
35 36 36 36 37 35 32 32 33 28 29 31 32 33 33 33 34 35 35 36 37 36 34 32 25 23 23 24 24 27 31 32 31 32 32 34 34 33 32 31 31 30 29 28 25 19 18 18 18 16 17 17 17 16
32 34 36 34 36 30 29 30 34 31 28 30 33 31 32 32 34 34 29 29 30 28 26 24 23 24 25 25 27 28 29 33 32 30 29 30 31 31 31 30 28 25 25 24 22 19 17 16 17 17 17 17 14 14
32 33 36 37 33 33 31 30 30 31 31 31 31 29 29 32 29 28 27 26 24 26 23 26 26 26 27 28 29 28 27 27 27 31 29 27 29 29 29 29 28 27 25 23 21 19 17 15 14 15 16 12 12 14
32 35 35 33 31 29 27 29 28 28 28 27 27 28 27 25 27 28 24 23 23 25 26 25 25 25 23 24 25 27 27 26 25 24 25 25 21 22 22 22 20 18 19 19 19 16 14 14 12 13 13 12 12 14
34 34 30 29 23 23 22 29 23 23 22 23 25 23 24 24 26 29 23 24 24 27 28 27 26 26 23 22 23 25 25 23 21 21 20 19 19 19 17 17 19 17 16 17 16 15 14 13 11 11 12 9 10 11
33 30 26 26 24 23 25 22 24 23 22 20 19 19 21 24 27 21 19 20 22 24 25 26 26 23 20 19 19 20 22 21 20 21 21 18 16 16 16 15 15 15 17 14 13 13 12 10 10 9 7 7 8 7
20 22 24 21 25 22 20 19 20 19 20 21 21 21 21 26 20 20 18 19 19 19 20 24 20 22 20 19 19 18 21 19 16 14 18 19 17 15 13 12 12 12 12 10 9 8 8 8 6 6 6 6 6 8
19 23 20 20 20 20 20 17 19 20 20 20 21 23 24 23 18 15 17 18 17 18 18 19 20 17 16 17 15 14 15 19 13 11 12 13 13 14 13 12 10 7 8 8 7 6 5 5 6 6 5 5 7 8
18 20 24 25 26 26 21 22 23 22 21 21 22 20 21 19 14 16 19 19 18 18 19 19 19 18 17 16 16 14 13 13 12 12 12 12 11 11 8 6 4 4 6 7 5 3 4 5 5 4 4 6 6 5
24 25 21 24 23 24 22 22 21 21 22 23 24 18 15 13 11 16 18 21 21 20 19 18 17 16 16 16 15 14 14 15 12 13 13 13 11 10 8 9 7 8 8 9 6 8 7 7 5 3 3 4 4 2
24 26 26 20 20 22 23 23 23 23 24 23 19 15 12 13 15 17 19 20 20 18 17 17 16 16 14 13 12 10 8 8 7 6 6 8 8 7 7 8 7 6 7 6 6 7 6 6 8 4 3 5 5 5
20 24 21 19 19 20 22 24 23 23 24 23 17 14 12 13 14 14 15 15 15 14 14 13 13 11 10 11 10 9 7 6 5 3 2 2 3 6 7 9 6 7 8 5 4 5 3 3 3 3 2 3 5 2
21 21 19 21 21 21 22 24 27 25 23 19 16 12 9 10 13 12 12 15 13 13 11 9 8 9 9 8 7 5 5 6 7 4 3 4 4 5 5 6 6 4 5 7 6 4 3 2 3 3 2 1 2 -1
19 17 18 18 21 22 21 20 20 22 20 19 16 14 13 12 7 8 11 11 10 9 10 10 9 7 6 7 7 7 5 6 7 5 4 4 4 3 3 2 2 5 4 2 1 0 1 2 2 2 2 -1 -4 -3
19 17 16 15 17 18 19 17 20 16 15 14 14 14 11 8 5 9 13 13 10 9 9 10 11 12 11 7 5 5 6 4 4 7 6 6 6 4 1 2 1 0 -0 -1 -1 -1 -1 0 1 1 0 -2 -2 -3

GFSWCAN_sfc_30mbdewp_018.txt.gz
Dewpoint
38 40 40 40 40 40 40 40 40 40 41 41 41 41 42 43 43 45 43 47 44 43 45 47 38 35 38 40 38 43 43 43 40 32 29 32 28 31 31 32 29 25 29 29 30 24 19 31 24 20 24 32 30 31
38 38 38 39 39 40 41 40 40 40 42 42 42 42 43 43 44 45 43 47 47 44 44 48 51 50 40 43 43 45 39 42 43 35 37 36 33 33 30 31 35 24 26 24 27 24 30 27 28 34 32 30 31 36
39 39 40 40 41 41 40 39 40 41 41 41 42 43 43 44 45 45 44 48 46 42 43 48 47 48 49 45 45 39 43 45 45 42 39 38 30 34 29 29 31 33 36 32 32 30 32 30 35 35 38 38 39 39
40 41 41 41 41 41 41 40 42 44 44 43 43 44 45 45 46 45 44 46 46 46 42 43 51 48 50 49 47 46 42 47 50 43 36 34 29 37 31 31 30 33 32 31 30 38 38 40 40 38 35 35 34 34
41 41 41 41 42 42 41 41 41 42 43 44 45 45 44 45 46 46 46 46 48 45 41 41 46 48 51 51 51 51 49 47 41 34 31 31 39 39 37 35 33 33 31 28 26 33 35 38 37 36 35 35 34 33
42 42 42 43 43 43 43 42 42 43 44 45 45 45 45 45 46 45 40 44 47 46 43 37 49 48 49 51 48 48 49 48 46 41 42 41 43 35 31 31 36 38 38 35 37 39 37 37 37 36 35 35 35 34
43 43 43 43 43 43 44 44 45 45 45 45 45 45 45 45 47 42 39 48 48 48 42 40 42 48 49 49 48 48 49 48 46 45 41 38 40 37 30 29 37 39 39 38 38 37 36 37 35 36 35 35 35 34
42 42 43 43 43 44 44 43 44 45 45 46 46 46 47 47 49 44 49 51 51 46 46 39 41 44 48 44 45 47 45 44 44 43 43 39 42 37 27 36 37 37 37 37 37 38 37 35 35 34 34 33 32 33
39 39 40 42 42 42 41 44 45 45 46 46 47 47 47 46 45 43 50 50 50 48 41 41 39 40 44 42 42 43 41 38 41 41 41 37 37 36 36 36 36 35 35 36 36 36 35 34 33 33 32 33 32 31
40 41 42 42 41 42 42 44 46 46 46 47 46 44 40 45 51 49 46 44 42 43 40 39 41 40 42 39 40 39 39 37 32 37 39 34 33 35 37 37 38 37 36 36 34 33 33 32 32 33 33 31 29 28
43 42 42 42 43 43 43 46 46 47 47 45 45 43 48 49 47 44 39 37 37 35 38 39 40 40 44 37 38 38 37 36 30 35 33 34 31 34 36 36 36 36 36 36 35 34 34 34 33 31 29 28 28 28
46 45 45 44 44 45 45 46 47 46 46 48 47 49 47 43 38 35 33 36 35 34 36 38 40 42 42 42 38 37 35 34 31 37 33 32 33 36 35 35 35 35 35 34 34 34 34 32 30 29 28 28 28 29
46 46 46 45 46 46 46 47 47 49 49 46 41 38 36 34 31 30 29 31 32 34 36 38 37 39 40 39 37 36 33 32 34 32 30 31 35 35 34 34 34 34 33 33 32 32 31 30 30 30 28 29 29 27
43 44 45 46 46 47 47 47 45 45 40 35 33 31 32 29 29 29 30 31 32 33 36 37 36 37 37 36 35 34 34 35 31 28 29 32 35 35 34 33 32 31 31 30 30 29 29 29 29 29 28 26 25 23
42 41 41 43 43 41 40 39 39 38 34 32 32 27 28 30 31 32 32 32 33 35 36 37 36 37 34 33 33 32 31 29 30 29 31 34 36 33 32 30 30 30 29 29 29 28 28 28 28 26 26 25 24 19
39 38 38 40 40 40 40 39 37 37 34 31 30 30 31 31 30 31 31 32 35 35 36 36 33 31 30 32 31 29 28 27 28 30 32 34 31 30 30 30 30 29 29 29 29 28 27 26 25 24 22 22 22 18
35 35 38 38 38 36 38 36 35 33 32 29 28 31 31 31 30 31 31 33 35 34 32 32 29 28 32 28 25 27 25 28 30 32 34 34 32 32 33 32 32 31 30 30 29 28 26 25 24 21 18 18 19 18
35 37 38 37 35 35 36 35 33 31 28 30 28 30 31 31 31 31 32 34 34 32 32 30 32 25 22 22 22 26 29 30 32 33 34 34 34 34 34 32 31 30 30 29 29 27 23 22 19 19 22 19 18 19
36 37 37 36 35 32 30 33 32 28 29 31 31 32 31 31 31 31 31 33 33 33 31 28 22 20 20 23 22 25 27 31 30 30 31 33 33 32 31 30 30 29 29 27 24 21 19 18 18 19 18 17 17 17
31 34 35 35 33 29 29 30 33 30 28 30 32 30 30 29 29 26 25 26 27 26 23 21 20 21 22 24 26 25 25 30 30 28 28 29 30 30 29 27 26 26 24 23 22 21 20 19 19 18 16 14 14 16
31 33 33 33 31 30 29 30 31 31 31 28 30 29 28 28 21 21 22 24 21 23 20 23 22 23 25 25 26 26 25 25 27 30 27 24 24 24 23 24 24 23 21 19 17 17 16 16 16 16 13 12 13 16
32 35 28 28 25 24 24 27 27 29 27 27 26 27 24 25 26 22 19 20 21 23 24 23 23 22 21 21 22 23 24 23 23 22 22 22 20 20 19 20 19 18 18 17 16 15 14 12 13 13 11 9 13 12
31 29 27 22 19 19 20 25 21 23 21 22 22 22 23 25 27 24 19 21 22 23 26 22 21 21 20 20 21 21 22 20 18 18 18 17 17 17 17 17 18 16 15 16 17 15 13 12 12 9 7 7 9 8
29 26 24 24 22 22 20 20 23 20 20 19 18 17 21 24 22 18 16 18 19 20 21 23 20 18 17 16 16 17 19 18 18 18 18 15 14 14 14 13 13 13 13 12 10 10 10 8 7 6 5 5 5 6
18 20 18 18 20 18 18 17 18 18 18 19 18 19 20 22 18 16 15 15 15 15 17 19 17 18 15 15 15 16 17 16 14 13 14 16 14 13 11 9 9 9 9 6 6 5 5 4 4 4 3 3 5 6
18 23 20 18 21 19 18 16 17 19 19 18 21 22 21 17 11 11 13 14 14 14 15 16 15 13 13 14 12 13 14 17 12 10 11 12 12 11 10 9 5 4 7 4 2 1 2 3 3 2 0 4 5 4
18 21 24 27 26 23 19 21 21 19 19 19 21 20 18 11 10 13 17 18 16 16 17 17 17 15 14 14 15 15 14 13 12 11 11 10 9 8 4 2 3 5 6 5 4 4 5 4 3 3 1 1 2 3
25 25 20 20 20 21 21 19 18 18 19 21 19 12 10 8 7 14 16 19 18 17 16 16 15 14 11 9 8 8 11 14 13 12 10 9 8 7 8 8 7 8 7 5 5 6 6 5 5 3 2 2 2 1
22 24 20 17 18 19 19 20 19 20 22 20 13 10 8 10 10 11 14 17 17 14 13 12 12 12 10 8 6 6 4 4 3 1 1 2 0 2 5 6 5 4 4 5 4 6 6 3 4 4 2 2 4 3
19 21 19 18 17 16 20 22 19 20 20 14 12 10 9 10 11 13 13 12 10 9 9 9 9 7 7 6 5 6 5 3 2 0 -1 -1 1 3 2 3 3 2 2 2 3 3 4 1 1 1 1 1 -0 -0
18 16 18 19 17 20 22 25 22 19 15 11 9 5 6 8 10 10 11 11 10 9 7 5 5 6 5 5 3 1 2 4 4 4 2 2 1 1 1 1 -0 1 1 0 -0 -1 -1 -1 -2 -1 -1 -1 -1 -2
16 16 16 17 18 20 18 19 20 18 16 14 10 9 9 4 3 7 10 7 6 6 6 7 6 6 6 4 2 2 2 2 3 4 3 3 4 3 2 -0 -1 -1 -2 -2 -3 -3 -3 -3 -3 -3 -3 -2 -3 -4
16 12 11 13 16 16 16 16 17 12 12 11 11 9 7 4 2 7 9 7 4 2 2 3 5 7 5 1 -0 -0 1 1 1 2 3 4 2 2 1 -0 -1 -1 -2 -2 -2 -4 -4 -4 -5 -7 -6 -5 -6 -7

GFSWCAN_sfc_30mbdewp_021.txt.gz
Dewpoint
43 42 42 42 41 41 40 39 39 39 39 38 39 39 40 42 42 41 41 47 42 38 40 44 44 39 38 35 32 37 41 42 38 35 30 27 28 29 27 28 27 29 30 29 26 23 23 27 27 18 21 32 31 32
39 40 40 39 39 39 39 39 39 38 38 39 40 40 41 43 43 43 40 46 47 43 40 43 43 44 45 38 37 45 37 40 40 36 35 34 30 32 31 24 34 23 28 28 28 26 28 31 25 27 32 31 31 32
40 40 40 40 40 40 39 39 39 39 39 40 41 42 43 43 43 42 42 44 44 40 38 40 44 46 50 50 43 41 43 46 44 43 38 35 31 32 29 30 32 32 34 27 28 31 33 32 36 35 33 33 37 39
40 40 40 40 40 40 40 40 40 41 41 41 41 42 42 43 43 42 42 46 42 40 38 42 50 49 50 50 46 44 42 48 48 44 38 33 28 35 29 30 29 32 34 33 32 38 38 38 38 36 36 36 35 33
41 41 41 41 41 41 40 41 41 41 42 42 42 42 43 43 43 43 43 45 48 40 38 41 46 49 51 51 47 45 47 46 41 38 35 31 37 36 35 34 31 34 32 30 29 35 32 36 37 36 35 34 33 31
42 42 41 42 41 40 41 42 42 41 41 42 42 43 42 43 45 44 39 42 47 46 40 37 44 48 50 51 47 46 45 45 41 36 38 41 43 35 32 30 33 35 35 33 31 38 38 37 36 36 35 34 34 33
42 43 42 42 42 41 41 42 43 44 42 41 42 43 45 45 43 39 37 44 44 45 39 38 37 47 50 48 49 49 48 47 45 43 39 39 40 34 30 25 33 38 39 38 37 37 35 36 35 35 35 35 35 34
43 43 43 42 42 42 41 41 43 44 45 44 44 45 45 44 43 41 47 48 46 41 42 38 38 42 47 44 45 47 45 44 43 43 41 39 40 34 28 35 38 38 37 37 37 37 36 35 34 33 33 32 32 32
43 43 44 44 44 44 44 43 43 44 44 44 44 44 44 43 39 43 50 50 51 45 39 38 37 34 45 41 42 42 42 40 41 41 40 40 38 34 35 37 37 37 37 35 35 35 34 33 33 32 32 32 30 29
43 43 43 43 43 43 44 45 45 44 44 44 44 41 38 40 48 46 43 41 43 44 41 38 41 39 43 39 39 39 38 36 36 38 38 35 36 35 36 38 37 37 36 35 34 32 33 32 32 32 32 30 28 27
41 42 42 41 41 42 45 45 45 46 45 43 40 40 46 46 44 38 34 36 37 36 37 38 39 39 43 39 38 37 37 34 30 35 35 33 31 34 36 37 38 37 37 36 35 34 33 32 32 30 29 28 27 28
41 42 42 41 41 41 45 46 45 43 42 42 46 47 45 40 37 32 32 35 34 33 36 39 39 41 41 41 37 36 34 33 29 36 32 31 33 35 35 35 36 35 35 34 34 34 34 32 30 29 28 28 28 28
40 41 42 42 43 44 46 46 45 48 48 45 41 38 37 34 30 30 30 31 32 34 35 38 37 39 39 38 36 34 31 31 34 32 31 30 35 35 35 35 35 35 35 34 33 31 30 29 28 27 28 29 28 25
44 43 43 43 43 44 45 46 46 46 41 36 35 29 30 28 28 28 30 31 32 33 35 36 36 36 36 35 35 34 33 34 29 27 27 32 34 34 34 33 33 32 32 31 30 30 29 29 28 28 28 26 22 22
44 44 45 46 46 46 46 46 45 40 35 32 32 26 27 30 31 31 32 33 33 35 36 36 36 35 34 33 32 32 31 29 29 28 30 33 34 33 32 32 31 30 29 29 29 29 28 27 26 25 25 21 20 19
41 40 41 44 44 44 42 40 38 36 33 31 30 29 30 30 30 30 31 32 34 35 36 35 32 31 31 32 30 27 28 26 27 29 31 32 33 31 31 31 31 30 29 29 29 28 27 26 25 24 22 19 17 16
37 36 39 40 39 40 41 36 33 32 31 29 28 31 30 30 29 30 31 32 35 34 31 30 28 27 31 26 24 26 23 26 29 31 32 32 31 30 31 30 30 29 28 28 27 27 25 23 21 21 20 19 18 17
35 37 40 37 38 37 36 35 32 30 28 30 27 29 29 29 28 29 30 32 33 32 31 27 28 21 18 19 19 22 27 31 31 31 31 32 32 32 32 31 30 30 29 28 25 25 22 21 20 19 20 20 19 18
36 36 36 35 33 32 30 31 31 27 29 30 30 31 30 28 28 28 28 31 31 30 28 25 19 18 18 20 20 22 23 28 28 29 29 31 31 31 30 30 30 29 28 25 23 21 21 21 21 20 19 19 18 15
31 33 33 34 33 29 29 29 32 30 27 30 30 23 22 22 23 22 22 23 24 22 20 17 17 18 19 21 23 23 23 27 29 26 24 25 27 26 26 26 24 23 22 22 21 21 20 19 19 17 15 15 15 14
29 31 30 30 28 29 29 29 30 31 30 29 31 30 26 21 18 18 19 21 19 21 18 20 20 21 23 22 23 23 22 23 22 25 22 20 22 22 22 22 22 21 19 18 16 16 16 15 16 16 14 14 14 14
30 30 23 23 22 22 24 25 28 29 26 26 26 25 24 23 19 19 18 17 18 20 21 20 20 20 19 19 20 21 22 21 20 19 19 19 17 17 17 18 18 16 16 16 15 13 13 15 15 13 9 11 13 10
29 27 25 22 18 19 20 24 22 22 21 22 20 20 22 23 23 20 16 17 18 21 22 20 20 19 18 18 17 18 19 17 16 16 16 15 15 15 14 14 15 14 13 14 15 13 12 11 8 6 6 7 7 6
25 21 20 19 19 18 17 18 20 20 20 18 17 17 22 23 18 14 13 14 16 18 18 19 19 16 14 14 14 15 16 15 14 15 16 13 11 11 11 10 10 10 9 9 8 6 6 5 5 4 3 3 3 4
18 20 17 17 18 16 16 17 18 17 17 18 17 19 22 17 13 12 11 12 13 13 14 16 15 14 12 13 13 14 16 13 12 11 12 14 12 10 8 7 7 7 6 2 1 2 2 2 1 0 0 2 3 3
18 22 19 18 18 16 16 15 18 20 17 18 20 22 14 9 7 8 11 13 12 12 13 14 12 11 11 12 11 11 13 13 9 8 8 9 8 7 4 1 3 5 6 3 3 3 3 2 2 2 1 1 2 2
18 18 21 25 24 20 20 19 17 17 17 16 18 15 11 7 6 11 16 16 14 14 15 14 13 11 11 10 11 12 12 11 10 9 9 8 8 7 5 4 4 6 5 5 4 4 3 3 2 1 -0 -1 -1 -1
24 22 17 17 18 17 18 17 16 15 16 19 11 7 5 4 4 11 13 16 15 14 13 10 8 6 5 5 6 8 10 10 9 8 7 5 4 5 5 5 4 5 3 2 3 2 2 3 2 2 1 0 1 -0
21 20 18 17 16 16 17 17 16 19 19 14 7 6 5 7 8 9 12 13 13 11 8 8 8 7 6 5 4 3 2 -1 -5 -6 -5 -3 -2 1 2 1 1 0 -0 1 2 4 7 3 3 2 1 0 0 -2
18 16 16 15 14 14 18 16 15 14 11 9 8 6 6 7 9 12 10 8 7 6 6 6 5 4 3 3 3 3 2 1 2 1 -1 -1 0 2 -0 -1 -1 -1 -2 -2 -2 -2 -1 -2 -3 -3 -3 -3 -3 -3
15 16 17 16 16 19 18 14 11 9 6 5 3 2 3 6 7 9 8 7 7 6 5 4 4 3 3 3 2 0 0 1 1 2 1 1 1 -0 -1 -1 -3 -4 -5 -5 -5 -5 -5 -5 -6 -6 -6 -5 -5 -5
14 14 15 14 16 18 19 19 17 13 10 9 7 6 5 2 2 5 7 4 2 2 3 3 4 4 1 -1 -1 -0 1 -0 -0 -0 0 0 1 0 -0 -1 -3 -5 -5 -5 -7 -7 -6 -6 -7 -8 -9 -8 -7 -7
12 10 9 14 15 16 14 15 12 10 9 9 8 6 4 2 1 4 6 3 0 -0 1 2 0 2 1 -1 -1 -1 -0 -1 -2 -0 1 2 2 1 -1 -2 -3 -5 -4 -4 -5 -7 -6 -7 -8 -10 -10 -11 -10 -11

GFSWCAN_sfc_30mbdewp_024.txt.gz
Dewpoint
41 43 43 42 42 41 41 45 44 43 43 42 41 41 41 40 40 39 35 39 42 37 38 42 42 35 35 34 31 35 35 38 37 32 32 31 28 29 28 30 31 31 31 29 27 27 26 26 25 21 23 27 30 32
43 44 43 42 41 43 44 43 43 43 42 42 42 42 41 41 41 38 34 38 42 41 41 43 42 41 40 37 35 37 33 40 38 36 34 32 30 30 28 25 32 28 30 28 29 28 30 29 26 26 28 29 31 32
39 40 41 41 42 42 42 42 42 41 41 41 41 40 41 42 41 39 35 37 39 40 37 38 37 43 42 43 45 35 41 44 41 41 35 35 31 31 26 27 30 31 31 27 29 30 30 32 33 33 33 31 33 35
40 39 39 40 40 41 41 41 41 40 40 39 39 40 40 40 40 39 38 41 43 40 35 38 46 47 51 48 47 46 43 48 45 43 37 34 30 34 30 30 29 31 33 31 29 35 37 36 37 35 35 36 35 34
41 41 40 40 40 39 39 39 39 39 39 39 40 40 40 40 41 42 41 43 44 40 35 37 40 44 50 51 50 48 43 45 43 39 36 33 35 34 34 33 30 34 31 29 25 31 28 28 36 36 35 34 33 32
41 41 41 41 41 40 40 40 40 40 40 40 41 41 41 41 42 40 36 42 46 43 37 33 42 44 49 50 50 47 45 43 41 38 36 39 42 36 31 29 32 35 34 34 29 37 36 36 36 35 34 33 33 32
42 41 39 40 40 41 41 41 41 41 41 41 41 41 42 42 41 38 36 41 45 43 37 34 37 42 49 48 48 47 47 46 44 41 39 39 40 36 32 30 31 36 36 37 37 36 35 35 34 34 34 34 34 33
43 42 41 40 41 43 42 41 42 42 42 42 43 43 43 43 42 40 44 47 45 40 38 33 35 39 46 43 43 45 43 43 43 42 40 39 38 34 30 33 38 38 37 36 36 37 36 35 34 34 34 33 32 32
42 42 42 41 41 42 43 44 43 42 42 42 43 44 43 40 37 40 47 45 47 40 34 36 36 32 45 41 41 41 41 40 41 40 39 40 37 33 32 36 37 37 36 35 35 35 34 33 32 32 32 31 31 30
43 43 44 43 42 43 44 44 43 41 42 43 42 38 34 38 46 46 44 39 42 44 42 37 40 38 42 39 39 38 37 38 38 38 38 36 36 37 37 37 37 36 35 35 33 32 32 32 32 31 30 30 30 30
43 43 43 43 43 43 44 43 43 43 44 41 39 38 44 45 40 38 34 33 35 35 37 37 38 39 43 38 36 37 36 35 34 36 37 35 35 34 36 38 37 37 36 37 36 34 34 32 32 30 29 28 29 29
42 42 42 43 44 44 44 44 45 42 40 40 42 43 43 39 36 33 31 33 33 32 36 37 38 40 40 41 37 36 34 33 32 35 34 32 33 34 36 36 36 36 35 34 34 33 32 32 30 29 28 28 28 27
42 42 42 41 43 44 44 45 45 46 45 45 39 36 36 32 30 29 28 30 31 33 35 36 37 38 38 37 35 35 33 32 34 33 31 30 33 34 34 35 34 34 34 33 32 31 30 29 29 29 28 28 26 25
42 42 42 42 42 45 45 45 44 44 42 35 33 29 29 27 27 28 29 30 32 32 34 35 35 35 35 35 34 33 32 33 29 27 26 32 33 34 34 34 33 32 32 31 30 29 28 28 27 27 27 25 24 23
41 42 42 42 43 45 46 45 43 40 36 31 31 26 27 30 31 31 32 32 33 34 34 36 35 36 34 32 32 33 31 27 27 25 29 32 33 33 31 31 30 30 29 29 28 27 27 26 25 24 24 23 23 21
44 43 43 44 44 44 43 42 40 37 33 31 29 28 29 29 28 29 30 31 34 34 34 34 33 31 30 30 27 24 26 21 24 28 30 32 31 31 30 30 30 30 29 29 28 27 26 26 25 22 20 20 19 18
40 40 44 44 44 42 41 38 34 31 31 29 27 28 29 28 26 28 29 29 33 34 30 31 25 23 29 24 21 23 22 25 27 29 30 31 30 29 29 29 29 28 28 27 27 26 25 24 20 18 16 17 16 17
38 40 43 43 40 37 35 34 30 29 27 29 25 26 26 25 24 24 27 30 32 31 27 24 24 18 16 16 16 19 22 24 29 29 29 30 31 31 30 29 28 28 27 26 25 24 23 22 21 20 18 18 19 19
38 39 40 41 39 35 31 31 31 25 26 27 26 27 26 22 22 23 24 26 27 27 25 21 15 14 15 18 17 19 20 22 25 24 25 26 29 29 28 28 27 26 25 24 23 22 21 22 21 21 21 20 17 16
33 33 36 40 39 31 30 29 32 29 27 27 26 19 19 19 20 19 19 20 20 20 17 15 14 16 17 18 20 20 21 24 27 21 20 21 23 22 22 22 21 21 20 20 20 20 19 17 17 17 18 18 16 14
26 28 27 29 27 28 28 30 30 30 30 27 30 26 19 17 15 15 15 17 15 18 15 17 17 19 20 20 20 21 20 20 19 21 20 17 19 20 19 19 19 18 16 16 15 15 15 15 15 15 14 14 14 14
28 28 22 23 22 23 23 25 28 28 27 26 24 24 24 19 16 17 14 13 15 17 18 17 17 18 17 17 18 19 19 18 17 16 16 15 13 14 14 16 15 14 14 13 13 12 12 12 12 11 10 11 11 9
27 25 22 20 18 18 19 23 19 21 20 19 18 20 20 17 19 17 13 14 15 18 20 19 18 17 16 16 16 16 16 15 14 14 13 12 12 11 10 10 11 11 9 10 10 9 7 7 6 5 5 5 5 6
23 19 18 17 17 16 15 17 20 19 19 17 16 18 20 17 14 10 9 11 14 15 15 16 16 13 12 12 12 12 14 13 12 12 12 9 8 7 7 6 6 6 6 6 5 4 3 2 1 1 1 2 2 2
18 20 16 16 15 15 15 15 16 15 17 16 17 19 18 13 10 9 8 10 11 10 12 13 12 12 11 11 11 12 12 11 9 8 10 12 10 8 6 6 6 6 5 2 2 1 2 1 0 -0 -0 -0 1 1
18 21 20 17 18 17 16 17 18 17 15 18 18 17 9 6 4 6 9 11 10 10 11 12 11 10 9 10 9 9 10 9 7 5 7 6 5 2 2 2 2 4 4 2 3 2 2 1 0 0 -0 -0 -1 -1
16 17 19 19 19 19 16 15 14 14 14 14 14 10 5 3 4 9 14 12 11 11 10 10 10 9 8 8 9 10 9 8 7 6 7 6 5 5 3 1 1 2 3 2 1 0 1 0 0 -0 -0 -2 -2 -3
21 18 15 15 15 15 15 13 13 13 14 16 5 3 2 2 3 8 11 13 12 10 8 7 6 5 5 5 6 7 7 7 6 4 1 -1 0 1 1 -0 -1 2 -1 -2 -0 -1 -1 -0 -1 -1 -2 -2 -2 -2
18 16 14 12 13 15 14 14 14 13 12 7 4 2 2 5 6 7 9 10 11 8 6 5 5 3 3 3 1 1 1 -3 -5 -6 -5 -4 -3 -0 -1 -2 -3 -3 -4 -3 -2 1 4 2 1 -1 -3 -4 -4 -6
16 13 14 13 13 11 11 10 8 6 7 6 6 4 4 5 7 9 7 6 5 4 3 1 0 1 0 -0 1 1 -0 -1 -0 -1 -2 -3 -2 -1 -3 -3 -4 -4 -7 -6 -6 -5 -4 -6 -6 -7 -8 -9 -8 -8
12 14 13 14 14 13 10 7 4 3 3 3 1 -0 1 4 6 7 6 5 4 3 3 3 3 -0 1 0 -1 -2 -1 -2 -2 -2 -3 -3 -3 -3 -2 -3 -5 -8 -8 -8 -8 -8 -7 -7 -8 -9 -10 -10 -10 -9
12 12 11 12 13 13 12 14 11 8 6 6 5 1 2 0 -0 3 5 -0 -1 -0 1 -1 2 1 -1 -2 -4 -5 -2 -3 -3 -3 -3 -2 -1 -2 -3 -4 -7 -8 -6 -7 -9 -9 -9 -9 -9 -10 -11 -12 -13 -13
9 8 10 13 13 13 11 11 9 8 7 7 6 4 2 -1 -1 2 3 -1 -1 -1 1 1 -2 -1 -1 -2 -2 -3 -3 -5 -6 -5 -2 -1 -2 -2 -5 -6 -7 -8 -7 -8 -8 -10 -9 -10 -10 -11 -12 -13 -14 -14

GFSWCAN_sfc_30mbdewp_027.txt.gz
Dewpoint
42 42 43 43 42 42 43 43 43 42 42 44 44 44 43 43 42 37 38 40 38 37 37 38 40 35 33 32 30 34 34 34 36 30 30 31 28 29 30 31 32 30 27 26 26 24 22 28 25 23 27 27 29 33
43 42 43 42 42 43 42 43 43 43 45 44 44 45 43 43 42 38 35 42 41 36 38 44 43 42 40 34 32 34 31 33 34 33 31 31 31 31 29 27 31 30 30 28 29 27 33 28 28 28 28 27 31 34
42 42 41 41 41 40 42 43 44 45 44 43 43 42 43 42 42 39 36 39 38 34 35 38 37 41 43 41 38 34 38 40 38 40 34 32 31 32 28 28 30 31 32 29 29 30 31 30 31 33 32 31 33 35
40 42 43 43 44 43 45 44 44 43 44 44 43 43 42 42 43 39 36 38 37 38 33 35 46 43 46 43 42 42 41 45 44 42 35 34 30 34 31 32 30 31 31 29 29 29 36 35 35 34 34 37 35 35
40 40 42 42 42 42 43 43 43 43 43 43 43 43 43 42 42 39 39 40 37 37 33 36 38 41 43 48 44 45 43 44 41 38 37 34 34 34 34 33 31 34 30 28 26 27 27 28 35 36 35 34 34 33
41 40 40 40 41 42 42 42 43 43 42 42 42 42 42 43 40 37 32 36 42 40 36 32 39 42 48 51 49 47 45 43 43 40 37 38 41 36 31 30 31 34 35 35 28 35 34 36 36 35 34 34 33 33
41 41 40 40 40 40 40 41 40 40 40 41 40 38 39 40 39 34 34 39 40 41 38 33 34 41 47 49 48 47 48 44 41 40 38 39 40 38 33 30 31 34 36 36 37 36 34 35 34 35 34 33 33 32
40 40 41 41 40 40 40 40 40 40 40 41 40 40 41 41 39 39 43 42 40 40 39 32 33 38 46 42 42 44 44 43 43 40 39 39 38 34 33 33 35 37 37 36 36 36 36 35 34 34 33 33 32 32
40 41 42 42 42 41 41 41 41 41 41 40 41 40 40 38 36 38 46 45 45 38 31 32 32 33 44 41 41 40 40 40 41 39 39 39 36 35 34 33 35 37 37 36 35 35 35 34 33 33 32 32 31 31
41 40 42 43 42 42 41 41 42 42 42 41 40 36 34 37 45 45 43 39 39 38 39 34 39 37 40 38 38 38 38 38 37 39 38 38 37 36 37 37 38 37 35 35 34 33 33 32 32 32 31 32 31 31
42 42 43 43 44 42 41 42 42 42 41 38 36 35 39 46 39 37 33 32 33 33 37 37 37 38 42 35 35 36 34 35 35 37 37 36 35 34 36 38 37 36 36 36 36 34 34 33 32 31 31 31 31 30
43 43 44 44 43 42 41 41 42 40 38 40 40 42 42 38 35 31 30 31 30 32 36 36 38 40 40 41 36 35 33 33 32 35 36 33 32 34 36 36 37 37 37 36 35 34 33 32 30 30 30 30 29 27
42 43 44 44 43 42 43 42 45 45 45 44 37 35 35 32 29 24 26 29 30 32 34 36 36 38 38 38 35 34 32 31 34 33 30 30 33 34 34 34 34 34 33 32 31 30 30 29 29 28 27 27 27 26
41 41 42 44 44 45 45 43 42 42 40 35 31 28 28 27 27 27 28 29 31 32 33 35 35 36 35 34 33 32 32 33 29 26 25 29 31 32 33 33 32 31 30 30 29 29 28 27 27 27 27 28 27 25
41 42 42 44 45 45 43 42 41 39 35 31 31 25 26 30 30 31 31 31 32 34 34 35 35 35 33 32 32 32 30 24 24 23 27 29 31 31 30 30 29 29 28 28 27 26 26 26 25 25 26 25 25 23
42 41 43 44 44 45 44 42 38 36 33 30 26 23 26 26 24 26 26 28 32 32 34 34 32 29 27 27 24 21 22 18 21 26 29 30 30 29 29 29 29 29 28 27 27 27 26 25 23 22 23 22 21 20
41 40 43 42 42 41 40 37 35 32 30 28 24 25 24 24 22 24 25 26 31 33 29 26 20 20 23 18 16 19 17 20 21 27 29 29 28 28 28 28 28 28 27 26 25 24 23 23 23 21 19 18 18 19
39 43 43 41 39 40 37 33 30 28 24 24 21 22 22 22 21 22 25 27 30 28 24 22 23 16 14 14 14 16 19 21 26 23 23 28 28 28 28 26 26 26 25 24 24 24 23 22 20 19 18 18 18 18
42 43 42 41 40 34 30 30 28 21 23 24 21 20 19 18 18 20 21 22 23 24 21 16 12 12 13 15 14 17 18 20 21 21 21 22 23 23 23 23 22 22 22 21 20 20 20 21 21 21 20 20 17 17
42 42 43 42 38 33 30 29 31 26 23 25 21 16 15 15 15 16 15 17 17 16 14 12 12 13 14 16 18 18 18 23 23 18 17 19 20 20 20 20 20 20 19 18 18 18 17 16 16 17 17 17 16 15
34 31 34 31 28 29 29 30 30 30 28 24 28 21 16 15 12 12 12 13 11 13 12 15 15 16 18 18 19 19 17 17 15 17 16 14 17 17 17 17 17 16 14 14 13 13 13 12 13 14 13 13 14 14
28 28 23 24 23 23 23 24 28 28 26 24 22 23 20 16 13 14 11 10 11 14 16 15 16 16 15 15 16 17 17 16 15 14 13 13 11 11 11 13 12 11 11 11 10 9 9 8 9 9 8 9 9 9
26 23 20 19 17 17 17 22 19 20 18 17 19 17 15 12 15 13 10 11 12 15 17 17 16 16 14 15 14 14 14 12 11 11 10 9 8 8 7 7 8 8 7 7 7 6 4 4 4 4 5 4 4 4
22 18 16 15 15 15 15 17 18 18 17 16 17 17 16 13 11 8 7 9 12 13 12 14 14 12 10 10 10 10 11 11 10 10 9 5 5 5 5 5 5 4 4 3 3 3 2 1 1 1 1 1 1 1
17 19 15 15 14 13 14 15 15 16 16 16 17 16 12 9 7 6 6 9 10 9 10 11 10 10 9 8 8 9 9 8 5 4 5 6 6 5 4 4 4 4 4 3 2 1 1 1 0 0 -0 -1 -0 -1
16 19 18 17 18 17 16 16 15 15 14 15 14 11 5 4 3 4 8 9 9 8 8 9 9 8 8 8 7 7 8 7 5 4 4 4 3 2 1 1 1 2 2 0 2 1 1 1 0 -0 -0 -0 -1 -3
15 16 18 17 17 15 14 12 11 12 12 12 10 6 2 1 2 7 11 10 8 7 7 7 8 8 7 7 7 6 6 6 5 4 4 3 3 2 1 -0 -1 0 1 -1 -1 -2 -2 -2 -2 -2 -2 -2 -2 -4
18 15 13 12 13 12 12 11 11 11 11 11 3 1 0 0 2 6 9 9 8 7 6 5 5 5 4 4 4 5 5 4 2 1 1 0 0 0 -1 -2 -2 -1 -3 -3 -1 -2 -0 -1 -2 -3 -3 -4 -4 -4
15 13 11 11 11 10 9 10 9 8 9 4 1 -0 1 4 5 6 8 9 9 6 3 2 2 1 1 1 -0 -1 -1 -2 -5 -7 -7 -5 -3 -1 -2 -3 -3 -3 -6 -3 -2 1 3 0 -2 -5 -7 -8 -8 -8
13 11 12 10 8 7 5 4 4 2 4 4 4 3 3 3 5 7 6 6 5 3 1 0 -1 -0 -1 -1 -1 -0 -2 -3 -1 -2 -4 -4 -3 -2 -4 -4 -4 -5 -8 -7 -6 -5 -4 -6 -6 -7 -9 -10 -10 -10
9 11 13 11 10 7 4 2 1 1 1 1 -1 -1 -1 2 4 5 4 3 2 1 2 2 2 -2 -0 -1 -1 -2 -4 -2 -5 -4 -5 -5 -4 -4 -4 -4 -6 -8 -8 -8 -9 -8 -8 -8 -9 -10 -10 -11 -12 -12
9 9 11 10 9 7 7 8 7 6 4 4 2 -2 -1 -1 -1 2 3 -0 1 2 1 -1 1 2 -1 -4 -6 -6 -4 -4 -3 -4 -4 -4 -2 -3 -5 -6 -8 -9 -8 -8 -9 -9 -10 -10 -10 -10 -11 -12 -13 -14
8 7 9 10 9 7 8 8 7 6 4 4 3 1 -1 -2 -1 1 -0 -5 -2 0 1 0 -2 -2 -2 -3 -3 -4 -4 -5 -7 -7 -5 -3 -5 -5 -6 -7 -9 -9 -9 -8 -9 -10 -9 -10 -10 -11 -12 -13 -14 -14

GFSWCAN_sfc_30mbdewp_030.txt.gz
Dewpoint
43 43 42 41 42 43 44 42 42 43 43 42 42 43 45 44 43 38 38 42 36 32 35 39 38 33 28 27 29 31 33 35 36 32 32 32 32 33 25 26 34 31 30 30 30 29 25 29 26 24 27 34 31 32
43 42 42 42 42 43 43 42 43 43 43 42 43 45 44 44 44 39 37 42 41 34 38 39 39 40 41 29 30 36 28 30 33 30 30 30 34 34 28 29 34 30 32 30 29 27 32 30 28 30 33 30 32 32
42 41 42 43 43 43 43 43 43 43 43 43 44 44 44 45 42 39 40 39 37 34 33 36 36 40 41 41 38 32 32 32 34 34 36 38 33 36 30 29 27 33 35 33 32 28 32 33 31 32 31 31 31 33
43 44 41 41 43 43 43 43 43 43 43 43 44 43 43 43 40 40 38 38 33 32 28 29 43 42 40 42 42 40 34 36 40 38 35 36 34 36 32 33 31 31 33 32 32 32 34 34 34 32 32 34 33 34
42 43 44 43 43 43 43 43 43 43 44 44 44 44 45 42 39 41 39 38 35 31 30 30 34 37 41 42 43 41 41 40 42 39 38 33 38 37 38 36 35 33 32 32 31 31 30 28 34 35 34 34 34 35
41 42 43 43 44 44 45 45 44 44 44 45 45 44 43 41 40 38 34 37 38 39 35 30 39 40 43 44 42 41 40 39 41 37 38 37 41 38 37 31 27 34 34 34 31 35 35 37 37 37 35 34 35 35
40 41 42 43 43 43 44 44 44 44 44 44 44 44 42 40 38 35 31 35 40 38 33 32 33 39 45 46 46 42 41 39 38 39 39 38 41 38 39 33 28 33 35 37 38 37 35 35 34 36 36 35 35 35
41 40 41 41 41 42 42 42 42 42 42 42 43 42 40 38 37 35 42 42 39 36 37 31 32 37 45 42 41 45 43 43 41 38 41 38 41 40 37 35 34 36 37 37 37 37 37 37 36 35 35 34 33 33
41 41 40 40 41 41 41 41 41 41 41 41 41 41 39 36 34 36 44 40 41 37 33 32 31 32 44 41 42 41 43 39 43 41 40 40 39 35 37 36 36 37 37 37 36 36 36 35 34 34 34 34 33 33
41 42 41 41 41 41 41 41 41 41 41 41 37 35 33 36 42 42 39 36 35 37 37 34 38 36 41 39 37 38 38 37 36 40 42 39 36 38 37 38 39 38 37 36 35 35 35 34 34 33 33 33 33 33
42 42 41 41 42 42 41 41 41 39 36 35 36 35 39 43 42 38 33 32 33 32 36 34 35 35 43 37 37 38 35 36 35 38 39 37 36 36 36 38 38 37 37 37 37 36 36 35 34 33 33 33 33 33
44 43 41 42 42 42 42 42 40 37 39 39 40 41 42 37 32 31 30 30 30 30 36 35 37 37 39 42 37 36 35 35 33 37 37 33 31 35 36 36 38 38 37 36 36 35 35 34 34 34 33 32 31 30
43 43 42 42 42 42 42 41 42 42 42 42 36 36 35 33 28 27 26 29 30 33 35 36 36 40 39 38 36 35 33 32 35 33 27 27 31 33 34 34 34 34 34 33 33 33 32 31 31 29 28 28 28 27
44 42 42 41 41 42 41 42 42 42 39 35 33 28 29 27 28 29 29 31 32 32 33 36 35 36 35 34 33 32 31 33 30 26 24 27 29 30 30 31 30 29 30 30 30 29 28 27 27 28 28 29 28 27
43 44 43 42 41 41 40 40 40 39 35 30 29 23 26 28 28 29 29 31 31 32 33 35 35 35 32 31 30 31 29 23 23 20 24 28 30 30 29 29 28 27 27 27 27 27 27 27 26 26 27 27 26 25
41 41 43 44 44 43 42 40 39 37 33 28 22 20 23 24 22 23 24 26 30 31 34 35 31 29 26 27 24 21 20 16 19 22 26 29 28 28 28 28 28 27 27 26 26 25 25 24 23 23 23 23 23 23
42 41 42 42 41 40 39 37 35 31 29 25 22 23 21 21 20 22 24 24 29 31 28 26 21 21 22 18 16 18 16 19 21 22 25 27 27 26 27 27 27 26 25 25 24 24 24 24 24 22 20 21 20 20
41 42 41 40 38 37 36 34 31 28 21 22 20 21 21 21 20 22 24 26 29 25 22 21 18 14 15 14 14 16 19 23 22 21 22 23 23 23 24 23 24 24 24 24 24 24 23 22 20 20 20 21 20 19
41 41 41 41 40 36 33 32 25 20 21 22 20 22 19 18 19 20 21 21 21 20 17 14 12 11 12 14 14 17 19 22 20 20 20 21 22 22 22 22 21 21 21 20 19 19 19 20 21 21 21 20 19 19
42 41 39 37 39 33 30 30 29 24 21 21 18 16 16 15 16 18 18 17 14 12 12 10 11 13 14 16 18 18 19 24 22 18 16 18 19 18 19 19 19 19 18 17 17 18 17 16 17 17 18 18 17 16
39 36 34 32 30 31 29 30 29 25 24 25 26 16 14 15 15 14 13 12 13 11 11 15 15 16 18 18 19 18 17 17 17 17 16 14 16 16 16 16 16 15 14 14 13 13 13 12 13 14 14 14 14 14
31 29 27 27 25 25 24 25 28 28 24 24 22 18 16 14 13 12 10 10 10 14 15 15 15 15 14 14 15 16 17 15 15 14 14 14 12 12 12 14 12 11 10 10 10 9 7 6 8 8 8 9 9 8
27 26 23 23 20 21 19 25 23 21 19 20 21 16 14 13 12 10 9 10 11 15 17 16 15 15 14 15 15 14 14 12 11 10 9 8 7 7 6 6 7 6 5 4 4 5 5 4 4 5 6 6 6 6
23 20 17 18 19 16 20 19 20 19 20 19 16 15 15 13 11 8 7 8 12 14 14 15 15 13 12 11 11 11 11 10 9 9 7 6 5 4 5 4 5 5 4 4 4 5 4 4 4 4 3 3 2 2
18 19 19 17 19 16 17 18 18 18 18 18 16 15 13 12 9 7 6 9 11 11 12 13 12 12 11 10 9 8 7 6 5 4 5 5 6 5 4 3 3 3 4 5 4 4 3 3 3 2 2 1 0 0
16 19 18 19 19 18 18 16 16 16 17 15 14 11 11 8 5 6 7 10 10 10 11 12 11 10 9 9 8 7 7 6 4 3 3 3 3 4 3 2 2 1 3 3 3 2 1 1 1 0 0 -0 -1 -1
16 17 18 17 18 17 16 16 15 14 13 13 12 8 7 4 4 6 10 11 10 10 10 11 11 9 8 7 7 6 4 4 3 3 3 2 2 2 2 1 -0 1 1 1 1 1 0 -0 -1 -1 -1 -1 -1 -1
16 16 12 13 14 14 12 12 12 12 12 11 7 4 3 3 4 7 9 10 8 9 9 9 8 8 8 7 7 7 6 5 5 4 3 3 2 2 2 2 1 1 1 1 1 1 0 -1 -1 -2 -3 -3 -3 -3
15 15 13 9 10 10 9 10 10 9 9 8 5 3 3 4 6 8 10 10 10 8 7 6 5 5 5 4 4 4 4 2 -2 -4 -4 -2 -1 0 1 1 1 1 1 0 -1 0 0 -0 -1 -2 -3 -3 -3 -3
15 15 11 8 7 7 7 7 7 7 6 7 5 3 3 4 6 9 9 10 9 8 7 6 5 5 4 4 4 2 2 1 1 0 -1 -1 -0 1 1 0 0 -0 -0 -1 -2 -2 -2 -2 -2 -3 -4 -4 -5 -6
13 16 12 10 7 7 6 7 7 6 5 5 5 4 3 4 6 7 6 6 5 5 6 5 5 5 4 3 2 -0 -0 1 -0 0 -0 1 1 1 1 -0 -0 -1 -1 -2 -3 -3 -4 -4 -4 -4 -5 -6 -7 -7
13 12 10 8 7 7 9 11 10 8 7 6 5 4 4 4 3 5 5 6 6 6 4 5 5 5 3 2 1 1 -3 0 1 1 -0 1 1 1 0 -0 -1 -1 -2 -3 -3 -4 -5 -5 -5 -6 -6 -7 -8 -9
11 12 11 10 8 7 9 10 8 7 7 6 5 5 4 3 2 4 4 3 5 5 4 4 5 4 1 1 1 1 -1 -0 -1 -3 -2 -1 -4 -2 -1 -1 -1 -3 -4 -5 -4 -5 -6 -6 -6 -7 -7 -8 -9 -9

GFSWCAN_sfc_30mbdewp_033.txt.gz
Dewpoint
43 43 43 43 41 42 42 42 44 43 43 44 44 43 42 43 44 43 40 42 38 35 33 38 34 27 24 27 27 28 29 34 35 31 25 19 25 22 18 19 33 33 31 33 31 28 27 25 26 22 24 25 29 29
43 42 42 43 44 42 43 43 43 43 43 43 44 43 41 44 44 44 38 41 40 38 40 40 41 40 33 27 28 32 31 33 31 26 24 22 27 29 22 21 26 27 34 30 28 28 32 30 27 28 25 28 32 29
43 43 42 44 43 43 42 42 43 43 42 43 43 42 42 44 43 43 38 38 39 38 37 35 33 37 40 40 40 32 34 29 30 29 25 32 32 31 25 27 26 33 29 32 31 32 30 32 31 29 31 31 32 32
44 43 43 43 44 43 43 44 43 43 43 43 43 43 44 43 44 40 38 38 35 35 33 33 39 38 39 40 41 40 38 33 32 32 31 35 33 25 29 29 29 28 33 32 29 28 30 33 34 33 32 33 32 32
44 43 43 44 44 44 44 44 44 44 44 43 44 44 44 43 42 41 41 40 38 32 29 27 34 35 37 38 40 40 39 38 32 34 34 35 29 28 35 37 30 29 28 31 30 29 33 32 33 33 34 33 34 32
43 44 44 44 44 44 43 43 43 44 44 44 44 44 43 43 42 40 36 38 38 38 31 29 37 34 33 35 36 40 39 39 33 33 36 35 27 27 32 28 21 23 33 32 33 35 36 36 37 35 33 33 35 33
43 44 45 44 45 44 45 44 43 44 44 43 43 42 41 39 38 36 33 34 37 34 28 24 31 38 37 38 38 39 38 35 38 36 36 36 33 37 34 33 31 30 25 29 34 37 35 35 32 36 36 35 35 34
42 43 44 44 44 44 44 45 45 44 44 42 41 41 41 39 39 38 40 38 35 32 32 27 30 34 42 39 38 40 38 37 37 36 35 34 35 40 34 30 30 29 31 37 37 38 37 38 36 36 36 36 35 34
41 42 43 43 43 43 43 43 42 42 42 42 41 40 40 39 37 38 41 38 40 33 27 32 28 30 41 40 42 42 39 34 34 34 35 35 37 36 35 36 36 39 38 39 38 37 36 36 35 35 35 34 34 34
41 41 41 41 42 42 42 42 42 42 42 41 38 32 32 37 43 39 37 34 30 31 37 33 37 32 41 37 37 37 39 37 34 38 35 34 34 37 36 38 39 39 39 38 37 37 37 36 36 35 34 34 34 34
42 42 42 42 41 42 42 42 41 40 39 34 34 35 38 42 39 37 32 29 30 30 33 34 35 34 41 36 36 38 35 38 34 37 35 32 31 31 35 36 38 39 39 38 38 37 37 37 36 35 35 35 35 35
42 41 42 41 41 41 41 39 37 35 39 39 39 40 37 34 32 31 30 32 31 27 34 34 34 36 37 43 38 39 34 35 33 39 38 29 28 31 32 33 35 35 37 37 37 37 36 36 36 36 35 33 32 30
41 41 42 42 42 40 39 41 40 41 43 41 39 37 35 33 29 28 26 28 29 34 36 37 36 38 40 39 37 36 34 32 36 30 26 27 28 30 30 31 31 31 32 32 31 31 31 30 30 30 29 29 29 28
42 42 42 42 42 42 42 41 40 40 39 35 33 28 29 27 27 26 27 29 31 32 34 36 36 35 35 34 33 32 31 33 29 25 23 25 27 29 30 29 27 27 28 27 28 28 28 28 28 29 29 29 28 27
42 42 41 41 40 40 40 40 40 38 33 28 25 22 23 27 27 28 29 31 32 32 33 34 35 33 32 31 30 32 28 23 22 20 23 27 28 28 28 28 27 27 26 26 26 26 25 26 25 25 26 26 25 24
41 40 39 40 40 40 40 39 37 36 33 24 20 20 21 23 23 24 25 27 29 29 33 34 31 29 27 27 23 22 20 17 19 22 24 27 27 27 27 27 27 27 26 26 26 25 24 23 23 22 23 23 23 23
40 40 42 42 42 41 40 36 31 29 27 24 21 22 21 20 19 22 24 26 30 30 29 30 23 22 24 20 17 19 17 20 22 23 24 24 24 25 26 26 26 26 25 25 25 24 24 24 24 22 20 21 21 21
40 42 40 39 37 35 32 31 27 25 20 21 20 21 22 23 22 24 26 29 31 29 27 21 20 16 16 16 15 19 22 23 22 21 22 24 23 23 24 24 24 23 23 23 24 24 24 23 22 22 22 23 22 21
42 41 42 40 38 35 32 31 26 19 21 23 22 23 23 23 24 25 26 25 22 22 19 17 15 14 14 17 18 20 24 22 20 20 20 21 22 22 22 22 21 21 21 21 20 19 20 20 21 22 22 20 19 21
40 39 39 38 38 32 31 30 27 21 20 21 24 19 19 19 20 20 20 18 15 13 12 12 13 15 16 18 20 20 23 25 21 18 17 19 20 19 20 20 20 20 18 17 17 17 16 16 17 17 17 17 16 16
38 36 33 35 33 31 32 30 26 24 25 24 24 18 18 18 18 17 16 13 14 13 13 16 16 17 19 20 20 20 20 20 20 19 18 16 19 18 18 18 17 16 15 15 13 11 11 11 11 12 12 13 11 11
35 30 32 30 27 28 26 27 25 26 20 20 18 18 17 16 15 14 12 11 13 15 17 16 18 17 16 16 18 18 19 17 17 16 15 14 13 13 13 13 11 10 9 9 9 9 7 7 9 9 10 10 9 8
28 27 27 27 25 25 22 25 24 21 20 19 18 15 15 15 13 12 11 11 14 18 18 16 17 16 16 17 15 15 15 14 13 13 12 11 10 10 9 9 9 8 7 6 6 7 7 6 6 7 7 7 7 6
25 26 23 24 22 22 25 22 20 19 20 17 15 14 14 14 13 10 9 10 14 16 15 18 18 15 14 12 11 11 11 11 11 11 10 8 7 5 5 5 6 7 7 6 7 7 6 6 5 5 4 4 3 3
19 20 23 20 23 20 19 19 19 18 16 16 15 14 14 14 10 9 8 11 13 14 15 15 14 14 13 12 11 9 8 8 7 6 6 8 9 7 6 5 4 3 4 6 5 5 4 4 3 2 2 2 1 1
17 20 19 20 19 19 18 17 18 17 17 15 15 14 15 12 9 8 9 13 12 13 13 15 15 12 10 10 9 8 7 6 5 4 3 3 4 6 5 3 3 2 4 4 4 3 2 2 1 1 1 1 -0 0
17 18 18 19 19 19 18 19 18 17 15 15 15 13 12 8 7 8 11 13 12 12 13 14 13 10 9 7 6 6 5 5 4 3 3 2 2 3 4 3 1 1 3 3 3 3 2 1 1 0 0 -0 0 -0
17 16 14 16 15 16 14 14 13 13 14 13 11 9 8 8 7 11 11 12 12 12 11 11 11 10 9 8 8 8 7 7 6 5 5 4 3 3 3 3 2 1 2 2 2 2 2 1 1 0 -1 -1 -1 -1
16 17 11 10 11 10 10 12 11 10 10 12 10 7 6 6 10 10 12 12 12 11 10 9 9 8 7 7 7 6 6 5 2 -2 -1 1 2 3 2 2 2 2 2 2 1 0 1 1 0 0 -1 -0 -0 -0
17 18 11 9 8 8 10 11 9 9 9 9 6 5 6 7 8 12 12 12 11 11 10 9 9 9 8 8 6 4 4 4 3 3 2 1 1 2 2 2 2 2 1 1 1 0 -0 -0 -0 0 -1 -2 -2 -3
18 16 11 10 9 10 11 12 11 10 10 9 9 8 6 7 8 9 9 10 10 9 8 8 8 8 7 5 5 2 3 3 1 1 1 2 2 2 2 1 2 1 1 1 -0 -0 -1 -2 -1 -2 -2 -3 -4 -4
15 14 11 9 10 12 13 13 12 11 11 10 8 8 8 8 6 7 9 9 9 8 7 8 7 7 6 4 4 3 1 2 2 2 1 1 2 2 1 1 1 1 0 -1 -1 -1 -2 -3 -3 -3 -3 -4 -4 -5
14 13 12 12 11 11 12 12 10 9 10 9 8 8 8 8 6 8 7 9 10 9 8 8 7 6 4 3 3 3 1 2 1 1 1 0 -1 -1 -1 0 1 -0 -1 -2 -2 -2 -2 -3 -4 -4 -5 -5 -5 -6

GFSWCAN_sfc_30mbdewp_036.txt.gz
Dewpoint
41 43 44 43 44 44 45 43 43 42 44 44 44 44 44 43 44 42 40 43 41 38 36 37 36 32 29 27 27 25 27 31 32 28 29 26 24 21 13 17 33 29 33 33 35 29 25 29 24 23 26 30 28 28
42 43 44 43 43 44 42 43 43 42 45 43 44 44 43 44 43 41 39 44 43 40 40 39 42 39 39 32 28 28 29 35 37 32 28 28 24 23 23 23 27 28 32 35 34 32 33 29 28 31 30 30 30 30
43 45 43 43 43 43 43 44 44 44 44 44 44 43 44 44 43 43 42 42 42 39 39 39 36 39 40 39 36 30 32 36 36 39 30 28 25 27 24 26 25 31 31 30 30 33 36 35 35 32 31 32 30 31
44 43 44 43 44 43 43 44 43 44 44 44 44 44 44 43 43 44 42 43 41 37 34 37 41 39 38 39 43 43 43 40 39 39 32 31 31 30 29 25 25 25 36 31 31 30 29 31 31 34 36 35 34 33
44 44 44 44 44 44 43 43 43 44 45 44 43 43 43 43 44 45 43 44 38 33 31 35 35 34 35 36 37 40 44 42 42 37 34 31 33 33 31 30 29 25 23 27 27 30 34 35 34 38 36 35 35 34
44 44 44 44 43 44 44 44 43 43 43 42 43 43 43 43 45 42 37 42 43 42 36 30 33 32 32 34 33 37 42 41 41 38 36 32 31 30 28 27 28 25 25 26 29 36 37 37 38 38 36 35 36 36
44 44 44 44 44 43 44 44 44 44 44 43 43 44 44 43 41 38 37 38 41 42 33 27 29 36 34 32 33 34 37 41 41 39 36 34 34 32 32 30 30 30 32 32 35 34 33 36 37 38 37 36 36 35
44 45 45 44 44 44 44 44 44 44 43 43 43 44 42 41 41 37 38 39 39 34 30 27 28 33 39 33 33 36 37 40 38 38 36 35 36 37 33 35 36 36 36 32 37 39 39 38 38 36 36 37 37 36
43 44 44 44 44 44 44 43 43 43 43 43 43 42 42 40 39 37 38 37 41 35 28 29 27 27 37 37 35 38 38 34 35 35 36 35 34 33 34 36 38 39 39 38 39 39 38 37 37 36 35 35 35 35
43 43 43 43 43 43 42 42 42 42 42 40 38 36 35 38 39 36 33 32 31 32 35 31 35 29 35 36 38 35 35 31 30 33 35 34 34 31 31 33 36 36 39 39 38 38 38 38 38 37 35 35 35 36
42 43 43 43 42 42 42 41 40 39 40 40 37 35 40 41 38 35 28 26 26 29 32 31 32 31 36 32 35 38 35 36 32 33 32 32 29 27 30 31 34 34 36 36 37 37 37 38 38 36 36 36 34 33
42 42 43 42 42 42 42 41 41 41 40 40 38 37 38 35 33 30 28 32 29 27 33 33 35 35 33 41 36 35 33 35 32 39 35 24 27 29 28 29 29 31 33 32 33 32 32 33 33 32 31 30 29 28
42 41 41 41 41 41 41 40 40 41 42 40 37 35 33 32 28 25 24 26 29 32 34 36 33 36 39 39 36 36 31 31 35 29 24 24 26 28 28 27 27 28 29 29 28 29 28 28 28 28 26 27 26 25
42 41 41 41 41 40 40 40 39 40 39 35 33 27 28 24 25 24 25 27 31 31 31 33 35 33 34 32 33 30 31 32 28 23 19 23 26 27 28 28 26 26 26 26 26 26 25 24 24 25 26 26 24 24
42 41 40 40 40 39 39 39 39 35 29 26 24 21 22 26 27 27 29 31 30 31 31 34 34 34 32 30 31 31 27 19 20 18 21 25 26 26 26 26 26 25 25 24 24 23 23 23 23 23 24 24 23 23
40 39 40 42 41 39 39 37 33 32 27 21 19 21 20 22 21 23 25 27 29 29 32 33 31 29 26 27 21 22 17 16 18 21 23 25 25 25 25 25 25 25 25 24 24 24 23 22 21 21 22 22 22 22
38 37 41 39 36 35 34 33 29 26 24 24 21 21 21 20 21 24 26 27 31 30 28 27 22 23 25 18 16 19 16 19 21 22 23 23 24 24 24 23 24 24 24 24 24 24 24 24 23 21 20 21 21 21
39 41 38 37 38 35 29 31 28 25 19 22 20 21 23 24 23 24 26 28 30 27 24 23 25 16 17 16 15 22 20 21 21 20 22 23 22 22 23 22 23 23 22 22 23 23 24 23 22 22 22 23 22 22
41 41 41 40 40 34 30 32 27 20 21 24 24 24 24 24 24 27 28 28 24 24 23 20 15 14 15 19 21 23 22 21 19 19 20 21 23 22 22 22 21 21 21 21 20 19 19 20 20 21 22 20 18 20
39 38 37 36 36 31 30 30 29 25 22 24 26 23 22 22 24 22 22 23 20 18 15 13 13 16 17 19 21 23 24 23 20 18 18 20 21 20 21 21 21 20 18 16 17 17 16 15 16 16 15 15 16 14
37 36 34 34 32 32 33 29 27 25 27 26 25 23 21 19 16 16 16 14 16 15 14 17 17 19 21 22 22 21 21 21 21 19 17 17 19 18 17 16 15 15 14 13 11 11 12 12 12 14 14 13 11 12
34 31 33 30 27 28 28 29 26 27 23 22 20 20 18 17 16 14 13 14 14 16 18 17 18 17 18 19 20 20 20 19 19 18 17 16 15 14 15 14 13 12 11 11 10 10 9 8 11 11 10 12 12 8
29 28 29 30 27 26 23 25 24 20 20 19 18 16 17 16 13 13 11 13 17 20 18 18 19 18 18 18 17 17 17 16 15 14 14 13 12 12 11 11 11 11 9 8 8 8 8 7 8 9 8 7 8 8
28 29 26 26 25 23 26 23 19 19 19 16 14 14 15 15 14 11 10 13 17 17 19 21 19 15 14 12 12 13 13 13 13 13 11 8 7 6 6 5 6 7 8 7 8 7 7 8 6 6 6 4 4 4
20 20 25 22 25 21 20 19 19 17 16 16 14 14 15 15 12 11 10 13 15 17 18 18 18 15 13 13 11 9 9 8 7 6 8 10 12 10 8 6 4 4 6 7 6 6 5 6 4 4 3 3 1 3
18 19 20 20 20 20 19 17 17 16 16 15 15 16 16 12 9 10 12 15 14 14 17 18 15 11 9 9 8 8 8 8 6 5 4 4 5 8 6 4 4 3 5 6 5 5 3 3 2 2 2 2 1 1
17 18 19 21 20 19 19 19 17 16 16 15 15 15 13 9 8 10 14 16 12 15 16 17 14 11 9 8 8 7 7 7 5 4 4 4 4 4 4 3 2 2 5 4 5 4 3 2 2 2 2 1 1 1
17 18 16 17 16 17 15 14 14 13 13 14 13 10 9 9 9 14 12 15 15 13 12 12 12 11 11 12 12 11 10 10 9 7 8 6 4 4 4 6 4 2 4 4 3 3 2 2 2 2 1 -0 1 1
17 15 12 11 10 10 12 12 11 10 11 16 11 8 6 10 12 12 14 15 14 13 11 10 11 11 10 9 9 8 7 7 5 -0 1 3 4 5 4 4 3 4 3 4 3 2 2 1 1 1 0 0 1 2
17 17 11 9 9 8 10 11 11 14 11 9 7 7 7 8 14 14 13 15 15 13 13 12 12 13 11 12 8 6 6 5 4 5 4 4 4 3 4 4 3 4 3 3 2 1 2 1 1 3 3 1 -0 -0
18 15 10 9 8 10 11 14 14 13 13 13 12 8 6 7 9 12 12 12 11 11 10 10 10 10 9 8 7 5 6 5 2 2 2 4 3 4 4 2 3 3 2 3 1 1 1 -1 -1 -0 -0 -1 -2 -2
17 14 10 8 9 13 17 19 14 13 14 11 10 9 11 11 8 9 11 12 11 12 9 10 10 8 7 6 5 4 2 3 4 3 2 2 3 3 2 1 3 4 2 1 0 1 1 -0 -1 -1 -1 -2 -2 -3
16 15 13 13 13 13 14 14 11 11 11 10 9 10 10 11 8 9 9 11 14 13 10 11 9 7 5 5 5 3 1 4 1 1 1 -0 -1 -1 -2 -0 2 2 -0 -1 -1 -0 -0 -1 -1 -2 -3 -3 -3 -2

GFSWCAN_sfc_30mbdewp_039.txt.gz
Dewpoint
41 41 41 42 43 43 44 44 44 45 44 44 44 45 44 44 43 42 40 42 39 35 38 36 34 29 28 29 27 29 29 29 29 25 26 28 27 30 26 26 28 27 28 28 33 31 28 35 30 23 26 26 26 27
42 42 43 44 44 44 44 43 44 44 44 43 43 43 44 44 44 43 39 41 41 38 39 40 38 38 32 30 30 30 28 28 30 26 27 28 25 26 21 18 33 27 28 29 33 34 36 33 36 40 40 37 34 28
43 44 44 43 43 44 43 44 44 44 44 43 42 43 43 44 44 43 39 42 39 35 38 38 38 41 42 40 42 35 33 35 37 38 35 30 24 24 22 23 30 31 36 31 28 28 32 32 37 40 45 42 40 34
44 44 44 44 44 43 44 44 44 44 44 43 44 44 44 44 44 43 39 41 39 38 32 35 41 38 41 41 41 42 39 39 40 36 31 33 29 30 25 25 27 32 34 33 32 29 33 34 38 40 42 44 42 40
44 44 44 44 44 44 44 44 43 42 44 43 43 44 44 43 44 41 42 42 44 37 33 37 39 38 40 37 41 41 41 40 39 36 35 30 33 33 33 32 27 30 32 28 28 32 35 33 39 40 38 44 43 40
44 43 43 43 44 43 44 44 44 44 44 43 44 44 44 44 43 42 36 42 45 44 36 32 35 35 34 36 40 40 40 40 42 37 35 35 35 33 27 27 30 29 29 30 31 35 32 30 35 38 38 39 38 38
44 44 43 43 44 43 43 43 43 44 43 43 43 43 43 42 41 38 35 40 42 44 35 29 31 37 38 35 36 38 39 39 40 39 37 35 33 35 30 29 38 39 40 38 40 39 36 39 37 38 37 37 38 37
45 44 44 44 44 44 44 43 43 43 43 43 43 45 44 44 42 39 41 42 43 35 33 27 31 31 39 33 32 37 36 37 40 37 39 36 34 34 31 34 36 36 38 39 39 40 39 38 38 37 36 36 36 36
44 44 43 43 44 44 44 43 44 44 44 44 44 43 43 41 38 36 40 39 41 35 29 29 28 27 37 36 35 36 36 31 36 36 36 37 34 27 29 30 33 34 35 37 38 39 38 38 39 36 37 37 38 38
44 44 43 43 43 43 43 43 43 43 42 40 40 38 34 38 38 37 34 32 32 34 35 30 33 29 35 33 33 33 33 31 30 32 36 33 27 30 31 31 32 32 35 35 35 35 35 36 38 34 33 32 31 29
43 43 43 43 43 42 42 42 41 40 41 40 36 36 38 41 39 35 29 27 28 29 33 32 32 32 36 30 34 36 32 31 24 30 28 30 22 26 27 29 30 31 33 34 34 33 34 34 33 31 29 28 27 26
43 43 42 42 42 42 42 42 41 41 41 39 38 39 39 35 33 28 28 29 28 27 32 31 33 34 34 36 35 35 31 33 26 35 27 20 23 27 27 26 27 28 29 29 30 29 30 29 29 27 26 25 24 24
42 41 41 41 42 42 41 41 41 41 41 40 37 33 33 31 26 24 21 25 29 30 31 33 33 32 33 35 36 33 31 30 33 26 19 20 24 25 26 26 25 26 26 25 25 24 24 24 25 25 24 24 23 23
41 40 40 40 40 39 40 38 39 39 37 32 30 22 24 21 23 23 23 25 29 30 29 31 31 31 32 31 33 30 30 29 23 18 14 20 23 25 25 25 23 23 23 23 22 23 22 22 22 22 22 22 21 21
40 40 40 40 39 40 35 37 35 30 26 22 21 19 20 25 25 26 28 29 30 30 29 32 32 32 31 28 30 30 24 16 17 14 19 22 24 24 23 24 23 22 22 21 21 21 20 21 20 20 22 22 22 22
39 39 41 36 35 36 37 32 32 31 26 19 19 18 20 19 19 24 25 26 29 29 31 32 29 28 24 23 18 19 14 12 15 18 22 22 21 22 23 23 23 23 22 22 22 22 21 20 20 20 21 21 21 21
39 39 40 36 36 33 35 33 30 26 23 22 20 22 23 22 22 25 25 25 30 30 26 27 19 19 24 18 16 18 13 16 18 19 20 22 21 21 22 21 22 22 22 23 22 22 22 22 19 18 18 20 20 20
39 40 39 40 41 39 31 32 27 21 19 22 19 22 23 23 22 25 27 25 27 26 24 21 19 15 16 14 15 16 17 18 19 20 20 20 20 21 21 20 21 20 20 19 19 18 19 19 18 19 20 21 19 18
40 39 38 37 37 34 31 31 26 20 21 23 20 21 23 22 22 24 25 23 21 20 20 15 13 12 13 17 18 19 19 18 17 18 19 20 22 21 20 19 18 17 18 18 17 17 16 16 16 16 17 15 14 17
38 36 36 35 36 32 29 29 29 24 22 22 21 19 19 19 22 18 17 19 16 14 13 11 13 16 16 18 22 21 21 21 19 16 16 18 19 18 18 17 17 15 14 13 14 13 13 14 14 11 11 12 13 12
38 36 35 35 33 35 32 31 28 27 26 24 23 22 20 17 15 14 13 13 13 14 13 16 16 18 20 21 21 19 19 20 19 17 16 16 18 17 16 15 13 12 11 10 9 9 10 12 11 14 11 7 8 11
33 32 33 33 28 29 27 28 27 28 25 23 21 21 18 16 14 12 13 12 14 15 16 16 18 18 19 19 19 20 20 19 18 17 16 15 14 13 14 13 11 11 12 11 9 9 9 8 10 8 7 10 8 7
31 32 31 31 25 23 22 27 21 22 19 19 18 17 17 15 13 14 11 15 16 19 19 19 19 20 19 19 17 18 17 15 13 13 12 11 11 10 9 10 11 10 10 9 10 10 6 8 7 4 3 3 4 5
31 28 26 25 24 22 24 21 20 20 17 15 14 14 17 15 14 11 10 13 17 21 20 19 16 13 12 11 12 13 13 12 12 13 13 9 8 7 7 7 7 8 10 10 7 6 6 3 4 4 -0 -1 2 2
15 18 23 21 24 20 19 18 18 17 16 15 14 16 16 15 12 11 10 13 16 17 18 19 17 14 12 11 11 11 10 8 7 6 7 10 13 8 6 6 6 7 8 6 7 3 3 1 1 4 1 -1 0 1
16 19 20 20 20 19 19 17 16 16 15 14 16 16 15 11 9 9 12 13 14 15 17 15 11 9 9 9 8 8 8 9 6 5 5 6 7 7 5 5 3 4 6 6 4 5 3 2 1 2 1 3 0 -0
16 18 21 21 21 20 19 17 16 15 15 15 15 14 10 8 7 10 14 14 14 16 16 16 13 11 10 9 9 8 7 7 6 6 6 6 7 5 2 -0 -1 2 5 2 2 3 3 3 2 3 -1 -1 0 -0
19 17 15 15 13 16 13 13 12 12 12 15 11 8 8 8 8 13 14 16 14 13 12 11 12 12 12 11 12 11 12 9 7 7 7 7 6 6 6 5 5 4 6 5 3 1 -1 -1 0 0 -1 -2 0 1
16 15 12 9 9 10 11 12 11 11 12 15 9 7 7 13 13 14 15 15 14 12 11 10 10 10 9 8 7 7 5 5 3 1 2 4 4 3 4 4 4 4 3 4 4 4 2 2 1 2 -0 -1 -1 3
17 15 9 8 7 7 11 15 14 11 10 9 10 9 10 12 15 15 15 17 15 13 13 13 14 12 11 8 6 5 3 2 2 3 2 1 2 3 5 1 3 3 1 3 3 1 3 -0 -1 -1 1 2 1 -2
18 13 9 9 8 11 13 13 12 12 11 10 7 6 7 9 10 13 13 12 11 10 10 9 11 10 8 5 6 5 2 2 0 -1 -0 3 5 4 2 2 3 3 3 3 -0 -1 0 1 0 -2 -2 -2 -1 -1
17 11 8 7 10 15 16 16 14 12 13 9 8 9 9 9 7 9 12 14 14 10 11 12 8 6 5 4 1 0 3 4 4 3 1 0 -1 -2 -3 -2 0 4 1 -1 -1 0 -0 -0 0 -0 -1 -2 -4 -4
14 12 12 11 12 13 16 16 12 14 13 10 9 11 10 10 6 8 10 13 13 12 10 9 6 4 4 5 3 1 4 -0 -0 1 -2 -2 -2 -3 -4 -4 -3 -4 -4 -4 -4 -3 -1 -0 -1 -2 -2 -3 -4 -5

GFSWCAN_sfc_30mbdewp_045.txt.gz
Dewpoint
39 40 41 41 41 41 42 42 42 42 42 42 42 43 43 43 43 42 39 44 38 33 35 38 37 32 32 31 28 29 29 30 30 27 27 28 24 24 23 28 28 27 27 27 28 27 23 31 38 26 36 38 41 41
40 41 42 41 42 42 42 42 42 43 43 43 43 43 44 44 44 43 38 43 43 37 35 37 38 39 38 32 30 30 28 29 29 28 30 29 24 26 24 21 31 26 26 24 27 24 30 39 38 38 38 39 41 42
41 42 41 41 43 44 44 44 44 44 44 44 44 44 44 44 45 44 41 42 40 37 35 35 33 37 40 40 35 29 31 31 33 34 31 28 25 26 22 24 24 29 31 28 29 26 28 30 35 37 39 40 41 40
41 41 42 43 44 43 44 44 44 44 44 44 44 44 45 44 44 44 41 42 38 36 30 30 36 32 36 41 40 40 35 39 38 37 30 28 29 29 24 24 24 25 29 28 28 30 33 32 34 36 39 40 39 41
42 44 44 43 42 43 43 43 44 43 44 44 44 44 44 44 44 44 43 42 40 32 27 27 37 38 36 38 40 39 40 36 34 32 31 27 30 30 32 29 24 36 34 33 28 38 38 35 36 38 38 35 36 41
43 42 42 43 43 44 43 42 42 43 43 44 45 44 43 43 44 42 35 42 40 38 31 27 36 38 39 41 40 39 39 39 36 32 33 35 34 31 29 31 35 36 35 36 36 37 38 40 40 38 38 39 41 41
41 42 43 43 43 44 44 43 43 43 43 44 44 44 45 44 43 36 34 39 40 39 33 30 33 39 40 40 39 38 40 39 37 34 34 34 35 35 29 28 31 32 33 35 36 37 39 39 36 34 34 36 33 31
43 43 43 43 43 44 43 44 44 44 43 43 43 44 44 42 42 39 42 41 40 37 35 29 31 35 39 36 36 40 38 39 38 35 38 35 36 33 27 27 29 29 32 35 34 36 36 35 33 30 30 30 28 27
44 44 44 44 43 43 44 44 44 44 44 44 43 42 41 39 38 40 42 41 41 38 31 30 28 28 37 35 37 37 37 32 37 32 35 35 26 19 23 25 25 27 29 31 33 35 35 33 30 29 28 27 25 24
44 44 44 43 43 41 42 43 41 42 42 41 40 35 32 38 44 42 39 34 33 34 34 30 31 30 35 33 32 32 32 32 29 33 33 25 22 25 25 25 25 27 30 31 30 30 29 31 29 26 26 25 24 23
44 43 43 43 43 42 42 42 42 42 43 38 36 32 40 44 40 35 31 30 31 29 31 31 31 30 34 29 32 32 29 30 27 31 26 21 18 21 24 23 24 26 27 27 29 27 27 26 25 24 23 23 22 22
42 41 42 41 41 41 40 41 41 39 39 37 37 38 36 30 26 25 26 27 27 27 30 30 32 33 34 36 33 33 30 30 25 28 18 14 19 22 23 22 22 24 24 23 24 23 23 23 22 22 21 20 20 20
41 41 40 40 40 39 39 40 39 39 41 35 28 24 22 20 17 19 20 23 24 28 28 31 30 33 33 34 32 31 27 26 24 17 13 16 20 21 21 20 20 21 22 22 21 22 21 20 21 21 19 20 20 19
36 37 39 37 36 35 34 32 30 28 26 23 19 16 16 15 18 19 20 22 27 28 27 29 30 30 31 30 31 25 24 20 15 9 10 16 19 20 20 20 18 19 19 19 19 19 19 18 18 19 19 19 18 17
38 37 35 38 34 32 32 32 28 24 21 19 17 14 16 19 21 23 24 25 27 29 28 30 30 28 25 24 22 21 16 11 12 10 14 18 20 20 19 19 19 19 19 18 19 18 18 18 17 17 18 18 17 17
38 39 39 34 36 35 31 27 26 26 22 19 17 15 16 17 17 20 22 22 26 25 29 29 27 22 19 19 12 13 8 8 11 15 17 18 17 17 17 18 18 19 20 19 19 19 18 17 17 17 17 17 17 16
39 38 41 34 31 31 31 25 22 21 20 18 17 19 17 16 16 17 21 21 25 26 23 22 16 17 19 12 10 12 10 12 15 15 17 18 17 17 18 18 18 17 17 17 17 17 18 18 16 14 14 15 15 15
39 40 41 40 38 34 30 26 21 18 14 16 14 16 18 18 17 18 21 22 24 23 21 18 17 10 11 9 8 13 14 16 17 16 16 16 16 17 17 16 17 16 15 14 14 14 14 14 13 14 14 14 13 12
39 40 39 39 35 31 26 24 21 15 17 18 16 16 17 17 17 18 18 18 17 20 18 14 11 10 11 13 12 14 15 15 14 15 16 17 16 15 14 14 13 13 13 13 12 11 11 11 12 12 12 11 10 9
39 38 38 38 36 28 26 25 23 17 16 17 19 16 15 16 15 14 14 13 13 12 11 9 10 14 14 16 17 17 17 17 14 13 12 14 14 13 13 12 11 11 10 10 9 9 8 8 8 8 8 8 7 6
35 32 35 34 34 32 28 25 22 20 21 16 16 15 14 12 11 11 11 11 10 13 11 14 14 16 18 19 19 18 17 16 13 12 12 11 13 11 10 9 9 8 7 6 6 6 7 6 7 6 5 4 3 3
30 34 31 29 26 27 22 26 25 25 21 20 21 18 12 9 9 12 11 10 11 13 15 15 16 16 15 15 16 16 15 14 13 12 12 10 9 9 8 8 7 6 6 5 3 2 3 5 5 4 4 3 2 0
30 30 26 23 20 22 25 26 23 25 19 18 17 13 9 7 11 13 11 13 14 17 16 15 16 15 14 14 14 13 12 11 9 9 8 8 7 7 7 8 7 5 5 6 5 2 0 1 2 2 2 1 0 -3
25 23 23 21 20 19 18 18 20 16 15 15 15 15 12 7 10 8 9 12 15 16 15 14 12 11 10 10 10 11 11 9 8 7 7 6 6 5 6 6 6 5 5 3 2 -0 -2 -3 -1 -1 -2 -0 -1 -0
17 19 18 18 18 16 15 15 14 14 14 14 14 14 12 10 7 7 7 10 11 11 11 11 10 8 7 7 8 9 10 9 7 7 8 6 5 5 4 3 3 4 3 0 -0 1 0 -3 -3 -3 -3 -3 -1 -1
16 18 18 18 18 17 16 15 14 12 13 13 14 11 7 5 4 5 7 9 11 11 9 7 7 7 8 8 6 6 7 7 6 5 6 7 4 0 -0 -1 -1 1 1 -0 0 0 0 -1 -1 -1 -2 -2 -3 -2
13 15 15 13 16 15 13 12 12 12 12 13 12 7 3 1 2 7 11 11 11 11 9 8 8 7 7 6 7 7 6 6 4 3 3 2 1 0 -2 -2 -0 3 1 -1 -2 -2 -1 -1 -1 -3 -3 -4 -3 -2
12 9 8 6 7 8 7 6 6 7 9 11 4 3 3 2 4 9 10 10 11 10 10 9 9 8 8 6 5 4 5 5 5 4 4 4 4 3 3 2 3 4 2 0 0 -3 -2 -3 -2 -1 -2 -2 -3 -3
9 8 5 3 5 6 6 5 5 8 9 6 3 2 5 9 9 9 10 10 10 8 7 5 2 -0 -1 -1 -1 0 3 3 2 1 0 -1 -2 1 1 0 -2 -2 -1 1 2 3 2 1 -0 -1 -1 -2 -2 -4
8 6 4 4 4 2 5 5 5 5 7 8 10 8 7 7 10 10 8 6 6 5 4 3 -0 -2 -4 -5 -5 -3 -3 -2 1 2 1 -1 -2 -1 -1 -0 0 -1 -3 -2 -4 -3 -0 -2 -1 -4 -4 -4 -5 -5
8 6 5 6 5 6 5 4 5 3 2 3 3 3 4 6 9 9 9 7 6 6 6 5 4 1 2 1 1 -1 -1 -2 -3 -2 -2 -2 -2 -2 -4 -4 -5 -6 -4 -3 -4 -4 -4 -4 -5 -5 -5 -6 -7 -8
6 4 5 5 6 9 9 8 6 6 4 4 5 3 4 2 3 6 8 7 7 7 5 3 4 2 -0 -1 -3 -4 -2 -1 -1 -2 -2 -6 -8 -7 -6 -7 -8 -8 -7 -7 -8 -7 -7 -7 -7 -8 -8 -9 -10 -11
7 7 6 7 7 8 9 9 8 7 5 6 6 4 3 1 2 5 7 4 7 7 5 3 -1 -2 -1 -0 1 -0 -1 -2 -4 -2 -4 -4 -6 -7 -9 -9 -9 -8 -7 -7 -8 -9 -10 -10 -11 -11 -12 -13 -14 -15

GFSWCAN_sfc_30mbdewp_048.txt.gz
Dewpoint
37 37 38 39 39 40 41 41 40 42 42 41 42 42 43 43 43 43 41 43 39 32 36 37 35 34 36 33 30 30 30 32 32 28 27 26 26 25 23 28 30 27 26 26 26 25 19 28 36 25 28 33 34 35
39 39 39 40 40 41 41 41 41 42 42 42 42 42 41 41 41 42 38 43 43 36 36 38 39 37 35 34 30 30 27 30 30 29 28 26 25 25 24 20 31 25 26 24 27 24 29 36 36 38 38 35 37 38
39 39 39 40 41 41 40 41 42 44 43 43 43 43 42 43 43 41 40 41 40 35 35 36 34 35 40 40 39 31 31 32 32 33 30 28 24 25 22 23 26 30 30 28 28 26 27 28 32 35 37 38 40 38
41 41 41 41 41 41 41 43 44 44 44 44 44 44 43 43 43 43 41 42 38 36 29 31 36 36 38 39 38 38 34 38 37 36 30 28 25 28 23 24 24 25 28 28 27 28 31 30 36 40 39 40 40 40
41 41 41 43 43 43 43 42 42 43 43 43 44 44 44 44 44 45 43 42 38 31 28 27 36 35 34 40 39 39 38 35 36 33 33 29 30 30 31 30 26 34 33 29 25 36 36 37 39 36 38 38 39 41
43 42 42 42 43 42 42 43 42 42 43 44 44 43 43 44 44 43 33 42 40 36 32 27 32 36 35 33 34 38 39 39 36 36 34 33 34 30 28 28 35 35 34 35 35 36 36 37 38 34 33 33 33 33
42 42 42 43 44 43 43 43 42 42 43 44 44 44 43 42 43 37 34 40 42 39 34 26 24 37 38 38 37 38 39 38 38 36 34 34 34 34 30 27 31 31 32 33 36 35 36 36 34 32 30 30 29 27
43 43 44 44 43 44 44 44 42 43 44 44 44 44 44 44 43 40 42 42 41 38 36 27 30 34 39 35 34 38 37 38 38 34 36 34 36 33 29 25 26 26 28 32 33 33 35 34 30 28 28 27 25 24
44 43 43 44 44 44 43 43 42 44 45 44 44 44 42 39 38 40 42 41 41 37 29 30 27 27 38 35 37 36 37 32 37 33 34 33 26 22 22 23 23 25 26 28 30 33 32 31 28 26 25 25 24 22
43 43 43 43 43 43 43 43 42 42 42 41 39 36 32 40 42 40 38 34 34 34 34 29 32 30 34 33 32 32 33 31 28 31 31 23 19 24 23 24 24 25 26 27 26 27 26 27 26 24 23 23 23 22
43 42 43 42 42 42 42 42 42 41 40 38 34 35 41 43 38 34 29 29 30 28 31 31 31 31 35 31 30 31 30 31 27 29 24 19 16 20 23 21 22 23 24 24 26 25 24 24 23 21 20 20 20 19
42 41 41 40 39 40 40 40 42 40 39 38 38 39 35 31 30 28 26 29 29 27 30 30 32 33 34 36 32 33 29 29 24 26 18 13 18 21 21 20 21 22 22 22 22 22 22 21 22 20 19 19 18 18
39 38 37 36 36 36 35 38 35 41 39 29 26 23 22 18 16 18 21 23 23 27 27 31 29 32 33 35 32 29 27 23 23 16 12 15 18 19 19 20 20 21 21 20 20 20 20 19 19 18 17 18 18 17
37 38 37 35 35 34 32 30 31 28 24 20 17 14 14 13 17 18 18 20 25 27 27 30 30 30 31 30 29 23 21 18 12 9 9 15 18 18 19 20 17 17 18 18 17 18 17 16 16 17 17 18 16 15
39 36 34 36 36 31 29 30 26 24 21 18 15 13 15 18 20 21 22 24 24 26 28 30 27 25 23 22 20 19 13 10 11 9 13 17 18 18 18 18 18 18 17 17 17 17 16 16 15 15 16 16 15 15
39 35 35 33 33 32 28 25 25 24 21 16 15 13 14 15 15 16 18 20 24 23 28 28 25 18 17 17 10 11 8 7 10 13 15 16 16 16 16 17 17 17 17 17 17 17 16 15 14 14 15 14 14 13
38 38 41 40 38 30 29 22 20 18 17 15 14 17 15 14 15 16 19 19 24 24 21 20 15 16 14 9 8 11 8 10 13 15 16 17 16 16 16 16 16 16 15 16 16 16 16 17 15 13 12 13 13 13
38 40 38 38 34 31 27 23 18 16 12 15 12 15 17 18 16 18 20 21 23 22 21 16 14 9 9 7 7 11 13 15 15 15 15 15 15 15 15 15 15 15 14 14 14 13 13 13 12 12 12 11 10 10
39 38 39 37 32 27 22 20 17 13 15 16 17 18 18 18 20 20 21 22 19 20 17 13 9 9 9 12 12 14 14 14 13 13 14 15 15 14 14 13 13 12 12 12 11 10 10 10 10 10 9 8 7 7
39 37 36 36 32 26 23 22 20 15 13 16 18 17 15 15 15 14 14 14 13 12 10 10 10 13 14 16 17 16 16 16 14 11 10 12 13 12 11 11 10 11 9 8 8 8 7 7 6 6 6 5 4 3
35 33 35 34 31 28 25 21 19 17 17 14 16 15 10 11 10 10 10 12 9 12 10 13 13 15 16 17 17 16 16 14 12 11 10 9 11 10 9 8 7 6 5 4 5 5 5 5 5 3 2 1 1 1
30 33 27 26 26 23 21 24 22 22 18 18 18 14 9 7 9 11 11 9 10 12 14 14 14 14 13 14 14 15 14 13 12 11 10 9 7 6 5 6 4 3 3 2 2 2 3 4 3 1 -1 -1 -0 -0
30 28 24 21 20 22 23 28 23 23 17 18 17 8 6 5 11 12 9 12 12 15 15 14 14 13 13 13 12 12 12 10 8 7 7 6 6 6 6 5 4 3 3 4 2 1 1 1 1 0 -2 -4 -5 -5
24 21 20 18 18 18 17 16 18 15 15 15 14 12 8 7 8 7 7 10 13 14 13 13 12 10 9 9 9 9 9 8 7 6 7 5 5 4 5 4 4 3 3 3 -1 -3 -2 -2 -2 -1 -2 -1 -3 -2
16 17 17 17 16 14 14 13 13 13 12 13 13 12 10 8 5 5 6 8 9 8 9 9 8 7 6 6 8 8 9 7 5 5 6 5 4 3 3 3 2 3 1 1 1 -2 -3 -4 -5 -4 -4 -3 -1 -2
14 15 15 16 16 15 15 13 12 12 12 13 12 7 4 3 2 3 7 8 10 9 6 5 6 5 6 7 6 7 7 7 5 4 5 6 1 -1 -1 -1 -1 1 -0 -2 -1 -0 -1 -3 -2 -2 -3 -3 -4 -4
11 12 12 11 13 12 10 9 10 11 11 12 9 4 1 0 2 6 10 10 10 9 8 7 7 7 6 6 6 6 5 3 2 2 2 1 1 -1 -2 -2 -2 1 -1 -3 -3 -2 -1 -2 -3 -3 -4 -6 -5 -5
9 7 7 4 5 5 5 5 5 6 7 9 3 2 1 0 3 8 9 8 8 8 7 6 6 5 4 3 3 2 2 2 3 2 2 2 1 0 0 -1 -1 1 -1 -3 -2 -4 -1 -3 -2 -3 -4 -4 -3 -6
6 4 3 2 2 2 2 2 3 6 7 3 1 1 4 7 5 7 8 9 8 6 5 4 1 -1 0 -0 -1 -1 1 1 0 0 0 -1 -3 -0 -3 -2 -3 -3 -4 -1 0 -0 -0 -2 -1 -2 -4 -5 -6 -10
5 4 3 1 0 -1 2 3 3 3 5 7 9 7 6 6 8 8 8 8 7 5 2 -1 -5 -6 -5 -4 -1 0 -3 -4 0 2 1 -0 -2 -3 -3 -2 -2 -4 -7 -4 -3 -3 -2 -4 -4 -5 -6 -6 -7 -7
5 4 4 3 3 4 4 2 4 2 1 2 1 2 2 4 8 7 6 2 1 1 0 1 2 -2 -1 -1 -1 -2 -2 -3 -6 -5 -6 -5 -5 -4 -5 -6 -9 -10 -7 -6 -6 -6 -6 -7 -8 -7 -7 -7 -9 -11
4 3 3 3 4 6 5 5 4 3 3 3 3 1 1 1 2 5 5 5 5 6 4 2 5 5 -0 -3 -6 -6 -4 -2 -3 -4 -5 -8 -9 -8 -9 -10 -11 -10 -9 -8 -9 -8 -9 -9 -10 -11 -11 -11 -13 -15
6 5 4 5 5 6 7 6 4 5 3 4 3 0 -1 -1 1 4 4 1 5 7 5 2 -2 -3 -2 -2 -1 -3 -3 -3 -6 -2 -5 -5 -7 -8 -10 -10 -10 -9 -8 -8 -9 -10 -10 -11 -12 -13 -13 -14 -15 -17

GFSWCAN_sfc_30mbdewp_051.txt.gz
Dewpoint
40 40 39 39 37 37 38 38 39 38 39 41 42 42 41 40 40 40 39 43 37 32 35 33 31 32 34 34 30 31 32 33 32 27 26 26 24 25 21 28 27 24 24 25 26 25 21 28 35 29 28 34 35 35
41 40 40 40 39 39 39 39 40 41 41 41 40 42 42 41 41 41 38 43 42 36 35 38 37 37 35 36 33 33 29 32 34 29 29 27 25 26 25 20 31 26 27 26 27 25 29 33 34 38 37 38 38 38
42 42 40 39 39 39 40 41 41 42 42 41 41 42 42 42 42 43 39 42 40 32 35 37 36 38 40 39 38 33 31 34 33 34 31 28 24 27 23 24 27 30 31 28 26 26 27 29 33 39 37 39 40 40
40 40 40 41 41 41 41 42 42 41 42 41 42 41 41 42 42 42 39 41 38 35 30 32 38 37 38 39 41 39 34 37 36 37 34 30 26 27 24 24 25 26 30 29 28 29 31 33 38 37 37 36 36 36
41 44 43 43 42 42 42 42 41 41 42 44 44 42 42 41 41 41 41 41 40 33 29 29 35 36 37 37 37 39 37 35 34 34 33 31 30 30 30 28 26 30 28 28 26 35 34 35 37 36 34 33 33 32
42 42 42 42 42 42 42 42 43 43 43 42 44 44 44 44 43 41 35 42 39 38 33 28 32 33 35 38 37 36 38 37 36 35 34 35 33 31 27 26 33 34 33 34 33 36 35 37 37 32 31 30 30 28
43 43 43 43 43 43 43 43 42 42 43 43 42 43 44 44 43 35 34 39 39 39 33 27 23 34 35 34 36 37 38 37 38 36 34 35 35 34 32 28 28 28 28 30 35 34 35 36 33 30 29 28 26 25
43 44 44 44 44 43 43 42 42 42 43 43 43 42 43 44 42 39 42 42 39 37 36 27 27 33 37 33 32 36 35 36 35 34 35 34 35 35 30 24 24 24 25 29 29 31 33 35 29 27 26 25 24 23
43 43 43 42 43 42 42 42 42 42 42 43 43 43 43 38 36 39 43 42 41 36 29 28 25 25 38 34 34 35 34 31 36 33 33 33 27 27 21 21 22 23 24 25 26 28 31 29 26 24 24 24 23 22
43 42 43 43 43 42 43 44 44 44 44 42 39 35 32 39 43 41 38 35 35 35 35 29 31 28 33 33 32 32 34 31 28 31 30 24 20 22 22 21 22 22 23 24 24 25 24 24 23 22 22 22 21 20
43 42 42 42 42 42 42 42 42 41 40 38 35 34 40 42 37 35 30 29 30 27 30 30 30 30 35 30 30 32 30 31 26 26 25 19 16 19 20 19 21 22 22 23 24 24 23 23 22 21 19 19 19 18
39 38 38 40 42 42 41 40 40 39 39 38 37 36 33 28 30 28 27 28 28 27 30 29 31 32 33 33 31 31 29 29 23 25 18 14 16 18 18 18 19 20 21 20 21 21 21 21 21 20 19 17 17 16
38 37 36 36 40 39 35 39 40 36 31 26 24 21 20 18 16 18 21 22 23 25 27 30 29 31 33 34 32 30 26 20 21 15 12 14 16 17 17 17 18 19 20 18 18 19 18 18 18 17 16 16 16 15
36 37 38 35 33 32 32 35 31 25 22 20 17 14 13 12 15 17 17 19 23 26 26 29 30 28 28 25 26 21 20 17 12 11 9 14 16 17 17 18 16 17 17 17 17 17 16 15 15 16 16 16 14 13
35 35 33 34 34 30 30 28 25 23 20 16 14 13 14 16 18 19 20 22 23 25 27 29 24 24 21 19 18 17 13 10 10 9 12 15 17 17 17 18 17 16 16 16 16 15 15 14 14 13 15 15 14 14
35 36 40 39 30 31 27 25 24 24 20 14 13 13 13 14 14 15 16 18 22 23 27 25 20 17 16 16 10 9 9 7 8 12 15 16 15 16 16 16 17 17 17 16 16 16 15 14 13 13 14 13 13 12
38 37 39 38 31 26 27 21 19 16 15 13 13 16 14 14 14 15 18 18 23 23 20 20 14 14 11 8 8 10 7 10 13 15 16 16 15 15 15 16 16 16 15 15 16 15 15 15 14 12 11 12 12 11
37 39 39 36 32 27 22 20 17 14 12 15 12 15 17 17 16 17 20 21 23 22 19 14 13 9 8 6 7 10 12 14 15 14 14 14 15 15 15 14 15 15 14 14 14 13 12 12 11 10 10 9 8 8
38 37 37 36 29 24 20 19 17 13 15 16 17 18 18 17 19 20 21 22 20 21 17 15 10 8 9 12 11 13 14 13 11 12 13 14 14 14 13 13 12 12 12 11 10 10 10 10 9 8 8 7 7 7
37 36 37 34 29 24 21 18 19 14 13 16 19 17 16 16 17 18 17 17 12 11 9 8 9 12 13 15 16 15 15 15 12 10 10 11 12 11 11 11 10 9 8 8 8 8 7 6 5 5 5 5 5 4
31 33 32 31 27 26 23 20 17 15 18 18 17 16 14 10 10 10 12 12 10 10 9 12 12 14 16 16 17 16 16 15 13 11 9 8 10 9 8 7 6 6 5 5 5 5 4 4 3 3 3 2 2 4
30 31 24 26 22 21 20 22 19 20 18 17 18 12 7 7 9 11 10 8 9 10 12 12 13 13 12 12 13 13 13 12 11 10 10 8 6 5 4 4 3 3 3 4 4 3 4 3 2 1 1 1 2 1
29 26 22 21 21 20 21 27 21 21 15 17 13 6 5 6 10 11 9 11 11 14 14 13 13 12 11 12 11 11 10 9 7 6 6 6 5 5 5 4 3 3 2 2 2 2 2 1 -0 -1 -2 -2 -2 -1
23 19 18 17 18 18 15 15 17 15 15 14 11 8 7 6 8 6 6 8 11 13 12 13 12 10 9 8 8 8 8 7 6 6 6 5 4 4 4 3 3 3 3 0 -1 -1 -1 -2 -2 -0 -2 -1 -2 -1
13 14 15 15 14 13 13 11 12 12 13 13 11 9 8 7 4 4 5 8 8 7 8 10 8 6 6 6 7 8 8 6 5 4 5 4 4 3 3 2 2 3 2 2 0 -1 -2 -3 -3 -3 -2 -2 -1 -1
11 12 13 14 14 13 13 10 11 11 12 11 9 5 3 2 2 3 7 8 9 8 6 6 7 7 7 7 7 7 7 6 5 4 5 5 2 0 0 -0 -1 1 0 -0 1 1 -0 -3 -2 -2 -2 -2 -4 -3
10 10 10 8 11 10 9 8 8 9 10 10 6 2 -1 1 1 4 8 8 9 7 6 6 6 6 5 5 5 4 4 3 3 2 2 1 1 -0 -1 -2 -2 1 -1 -2 -2 -1 -1 -1 -1 -2 -3 -4 -4 -4
7 5 5 2 2 3 4 3 4 4 5 7 2 0 -0 -0 2 6 7 7 6 6 5 4 4 4 3 2 2 1 1 2 2 2 2 1 0 -1 -1 -1 -1 -0 -1 -2 -1 -3 -1 -1 -1 -2 -3 -3 -4 -6
4 2 0 -1 -1 -0 0 -0 1 4 5 1 0 0 2 4 4 6 7 7 6 4 3 2 0 -1 -0 -0 -2 -1 1 0 2 1 0 -0 -2 0 -3 -3 -2 -3 -4 -1 -2 -1 -0 -1 -2 -2 -3 -4 -6 -10
4 2 0 -1 -2 -2 1 2 2 2 3 5 7 5 4 4 6 8 8 7 5 4 1 1 -2 -1 0 1 1 1 -4 -5 -1 2 1 -1 -1 -3 -4 -3 -3 -5 -7 -4 -2 -2 -3 -4 -4 -6 -6 -7 -8 -8
3 2 1 1 1 3 4 1 3 2 0 1 1 0 1 2 6 5 2 -1 -1 -3 -3 -2 -2 -6 -3 -1 -1 -2 -1 -3 -7 -6 -6 -5 -5 -4 -5 -7 -9 -9 -8 -6 -6 -6 -6 -7 -8 -8 -7 -8 -10 -12
2 0 0 1 2 4 3 3 2 2 2 3 3 -1 -0 0 1 3 2 3 3 4 3 2 5 5 -0 -3 -6 -6 -6 -2 -4 -5 -7 -8 -8 -8 -8 -9 -11 -10 -8 -8 -8 -8 -9 -9 -10 -12 -12 -12 -13 -15
4 3 3 4 4 5 4 2 2 4 2 2 1 -3 -4 -1 1 3 1 -1 3 6 5 2 -1 -3 -3 -3 -2 -3 -5 -4 -7 -4 -6 -6 -7 -6 -8 -10 -10 -10 -8 -8 -9 -10 -10 -11 -12 -13 -14 -15 -16 -16

GFSWCAN_sfc_30mbdewp_054.txt.gz
Dewpoint
38 40 40 41 41 41 40 38 37 37 37 37 38 38 39 39 38 37 35 38 35 30 32 33 28 27 27 30 29 33 33 33 31 28 25 23 21 20 19 24 25 24 23 23 21 22 21 25 27 24 35 34 32 31
39 41 42 42 42 41 40 40 38 38 38 38 39 39 40 40 40 39 35 38 40 34 34 34 32 33 29 29 33 36 32 33 32 27 25 25 24 25 19 17 26 25 22 21 21 21 28 31 33 33 36 36 37 38
40 42 41 41 40 41 39 40 39 39 39 40 40 40 41 42 42 41 37 37 38 33 33 35 33 34 36 35 36 34 35 35 35 31 32 28 27 24 21 20 19 23 26 26 26 25 26 26 32 37 37 37 37 36
42 41 41 42 43 41 41 40 40 40 40 41 41 41 42 41 43 42 38 39 38 35 29 33 36 36 36 38 37 38 37 37 36 36 32 31 27 26 23 22 22 21 25 26 23 23 23 27 36 37 36 37 35 35
41 42 43 43 42 43 41 41 41 41 41 42 42 42 42 43 42 42 40 41 41 34 31 31 37 36 36 38 38 38 39 38 36 35 33 31 30 29 29 29 23 23 22 24 22 33 33 33 35 36 35 35 34 33
42 42 43 42 42 43 43 42 42 42 42 42 43 42 41 42 43 38 32 41 42 41 34 28 33 35 36 37 36 36 39 39 38 36 34 33 35 33 28 23 25 34 34 34 33 35 35 35 35 34 33 32 30 29
43 43 44 44 43 42 41 41 43 44 43 43 44 43 42 42 41 35 35 39 42 40 34 27 26 34 34 36 37 38 37 35 37 36 34 35 35 33 33 27 30 29 29 29 32 33 34 35 33 31 29 28 27 27
43 43 43 42 42 43 42 42 42 42 42 43 43 43 43 42 41 37 42 41 41 38 36 28 27 32 34 31 30 35 34 35 35 34 35 33 33 36 30 25 25 25 25 27 28 28 29 31 31 27 27 27 26 25
43 43 43 41 43 43 43 42 43 42 42 42 42 45 44 39 36 39 43 41 42 37 30 29 25 24 35 30 30 33 36 29 36 31 33 34 31 29 22 23 23 23 23 23 24 26 29 28 26 26 26 25 24 22
42 42 42 42 42 43 43 42 42 41 41 44 40 35 33 39 43 41 38 33 33 36 34 28 31 29 35 32 29 30 31 28 28 31 32 30 25 22 21 21 21 21 22 23 24 25 23 24 23 22 22 22 20 20
41 42 43 42 42 42 43 42 43 43 41 38 34 34 41 41 38 35 30 30 30 28 31 31 31 30 36 30 29 32 30 31 25 28 29 25 22 20 19 19 20 21 21 22 23 23 23 23 22 20 19 19 19 18
40 42 42 41 41 42 42 41 41 39 40 38 37 36 34 32 32 29 27 29 27 25 30 30 30 32 34 36 33 32 30 30 24 28 27 21 17 18 18 18 19 19 20 20 21 21 22 21 21 19 18 17 17 17
37 37 37 34 35 40 39 37 37 37 34 30 26 25 23 21 21 23 22 25 25 28 30 31 29 33 33 33 31 32 29 25 25 23 19 16 16 16 17 17 17 19 18 18 18 19 18 18 18 17 16 16 16 15
35 36 34 33 33 33 31 30 28 26 25 21 20 15 17 17 18 19 20 22 25 26 28 30 30 30 30 28 27 23 23 23 20 17 14 15 16 17 18 18 16 17 17 17 16 16 15 15 15 16 16 16 15 13
40 37 31 32 31 30 29 28 24 23 20 18 17 15 15 18 19 20 22 23 24 26 28 29 28 29 25 22 22 22 19 17 16 14 14 16 17 17 17 17 17 16 16 16 16 15 15 15 14 14 15 15 14 14
36 38 35 31 31 28 26 23 22 22 19 16 15 16 18 18 18 19 21 22 24 25 29 27 23 21 19 18 16 15 16 14 12 14 16 16 16 16 17 17 18 18 17 17 16 15 15 14 14 14 14 13 13 12
37 36 39 27 23 24 24 20 18 16 16 15 15 18 17 17 16 18 20 21 25 26 24 21 18 16 14 13 11 12 12 13 15 16 18 18 16 16 17 17 17 17 17 17 16 16 15 16 16 14 12 12 11 10
36 38 38 36 32 25 20 19 15 14 13 15 13 16 18 18 18 19 21 23 25 22 20 16 14 12 12 11 11 12 14 16 17 16 16 17 17 17 18 16 17 17 15 15 15 15 15 12 11 10 10 9 8 7
37 37 36 32 29 22 17 17 15 13 15 16 17 17 17 17 19 21 22 22 19 19 18 15 11 10 10 13 13 14 15 14 13 14 14 16 16 15 15 15 15 15 14 13 11 10 10 10 9 8 8 7 7 7
35 35 33 31 28 20 16 16 17 14 14 16 18 15 14 16 18 20 18 15 13 12 10 9 10 13 14 16 17 16 16 15 14 12 12 13 14 14 14 14 13 12 11 10 10 9 8 7 6 6 6 6 6 6
33 34 31 29 26 24 20 17 16 17 20 17 19 16 15 16 15 14 12 11 10 11 10 13 13 15 18 19 19 18 18 18 17 16 12 12 13 12 10 9 8 7 7 8 6 6 6 5 4 5 5 6 6 5
31 29 29 26 21 21 20 20 18 20 15 13 13 11 12 13 13 13 9 9 10 12 13 14 15 15 14 14 15 15 15 14 13 12 11 10 8 7 7 6 6 6 6 6 6 6 6 4 4 4 5 4 3 3
29 27 25 25 23 21 22 27 20 19 16 15 11 8 9 11 10 9 9 9 11 15 15 14 14 14 13 13 13 12 12 10 9 9 8 7 7 7 6 5 6 5 3 2 3 4 5 3 3 4 4 4 3 3
22 20 19 20 21 20 20 18 17 16 16 13 10 9 10 10 10 8 6 8 12 14 14 15 13 12 11 10 9 9 8 8 8 9 7 5 4 4 4 4 4 4 3 2 3 4 4 4 3 4 4 3 3 2
15 14 17 15 18 15 14 15 15 14 14 14 11 10 10 10 8 7 7 9 11 12 12 13 11 10 10 9 9 9 8 6 6 5 6 5 5 4 3 3 4 4 4 5 4 3 3 3 2 2 1 1 0 0
11 13 14 15 16 15 14 12 14 14 13 11 10 9 10 8 7 7 8 11 11 12 12 12 11 10 9 8 8 8 7 7 6 6 5 5 4 5 4 2 2 3 4 5 4 3 2 2 2 1 1 0 -1 -0
10 10 10 8 12 13 13 13 13 12 11 10 8 6 6 4 5 6 10 11 11 11 10 11 10 9 8 7 6 6 5 6 5 4 3 2 2 3 3 2 0 2 3 3 2 2 1 1 0 0 0 0 1 1
8 7 4 5 5 6 6 6 6 7 8 7 5 2 2 3 5 8 9 10 11 10 9 8 7 6 5 4 5 5 4 4 5 4 4 3 3 4 4 4 4 3 4 4 3 3 2 2 1 1 0 -0 -0 -0
6 6 2 -1 2 2 3 3 4 5 6 5 4 3 3 5 6 9 9 10 10 9 7 6 5 6 6 5 5 6 6 6 5 2 1 2 3 3 3 3 3 3 3 3 1 3 2 2 1 1 0 0 -0 -1
5 6 2 0 -0 1 3 5 5 6 6 7 5 4 4 6 8 11 10 9 9 9 8 7 6 7 6 6 5 5 4 3 3 4 2 1 2 3 3 3 2 1 1 1 1 1 0 -0 0 -0 -1 -1 -2 -2
6 5 3 2 1 4 5 7 7 6 6 6 6 4 4 6 8 7 6 6 6 5 5 5 4 4 6 5 5 4 3 2 -1 0 2 2 2 2 -0 -1 -1 -1 -1 -1 -2 -2 -2 -3 -3 -4 -4 -5 -6 -8
5 3 2 1 3 6 7 7 7 6 7 6 6 6 5 6 4 6 5 7 7 8 6 8 8 8 5 3 1 2 0 2 1 -1 -2 -1 -1 -2 -2 -2 -3 -2 -2 -2 -3 -3 -4 -5 -6 -6 -7 -8 -9 -10
6 6 6 6 6 6 7 6 6 6 6 6 4 3 3 4 3 5 5 4 7 8 8 6 4 3 1 2 2 2 1 -0 -1 -1 -3 -3 -4 -2 -1 -1 -2 -2 -3 -3 -3 -4 -5 -7 -7 -8 -9 -10 -10 -10

GFSWCAN_sfc_30mbdewp_057.txt.gz
Dewpoint
36 37 38 39 39 40 41 41 41 41 38 37 37 37 38 38 38 38 35 36 35 30 26 24 24 24 28 29 29 32 32 33 31 28 24 23 22 21 18 25 23 21 22 21 20 21 17 22 22 21 33 33 32 32
38 38 39 40 40 41 42 42 42 42 40 37 37 37 38 37 37 38 33 31 37 33 26 32 29 27 31 29 30 35 31 35 30 29 24 28 25 25 20 18 29 22 22 21 19 20 27 26 33 36 35 34 34 35
39 39 40 41 42 42 42 41 42 41 40 38 37 37 38 38 39 39 34 32 35 33 33 30 28 29 33 32 32 34 34 35 35 31 34 30 26 27 23 19 24 25 32 25 30 23 29 26 33 35 35 35 35 34
41 41 42 42 42 42 43 42 41 41 40 39 38 39 39 39 40 40 38 36 36 32 26 24 31 31 30 33 33 36 35 35 38 38 36 32 29 26 25 24 22 22 24 22 24 25 24 24 34 36 35 35 34 34
41 42 43 43 43 43 43 42 41 41 40 40 40 40 40 41 41 41 41 40 38 29 26 26 29 34 34 32 33 37 37 37 37 36 34 32 30 28 28 27 25 23 22 24 23 33 33 30 33 35 33 33 33 33
41 43 43 43 43 43 43 43 41 41 40 40 41 41 41 41 42 40 34 40 40 37 29 28 33 33 35 34 34 36 38 38 38 36 34 32 33 31 30 25 24 31 32 33 33 35 35 34 34 34 33 32 31 30
43 43 43 43 43 43 43 43 42 42 41 41 42 42 43 43 42 35 33 37 41 40 33 30 31 32 34 35 36 36 38 39 36 35 33 35 33 33 29 25 34 30 30 30 31 31 33 34 33 32 31 30 29 28
43 43 42 42 41 42 42 43 43 43 43 43 43 43 42 42 40 37 42 41 40 37 37 30 29 31 34 33 34 37 37 37 37 34 35 30 30 32 30 29 27 26 26 28 28 27 29 31 31 29 28 27 28 25
42 43 43 43 43 42 42 42 42 44 43 43 44 44 41 38 35 39 42 42 41 37 31 29 25 24 33 31 30 33 35 30 35 30 30 32 28 28 25 25 25 24 24 24 25 26 28 28 26 25 25 24 24 22
43 43 42 43 43 43 42 43 42 42 44 44 38 34 32 38 43 42 38 33 33 36 35 28 28 30 31 29 28 30 32 27 26 31 35 32 23 23 22 22 22 22 22 23 24 25 24 25 24 22 21 21 20 19
42 41 42 43 43 43 43 42 43 44 41 38 33 33 40 41 38 34 30 30 31 29 30 30 30 31 37 31 28 29 28 27 21 27 30 29 23 21 20 20 20 21 22 22 23 24 23 24 24 22 20 21 19 18
38 38 42 42 43 43 43 43 42 41 40 39 37 38 38 35 34 30 28 29 26 23 29 29 29 32 33 37 33 30 28 29 23 31 29 25 19 19 19 19 19 20 21 21 23 22 21 22 22 20 19 18 18 18
35 37 39 37 41 43 42 41 40 40 38 35 32 29 28 27 27 25 22 24 26 31 31 32 30 33 34 34 33 32 28 26 29 28 24 19 17 17 18 18 19 20 20 19 19 18 18 18 19 18 16 17 17 16
35 35 35 34 36 37 34 32 31 27 29 24 25 19 24 21 21 22 24 26 27 29 32 32 31 31 32 29 30 26 27 28 23 21 18 18 18 18 20 19 17 17 17 17 16 16 17 16 16 17 17 17 15 14
32 30 31 30 32 30 29 27 25 24 22 21 21 18 18 20 22 23 25 26 26 28 31 31 31 31 29 25 27 25 23 21 20 18 17 18 18 18 18 18 17 16 16 16 16 15 15 16 15 15 15 15 15 15
36 34 28 32 29 27 26 24 22 22 20 19 19 19 21 22 22 24 25 26 27 29 31 31 28 25 23 24 22 20 22 18 16 18 18 18 18 18 19 19 19 18 17 17 16 16 16 15 15 14 15 14 14 13
37 36 27 26 25 24 24 22 20 18 18 17 18 21 21 20 20 22 24 24 28 29 27 27 22 19 19 19 15 15 15 16 18 20 20 19 18 18 19 19 19 19 18 18 18 18 18 18 18 15 13 12 11 10
36 37 34 26 29 23 20 19 17 16 16 20 16 20 20 20 22 23 24 26 28 25 23 19 18 17 16 15 14 16 17 19 19 19 19 19 19 20 20 18 19 18 18 18 18 18 16 13 11 10 10 8 7 7
36 35 34 34 27 21 18 18 17 15 18 19 19 20 20 21 22 24 24 22 21 20 19 17 15 14 14 17 16 16 17 16 16 16 16 18 18 17 17 18 18 18 17 16 13 11 11 11 9 8 7 7 7 7
34 33 30 28 27 19 17 17 17 15 16 18 18 17 17 19 21 22 20 16 15 13 12 12 13 16 16 19 19 18 18 18 16 15 15 17 18 18 19 17 16 14 12 12 11 9 8 7 6 7 7 7 8 7
31 29 29 25 22 21 19 17 18 20 20 15 17 16 18 18 17 16 15 13 11 12 11 15 15 18 21 21 21 21 21 22 21 17 15 15 15 14 13 12 11 10 10 10 8 7 7 6 5 6 8 8 8 7
28 29 29 23 21 20 19 19 21 21 17 16 14 14 16 15 14 14 11 10 12 14 17 18 18 18 17 17 17 17 17 16 15 14 14 13 12 11 10 9 8 9 8 8 8 8 7 5 6 6 7 6 5 6
29 27 27 26 23 21 20 28 21 21 16 14 13 14 15 14 12 11 11 11 14 17 17 16 16 15 15 15 14 14 14 13 13 12 11 10 10 10 8 7 8 7 5 3 4 6 6 4 5 5 5 5 5 4
24 24 24 25 21 21 22 19 16 16 16 14 12 11 13 13 11 9 8 10 13 17 16 16 14 14 13 12 11 10 9 10 10 10 8 6 5 4 5 4 5 5 4 3 4 5 5 5 5 4 4 4 3 3
17 16 21 19 20 18 17 17 16 16 15 14 13 13 13 14 11 10 9 11 14 15 15 15 15 15 14 12 10 10 9 8 7 7 7 6 6 4 4 3 4 3 5 7 5 5 4 4 4 3 2 3 2 1
14 15 16 18 18 17 16 16 16 15 14 13 13 12 15 13 11 10 10 14 14 16 17 16 14 12 10 9 9 8 7 7 7 7 5 5 5 7 5 4 3 5 5 6 6 5 3 2 3 2 2 2 1 1
13 14 12 12 16 16 17 17 16 15 14 12 12 12 12 9 8 9 12 16 14 14 14 14 13 12 10 8 7 7 6 6 5 4 3 2 3 4 6 5 4 4 4 4 4 4 4 2 2 2 2 2 2 2
10 10 9 10 10 11 10 10 11 11 12 9 8 7 7 7 8 13 13 15 14 13 12 11 10 9 8 8 8 7 7 8 8 6 6 5 5 5 5 5 4 4 4 4 4 3 3 3 2 2 2 1 1 1
10 9 4 3 6 6 6 7 8 7 7 10 8 6 5 7 11 11 13 13 13 12 11 10 10 10 9 9 9 9 9 8 6 2 1 3 4 6 4 4 4 4 4 4 3 3 2 2 2 2 1 1 2 1
9 9 5 3 3 4 5 8 7 9 8 8 7 7 7 8 13 15 13 13 12 12 12 11 11 10 8 8 7 7 7 6 5 6 5 4 5 5 4 4 3 2 2 3 2 2 3 2 1 2 2 0 1 0
9 9 6 4 4 8 9 10 10 11 12 11 10 7 7 8 10 10 11 12 11 10 9 9 9 9 8 7 6 5 6 5 3 3 4 4 3 3 2 1 1 2 2 1 1 1 -0 -1 0 -1 -1 -3 -4 -5
9 7 4 3 5 7 12 11 10 10 10 9 9 9 10 9 7 8 9 11 10 10 9 10 9 9 7 5 5 5 4 3 2 1 2 2 3 1 1 1 1 1 1 -0 -0 -1 -1 -2 -2 -3 -4 -4 -5 -6
9 8 8 8 8 9 9 11 8 9 9 8 8 8 8 8 6 8 9 10 11 12 10 9 8 6 5 4 4 3 3 2 1 1 0 -0 -1 -0 1 1 1 0 -1 -1 -1 -1 -2 -3 -4 -5 -6 -6 -6 -6

GFSWCAN_sfc_30mbdewp_060.txt.gz
Dewpoint
34 35 36 37 38 38 39 39 40 40 41 41 39 38 37 38 38 38 35 38 37 31 27 24 23 25 25 31 30 31 32 32 32 27 25 21 23 24 23 27 27 22 24 24 22 20 18 18 21 19 35 37 36 35
36 38 38 39 39 39 40 40 40 41 43 41 41 38 37 38 38 38 33 37 39 36 26 29 28 26 24 29 34 36 30 33 33 30 25 27 28 27 24 21 34 28 22 21 20 20 24 28 34 35 35 36 35 34
38 38 38 38 40 40 41 41 42 42 42 42 42 39 38 38 38 38 32 33 37 34 30 29 26 27 28 29 32 32 31 32 35 36 36 34 29 28 23 21 27 34 33 22 27 26 21 36 36 34 34 34 33 33
38 38 39 41 41 42 42 43 43 43 42 42 41 39 38 38 38 37 34 33 36 34 25 23 25 27 29 28 30 32 31 32 38 37 34 34 30 34 31 27 29 33 36 29 29 33 37 39 38 33 33 33 32 33
38 40 41 41 42 43 44 43 43 43 41 41 41 39 38 38 37 38 39 36 38 29 25 27 31 30 25 32 29 29 34 34 35 34 34 31 31 32 30 27 25 29 34 32 32 36 38 37 34 33 32 32 31 30
40 40 41 43 43 43 43 43 43 42 41 41 40 39 38 38 39 37 33 38 38 38 32 24 32 35 34 32 33 31 32 37 37 33 33 33 31 31 28 28 35 36 31 32 32 31 34 34 33 33 32 31 30 29
41 42 43 44 43 43 43 43 42 42 41 41 40 39 39 40 40 34 33 38 40 39 32 26 20 30 34 34 34 35 37 38 36 35 34 32 33 32 31 26 35 31 28 30 28 29 32 32 31 30 30 30 29 26
42 43 42 43 43 43 43 43 42 42 41 41 40 40 40 41 40 37 39 41 40 36 35 26 27 33 34 34 34 38 36 37 36 35 35 35 32 33 30 31 28 25 27 27 26 27 30 30 28 26 26 27 25 23
43 43 43 43 43 43 42 44 43 42 42 41 41 42 42 38 35 37 41 40 39 35 29 31 28 27 33 32 34 37 37 31 37 34 32 30 28 27 25 25 24 24 24 24 25 28 26 27 25 24 23 23 23 21
43 42 42 43 43 43 43 43 43 43 43 42 38 34 31 37 42 40 38 34 35 34 35 29 28 28 31 31 30 30 32 28 26 29 34 30 25 25 23 23 23 23 23 23 24 24 24 24 24 22 21 21 20 19
41 42 43 43 43 43 43 43 44 43 42 38 35 34 40 42 38 34 29 30 31 29 30 29 30 29 35 30 28 30 30 28 24 29 29 29 22 23 21 20 21 22 22 23 24 24 23 24 24 20 19 19 18 18
41 43 44 44 43 43 44 42 41 40 39 38 38 39 39 35 32 29 28 31 28 24 30 29 30 33 34 36 32 31 27 28 22 32 28 22 21 21 19 19 21 21 21 22 22 20 21 21 20 18 17 17 18 18
40 43 44 44 43 42 41 41 42 41 38 37 35 33 33 31 27 26 22 24 27 31 32 34 32 34 34 35 31 32 27 25 30 27 22 19 20 21 21 19 20 20 19 18 18 18 17 17 18 16 17 18 17 17
40 39 40 41 42 42 42 42 41 39 31 27 26 22 26 23 23 24 25 27 29 32 33 34 31 30 32 29 30 27 28 30 25 23 18 19 20 20 21 19 17 18 18 17 17 17 17 16 16 17 17 17 15 14
35 37 34 32 33 34 31 30 28 27 25 23 22 20 19 23 24 25 28 28 29 31 33 32 31 32 29 27 27 26 24 23 19 17 18 20 20 19 19 18 18 18 18 18 17 16 16 16 15 16 17 16 15 15
34 35 32 30 29 29 27 26 25 24 22 20 22 21 25 24 24 25 28 27 30 31 31 32 29 26 25 26 24 21 23 18 18 18 19 19 19 19 19 20 19 19 18 18 18 17 16 16 15 15 15 15 14 13
36 30 30 29 27 25 25 24 22 19 20 19 19 24 25 22 23 25 26 26 31 30 28 29 24 22 26 22 17 17 17 18 20 21 20 20 18 19 20 20 20 20 20 20 19 19 18 19 19 15 13 12 11 11
35 28 29 30 28 25 22 22 19 17 18 22 19 21 21 25 25 25 27 29 30 27 25 23 25 19 17 18 15 18 19 21 21 20 20 20 21 21 21 20 21 20 19 19 18 18 17 14 11 10 10 9 8 8
35 34 34 33 28 22 20 20 19 16 20 21 22 22 23 23 24 25 25 25 22 23 22 19 15 15 16 19 17 18 18 17 16 17 18 19 19 19 19 20 20 20 19 17 13 12 12 11 10 9 8 9 9 10
32 31 28 27 28 21 19 19 19 18 19 19 21 19 20 22 24 23 21 18 17 15 14 13 15 19 18 21 20 19 19 19 17 16 16 19 21 21 21 18 16 15 13 12 11 10 8 7 7 8 9 10 12 11
28 27 27 25 23 22 20 19 19 18 18 19 22 19 20 20 19 19 17 14 13 14 13 17 18 20 21 22 23 22 22 22 21 19 16 16 17 16 14 13 12 12 12 11 9 8 9 7 6 8 11 11 10 8
26 29 28 25 23 21 23 24 19 20 17 19 18 18 18 17 16 15 12 12 13 16 19 19 19 19 18 18 18 18 18 18 17 16 16 16 15 14 13 11 11 11 10 9 10 11 9 8 9 8 10 8 9 8
30 29 28 26 23 21 22 28 24 25 16 15 19 17 17 15 15 13 13 15 16 19 18 16 17 17 16 17 17 17 16 15 14 14 13 12 12 11 9 9 10 9 7 5 5 8 8 4 5 7 7 7 8 7
26 27 27 24 21 20 23 21 17 17 20 17 13 14 16 15 12 10 10 12 17 18 17 18 16 16 15 13 12 11 12 12 12 11 9 8 7 5 6 6 7 6 5 4 6 7 6 7 3 9 5 5 6 5
19 17 23 21 22 20 18 18 17 16 16 14 15 16 15 20 13 11 10 13 17 17 17 20 22 18 15 13 11 10 11 9 9 8 7 8 7 5 5 5 5 4 7 12 9 8 6 5 5 5 4 4 4 3
15 16 18 19 19 19 18 18 17 16 15 15 14 15 19 15 13 11 12 16 16 17 19 19 17 13 12 11 10 9 8 8 9 7 5 5 6 9 7 5 8 8 6 8 9 8 7 4 4 2 3 5 1 2
15 15 14 15 20 19 19 19 18 17 15 14 15 15 14 10 9 11 19 17 16 18 17 19 17 14 11 9 8 7 7 7 7 5 4 5 6 7 9 9 8 7 6 6 6 6 6 5 4 3 3 4 5 6
12 13 12 14 14 14 13 13 13 13 13 11 12 10 10 10 10 16 16 18 17 15 14 14 13 12 11 10 9 9 9 10 9 8 8 7 6 6 7 6 4 3 5 5 4 5 4 4 3 4 4 3 3 3
13 10 7 7 8 7 8 10 10 8 10 14 10 8 6 11 13 14 14 15 15 13 12 11 11 11 11 11 12 11 10 10 7 3 3 6 10 7 6 5 6 5 5 5 5 3 3 2 2 3 2 2 3 3
11 11 7 6 5 5 8 13 11 11 10 9 9 10 11 13 16 17 17 17 16 15 15 15 15 12 10 9 8 8 8 7 8 8 7 7 7 5 5 5 4 4 4 4 4 3 4 4 3 4 4 4 3 2
12 11 7 6 6 9 12 14 16 16 14 12 11 7 6 8 10 13 14 13 13 12 12 11 11 11 9 9 10 8 8 6 3 3 5 5 4 5 4 3 3 3 4 3 2 2 1 -0 1 1 1 -0 -2 -3
12 9 6 4 7 13 16 14 13 12 13 10 11 12 13 11 8 10 11 16 15 11 12 13 11 8 7 7 6 6 5 4 4 4 4 5 5 3 3 2 3 3 2 1 2 1 1 -1 -1 -1 -2 -2 -2 -3
11 10 9 8 8 8 11 14 10 11 10 9 9 11 11 11 7 9 11 12 15 14 12 10 9 7 6 6 5 5 4 3 2 2 1 0 -0 -0 1 4 3 2 1 0 0 0 -0 -1 -2 -3 -4 -4 -3 -3

GFSWCAN_sfc_30mbdewp_063.txt.gz
Dewpoint
32 35 36 36 36 37 38 38 39 39 39 40 39 39 39 38 37 37 35 38 35 31 29 29 30 29 28 29 28 31 32 33 31 25 25 22 21 22 22 23 27 27 23 25 24 22 20 23 30 25 36 37 36 34
34 35 36 37 38 39 39 39 40 40 40 40 40 41 40 39 38 38 34 38 38 33 30 33 32 32 31 28 29 34 30 32 32 29 27 28 23 24 25 22 34 27 30 25 24 23 31 38 37 39 37 35 35 34
34 36 37 38 39 39 39 40 41 41 42 41 42 42 41 40 38 37 35 36 35 32 31 30 28 27 29 29 32 30 33 35 36 37 31 31 29 32 24 24 27 34 36 32 27 33 35 40 39 35 34 34 34 34
36 37 38 38 38 39 40 41 42 43 43 43 43 42 42 40 38 37 35 34 35 34 25 24 28 28 30 29 31 32 32 34 34 35 32 30 30 33 29 30 29 34 34 33 30 37 37 37 37 36 33 33 32 31
37 37 38 39 40 41 42 43 44 44 44 44 42 42 42 39 37 37 37 35 36 32 27 29 31 30 34 31 30 30 30 33 34 32 32 31 34 34 32 30 33 36 31 31 30 35 36 36 37 36 33 31 30 29
37 38 39 40 41 42 43 44 44 43 43 42 41 42 40 38 37 36 32 35 38 37 29 22 30 31 33 31 32 31 30 31 35 33 33 35 36 31 28 29 34 33 32 31 31 38 35 33 32 32 30 27 26 25
38 39 40 41 43 44 44 43 43 43 42 41 42 40 39 38 37 31 29 37 37 38 31 27 26 34 31 31 35 34 35 36 36 35 32 32 32 35 31 28 26 27 28 27 30 33 30 29 27 28 28 26 24 22
40 40 40 42 42 42 43 43 43 42 42 42 40 39 39 38 37 33 36 41 38 34 34 27 25 27 36 35 33 38 35 36 35 34 35 34 35 34 28 26 25 24 25 25 27 29 28 25 24 24 25 24 22 21
42 43 43 43 43 43 44 44 43 42 41 40 39 38 37 36 33 33 39 40 39 33 27 28 24 25 35 34 35 35 37 30 36 32 33 33 30 25 25 24 23 23 23 23 26 25 26 23 22 22 21 22 21 20
42 42 42 42 43 43 43 43 42 41 41 40 38 33 30 34 40 39 37 34 33 34 34 30 29 24 33 33 32 32 34 31 26 30 34 31 23 25 24 23 23 23 24 24 23 22 23 23 21 20 21 21 20 19
41 42 42 43 43 44 44 43 42 41 40 37 33 32 39 40 37 34 29 29 29 27 31 31 26 27 34 30 31 31 28 28 25 29 28 26 21 23 22 21 22 23 24 25 25 24 23 22 20 19 18 17 17 16
42 43 43 43 43 44 43 43 42 39 38 38 38 40 38 34 31 29 27 29 28 25 30 29 30 32 35 35 31 32 28 28 24 32 28 18 20 22 21 21 22 22 21 21 21 20 20 20 19 18 17 16 16 16
44 43 44 44 44 44 43 42 40 41 39 38 35 33 32 31 26 25 22 25 26 31 32 33 32 34 34 33 30 31 28 26 32 28 19 18 21 22 20 20 20 21 19 18 18 18 17 17 17 16 15 15 14 14
42 43 43 43 42 41 41 43 41 40 35 31 27 23 25 24 23 23 25 26 30 32 33 32 31 30 30 28 28 25 28 28 24 21 14 17 19 19 19 19 17 17 17 16 16 15 15 14 14 15 14 13 13 13
39 39 38 40 42 41 40 39 35 30 27 23 23 20 20 24 25 26 29 28 30 33 32 30 30 30 27 25 25 25 22 22 18 14 16 18 19 18 17 17 17 17 16 15 15 15 14 14 14 14 14 13 12 12
35 34 36 35 35 32 32 27 27 27 23 21 23 23 26 24 24 26 28 26 30 31 33 32 26 25 23 25 24 18 20 14 15 16 18 19 19 19 18 18 18 18 17 17 16 16 15 13 13 14 14 13 12 11
34 32 32 31 28 27 28 25 22 21 21 20 20 24 25 23 23 25 27 27 31 29 28 28 22 21 25 20 15 18 15 16 18 19 19 19 18 18 19 19 19 19 18 18 17 16 15 15 15 14 12 12 11 10
26 32 33 33 32 26 24 24 20 19 20 24 20 22 23 25 24 25 27 26 30 27 25 23 26 18 15 16 14 16 17 19 20 19 19 20 21 21 21 20 20 20 19 19 19 20 18 15 12 11 10 10 10 10
27 31 31 29 28 25 22 22 20 19 21 22 24 24 24 24 25 24 25 23 21 21 22 17 15 16 16 18 16 17 18 16 16 17 18 20 20 20 20 20 20 20 19 18 14 12 11 11 11 12 13 14 12 14
35 33 27 27 27 22 20 19 22 21 20 21 22 21 23 24 23 20 18 18 16 16 15 15 15 17 18 20 20 19 18 18 17 16 16 18 20 21 20 19 17 15 13 13 12 11 10 9 9 9 11 12 11 8
28 28 28 27 25 27 24 20 20 21 22 21 22 20 20 19 17 16 15 15 16 16 14 18 19 21 23 23 24 23 21 20 19 18 17 16 17 16 15 16 16 16 14 11 10 9 9 9 10 12 10 9 5 4
28 29 29 27 24 25 23 23 20 21 21 21 22 20 18 17 16 14 13 14 15 17 19 19 19 19 19 20 20 20 19 18 18 18 18 18 17 14 13 13 11 8 7 10 12 9 7 7 10 11 9 8 4 4
31 32 29 27 22 22 22 26 23 20 17 18 20 18 17 16 16 15 13 15 16 20 19 19 19 19 18 19 18 18 17 17 15 14 13 13 12 10 10 10 10 9 6 6 10 6 3 8 6 6 7 8 8 3
28 27 26 23 21 21 27 24 20 20 19 18 14 16 17 14 14 12 11 14 17 19 17 17 18 18 17 14 13 14 14 14 13 12 12 9 7 7 8 8 7 7 8 8 8 7 7 3 3 10 3 6 7 3
17 16 22 21 23 20 19 19 20 17 14 14 16 14 16 21 13 11 11 14 18 19 19 19 20 18 14 12 11 10 12 12 9 7 8 9 7 6 6 6 5 7 9 12 10 8 3 4 5 2 2 2 1 -1
14 16 18 21 21 20 19 18 16 16 15 15 15 16 21 16 12 11 14 17 17 18 20 18 17 16 14 12 10 9 9 11 8 6 6 8 10 11 9 9 8 7 7 6 6 7 9 3 3 2 1 5 3 1
14 15 16 18 21 22 19 19 18 16 16 15 17 17 13 10 8 13 19 19 18 18 18 21 16 12 10 9 9 9 8 8 7 7 8 8 9 8 6 6 6 6 6 6 6 4 4 4 4 5 4 4 6 5
13 16 13 14 12 13 13 13 13 14 13 14 12 10 10 9 10 16 17 18 16 14 13 13 14 13 11 10 9 9 8 7 7 8 8 8 8 6 3 3 3 5 5 1 0 3 3 3 3 4 3 3 3 5
13 11 7 6 7 8 10 11 10 11 13 15 10 7 8 14 16 15 15 15 14 13 11 11 12 13 12 11 10 10 9 9 8 4 5 6 5 6 5 6 7 3 2 6 7 4 3 2 1 1 -0 -1 -0 1
12 11 7 5 6 6 11 14 12 12 11 12 13 12 11 13 17 18 17 17 16 14 13 12 13 11 9 8 6 5 5 5 5 6 5 4 5 6 3 3 4 4 4 3 2 2 4 -1 -0 3 4 3 2 -3
14 10 7 7 8 12 14 16 14 12 9 8 7 6 7 10 11 14 15 14 13 13 12 12 11 11 9 9 8 5 3 2 1 2 4 5 5 2 1 2 1 1 4 1 1 1 -0 -1 -1 -2 -2 -3 -3 -3
12 7 6 5 9 15 17 12 12 11 11 9 9 9 11 10 7 10 12 13 15 13 14 9 6 6 6 5 4 5 4 4 4 1 1 2 2 1 2 5 3 2 -0 -1 0 1 0 -1 -2 -3 -4 -4 -5 -5
9 8 8 7 8 10 14 14 11 12 12 10 11 12 10 9 5 9 14 14 14 10 9 8 7 6 6 5 4 3 1 0 0 1 -1 -2 -3 -4 -3 -2 -4 -3 -2 -2 -2 -1 -1 -1 -1 -3 -4 -4 -5 -5

GFSWCAN_sfc_30mbdewp_066.txt.gz
Dewpoint
35 34 34 35 36 35 35 35 37 37 38 39 39 39 39 39 37 37 35 38 34 30 30 29 29 27 30 31 26 29 30 30 29 25 24 22 22 21 21 21 21 23 23 23 23 22 18 32 31 25 34 37 36 35
32 33 35 35 35 34 35 38 39 39 40 40 40 40 40 39 39 38 33 38 38 33 28 34 31 32 29 28 29 32 27 30 32 27 28 29 24 24 24 19 35 28 30 28 24 23 36 34 34 36 38 37 37 36
34 34 34 34 35 36 38 39 39 40 40 40 41 41 41 40 40 40 34 37 37 32 30 29 26 26 30 30 31 28 33 34 32 34 30 30 26 31 24 26 29 35 36 32 32 35 35 36 35 33 32 32 32 33
33 34 34 35 36 39 39 39 39 40 41 42 43 43 42 42 42 41 34 36 35 32 25 23 30 30 30 29 30 31 30 36 35 35 31 29 27 33 30 32 32 35 34 32 34 35 36 37 37 36 31 31 29 28
35 35 37 37 38 38 39 40 41 42 43 44 44 44 44 42 41 40 35 35 35 31 26 28 30 29 29 30 30 31 31 32 32 32 30 29 34 32 34 34 30 33 29 28 28 35 33 35 36 35 32 28 27 26
33 35 36 37 38 39 40 41 43 43 44 43 42 43 42 42 40 35 30 34 37 35 30 22 27 29 31 33 31 30 29 30 32 32 32 34 37 34 30 29 30 33 33 35 31 33 32 33 32 31 28 25 24 23
34 36 38 38 39 40 42 43 44 44 43 42 42 42 41 40 36 27 24 29 36 37 31 26 26 32 31 33 33 33 33 33 33 32 32 31 30 32 31 26 29 31 31 32 36 36 29 29 28 26 24 22 22 21
37 38 38 39 40 41 43 43 44 44 42 42 42 41 40 36 33 32 38 41 36 32 33 25 25 27 35 32 31 35 33 35 34 32 33 32 34 34 24 26 27 29 29 27 27 26 24 23 24 24 23 22 20 19
37 39 39 41 41 42 43 43 43 42 42 41 40 39 36 33 29 31 37 38 39 31 26 27 23 20 32 33 33 35 36 29 35 31 31 33 26 22 24 23 23 24 24 25 27 24 23 22 21 22 22 21 19 19
39 40 43 42 43 43 43 43 42 42 40 39 34 32 29 32 38 37 35 34 33 33 33 29 29 24 31 32 31 31 32 30 27 30 34 26 21 24 24 24 24 25 24 24 24 24 22 21 20 20 20 20 19 18
42 42 42 42 43 43 43 42 41 39 36 33 31 32 36 39 35 32 28 27 29 26 29 30 29 27 35 31 31 32 29 30 26 27 29 24 20 20 22 22 23 23 23 23 23 22 23 20 19 17 17 17 17 16
40 41 43 43 43 44 41 41 39 35 33 35 36 39 37 34 31 28 25 27 25 23 29 29 29 27 34 37 31 32 27 29 24 33 28 17 18 21 20 20 21 20 20 19 20 20 19 18 17 16 15 15 15 14
44 43 43 43 44 42 41 40 38 41 40 40 36 33 31 30 24 23 19 22 25 30 33 33 31 33 33 34 31 30 27 26 31 26 16 16 19 20 19 19 18 18 17 16 16 16 16 15 15 14 13 13 13 12
43 44 44 44 42 41 40 40 41 39 37 32 28 24 24 23 23 23 24 27 30 32 32 31 30 29 29 27 27 24 27 28 24 19 13 16 18 18 18 17 15 14 14 14 13 13 13 12 12 12 11 11 11 10
43 44 44 43 40 40 41 41 38 30 27 22 22 19 18 23 25 27 29 28 30 33 32 29 30 27 25 24 23 23 22 18 16 13 14 16 16 16 15 15 14 14 13 13 13 12 12 12 12 12 12 11 11 11
38 37 39 41 42 41 36 32 28 27 23 21 22 22 25 22 23 25 27 27 30 31 32 30 25 23 22 25 20 17 18 14 12 14 16 17 17 17 17 16 16 15 15 14 14 13 13 12 12 12 12 11 9 9
35 33 36 36 36 34 29 25 24 23 21 19 20 21 22 22 22 24 26 26 31 30 27 24 20 20 25 16 14 15 12 14 16 16 17 16 16 17 17 17 17 17 16 16 16 15 14 14 12 10 9 10 9 8
29 32 34 32 28 27 26 24 21 20 20 21 18 21 21 21 21 23 25 24 28 25 24 22 21 15 14 13 12 14 15 16 17 17 18 18 18 19 19 18 19 19 19 19 18 17 17 17 14 13 13 13 11 11
32 33 31 31 31 24 21 21 21 19 21 22 23 24 22 22 20 19 19 20 20 21 19 16 14 14 14 15 14 15 15 15 15 17 18 20 20 20 20 20 20 20 19 18 13 12 11 11 12 14 14 13 13 12
32 31 30 29 27 22 20 20 23 20 18 21 21 21 22 21 20 16 17 18 17 16 14 13 14 16 16 17 16 16 16 17 16 15 16 18 19 19 19 18 17 15 13 12 12 11 10 11 11 11 13 11 9 9
27 28 29 27 26 26 23 20 20 22 21 19 21 19 17 17 15 14 14 16 15 15 14 16 16 19 21 21 20 19 19 17 16 15 16 16 19 18 19 19 18 16 11 9 9 9 10 10 10 8 6 4 3 4
27 31 27 27 25 24 22 23 19 21 22 21 22 21 17 16 13 12 14 13 14 15 17 17 18 19 19 19 20 20 21 19 18 18 18 17 15 14 12 11 10 11 12 10 8 6 8 9 10 8 7 6 5 6
33 32 28 25 22 19 18 27 20 20 17 19 21 17 15 15 14 15 13 14 15 18 19 19 20 19 18 18 18 18 17 16 15 14 13 12 10 9 8 8 6 6 9 9 6 4 6 6 5 5 4 8 5 3
27 26 25 21 21 21 24 23 22 19 21 19 15 15 15 12 14 10 10 13 16 18 18 18 18 16 14 14 15 14 14 13 12 10 10 8 8 7 7 8 9 10 9 8 8 7 3 3 7 5 4 4 2 1
16 17 20 21 23 20 19 18 18 16 15 14 13 14 16 17 11 10 9 12 15 16 17 18 16 12 9 9 11 12 13 10 8 8 10 9 8 8 7 7 7 8 8 8 8 5 2 2 1 -0 1 1 1 -2
13 15 17 20 22 19 17 16 15 15 14 14 14 17 20 11 9 9 12 15 16 17 18 17 14 12 11 10 9 9 9 10 7 7 9 10 9 5 5 5 5 6 6 4 5 6 5 3 2 1 2 3 3 1
12 14 18 18 19 20 17 15 15 15 15 13 16 16 9 7 7 12 17 16 15 16 18 16 14 11 9 8 7 8 9 8 7 7 8 6 5 6 6 5 5 5 3 2 2 3 3 2 2 3 3 3 4 4
14 12 11 9 9 10 10 10 10 11 12 13 10 9 7 5 8 13 14 14 14 14 13 13 12 10 8 7 7 6 6 6 7 7 7 6 4 1 2 2 4 5 4 1 0 -0 0 -1 0 -0 -1 -1 -1 0
9 9 6 4 5 7 9 8 8 11 12 11 6 5 7 12 14 13 13 13 12 12 11 10 9 10 8 6 5 5 6 7 6 5 4 3 3 5 4 4 2 2 2 3 6 5 4 4 3 2 2 2 0 -1
11 7 4 5 5 6 9 10 9 9 11 12 12 11 9 11 14 15 13 10 9 9 9 9 7 7 5 2 -0 1 0 1 3 4 3 2 3 3 1 1 -0 2 1 -1 -0 1 -1 -3 -2 -2 -2 -1 -1 -4
10 7 6 7 8 10 9 9 8 7 5 6 5 5 6 9 12 12 12 12 12 12 10 9 8 6 4 2 -2 -6 -5 1 1 2 3 1 -1 -1 0 -0 -1 -0 -2 -3 -1 1 0 -1 -4 -4 -4 -4 -5 -6
7 5 4 5 8 11 11 8 7 6 6 4 6 6 9 5 5 8 11 12 11 9 6 6 6 5 4 3 1 -0 0 0 -0 1 1 -1 -2 -2 0 0 -0 -1 -2 -2 -3 -2 -2 -2 -2 -3 -4 -5 -6 -6
6 6 6 7 9 9 12 11 9 10 9 9 10 10 7 4 3 7 11 10 8 7 5 3 3 3 3 2 2 1 -2 -3 -2 -1 -3 -4 -6 -5 -6 -8 -8 -8 -8 -7 -5 -5 -5 -5 -5 -7 -7 -7 -7 -8

GFSWCAN_sfc_30mbdewp_069.txt.gz
Dewpoint
29 32 35 36 36 35 34 35 35 36 37 37 37 38 38 39 38 37 34 37 32 29 28 29 28 25 29 28 22 27 25 27 28 25 24 22 20 21 21 20 21 21 22 23 23 20 16 33 34 27 35 38 37 35
30 34 36 36 35 35 36 35 35 37 38 38 39 39 39 39 39 39 33 38 37 31 29 34 32 31 29 28 27 29 28 29 29 28 28 27 25 25 23 18 34 24 29 26 24 23 34 33 33 37 39 39 39 37
31 35 34 35 36 35 34 34 36 38 39 39 39 40 40 40 40 39 37 38 36 31 30 30 27 28 31 32 32 27 30 32 32 34 30 29 24 30 24 25 30 34 37 31 32 34 34 33 32 32 31 32 34 36
33 35 35 34 34 34 35 37 39 39 40 40 40 41 41 41 41 39 36 37 33 32 25 22 29 29 30 30 31 31 29 34 33 35 31 28 25 33 28 32 31 33 33 30 32 34 35 36 34 34 33 31 30 28
34 34 35 35 35 35 36 38 39 40 40 41 42 43 43 43 43 42 37 38 35 28 24 27 29 26 29 30 29 30 31 30 30 31 28 25 31 32 32 32 28 31 28 27 27 32 33 31 34 34 31 29 27 25
34 35 35 35 35 36 38 39 40 40 41 43 43 44 43 44 43 35 30 36 36 33 27 21 26 27 32 30 30 30 31 31 31 29 30 33 36 32 29 25 30 31 32 34 30 32 32 31 30 27 26 27 26 25
34 34 33 34 36 38 38 39 40 41 42 44 44 42 42 40 36 28 23 28 37 34 30 25 25 28 32 32 32 31 31 30 30 29 29 30 30 33 30 24 28 30 32 33 33 33 29 29 25 24 22 21 21 20
32 33 33 35 37 39 39 40 41 43 43 43 43 42 39 36 35 33 38 38 36 32 31 22 23 27 36 30 30 33 32 33 33 30 32 31 31 34 23 25 26 27 30 27 24 25 25 24 23 22 22 20 19 18
34 35 36 38 38 39 40 41 42 44 43 42 41 39 36 31 29 35 39 37 36 28 23 25 22 16 33 33 33 33 33 27 34 29 30 32 27 20 23 23 23 25 24 25 24 23 23 22 22 21 20 19 18 17
34 36 36 37 39 40 41 42 44 42 42 39 34 30 26 30 39 39 36 31 29 30 32 27 28 24 30 31 30 31 31 28 26 28 34 25 18 22 23 23 24 24 23 26 25 23 22 21 20 19 19 19 18 17
36 38 39 40 42 42 43 43 42 41 36 31 30 30 32 38 33 30 25 25 28 26 29 29 29 26 34 28 30 32 28 30 24 27 28 22 18 19 21 21 22 22 22 21 21 21 21 20 18 17 17 17 16 15
39 41 42 43 43 43 42 41 39 33 30 32 36 36 36 33 29 24 24 26 26 22 27 27 28 29 32 36 31 31 28 29 24 31 26 16 16 20 19 19 19 20 19 19 20 19 18 17 16 16 15 14 14 13
41 42 42 43 43 42 41 37 33 38 38 38 33 30 28 27 23 21 18 21 23 27 32 33 30 32 33 35 30 29 27 24 32 22 16 15 19 20 19 17 17 17 17 16 16 16 15 14 14 13 12 12 11 10
41 41 43 43 42 40 37 36 40 40 37 31 27 24 23 22 23 22 21 24 30 32 32 32 29 29 28 26 26 22 25 27 22 18 14 15 18 18 17 17 14 13 14 13 12 12 12 11 11 11 11 11 10 9
43 43 43 42 41 38 40 40 37 31 28 22 21 18 19 22 24 26 28 29 30 32 32 30 28 25 24 23 22 22 22 18 16 14 12 15 16 15 14 13 12 12 12 11 11 11 11 11 11 11 11 11 10 8
43 43 41 41 40 39 34 29 29 27 24 21 21 21 24 22 23 25 26 27 30 31 32 27 24 21 21 22 19 16 17 16 12 12 14 15 14 14 14 14 14 13 13 13 13 12 12 12 12 11 12 10 10 9
37 39 41 39 34 30 27 25 29 24 20 19 20 19 20 21 21 23 25 25 29 30 25 22 20 20 22 16 15 13 12 12 12 14 15 14 14 14 14 15 15 15 14 14 14 14 14 14 12 11 9 9 10 10
37 38 35 31 28 27 26 25 24 21 19 19 18 20 19 18 19 19 21 23 26 25 23 21 18 15 15 13 11 12 13 13 14 15 15 15 16 16 16 16 16 16 16 16 16 15 14 13 14 12 11 11 10 10
37 35 33 31 29 25 27 21 21 19 20 22 22 21 20 18 18 18 20 20 20 21 17 15 13 12 12 12 12 12 13 13 14 16 17 18 18 18 19 19 19 19 18 18 17 15 14 14 14 14 13 12 11 11
33 33 34 32 28 23 20 20 23 19 17 20 19 19 20 18 17 17 18 18 17 16 13 11 12 13 14 14 13 14 15 17 16 15 15 17 19 19 18 18 18 17 14 12 11 10 10 10 12 13 13 12 11 10
32 32 30 28 25 24 22 21 21 21 21 17 19 17 16 17 15 13 14 16 14 14 12 14 15 18 18 17 17 17 17 16 14 14 15 16 18 18 18 17 16 13 11 10 9 10 10 9 8 7 5 4 5 7
34 34 29 28 24 22 21 22 19 21 20 20 22 19 16 14 11 12 13 12 13 14 16 16 18 19 19 18 18 18 18 17 16 16 17 17 16 15 14 14 13 10 8 8 8 8 9 9 8 7 4 4 4 5
33 31 27 24 19 16 17 27 18 19 16 19 19 15 15 15 12 15 12 14 15 17 18 19 19 19 18 20 19 18 17 16 16 15 13 12 10 8 7 8 9 9 9 7 6 5 6 5 4 5 5 5 4 4
26 25 22 20 20 18 22 22 21 20 20 18 14 13 13 13 14 9 9 12 15 18 18 18 17 16 16 15 15 14 14 13 11 10 11 9 8 8 8 9 9 9 8 7 6 5 0 4 5 4 4 3 2 3
18 17 20 20 23 20 18 18 19 17 15 14 13 14 13 14 10 8 8 11 14 15 16 15 13 13 12 11 11 11 12 11 9 9 10 8 8 7 7 6 6 7 7 6 6 5 3 1 -1 -0 0 -0 -0 -2
14 16 18 19 20 17 18 15 15 13 13 13 13 16 16 9 7 7 10 12 13 15 15 12 10 11 11 11 9 8 9 10 9 8 9 9 7 4 4 3 4 5 4 3 4 5 4 2 1 2 3 3 1 -0
12 13 18 15 17 18 15 13 14 13 13 12 15 14 7 6 6 11 14 13 15 15 16 14 12 10 9 8 9 9 8 7 7 7 5 4 5 5 4 4 5 4 2 1 2 2 3 2 2 2 2 1 2 1
13 11 13 9 8 8 9 8 9 10 10 12 10 8 7 4 7 11 12 13 14 13 12 11 10 9 7 6 6 6 5 5 5 5 5 5 3 2 2 2 4 5 1 -0 0 -1 -1 -1 -1 -1 -2 -2 -2 -3
8 7 5 3 5 7 7 7 7 9 11 8 4 4 7 10 10 10 11 12 12 10 8 7 6 5 4 3 2 3 4 5 4 4 3 2 2 4 1 0 1 1 -1 3 4 2 1 2 2 1 0 -1 -1 -4
8 6 5 5 4 3 5 6 7 7 10 10 11 9 7 8 11 13 11 11 9 7 6 6 5 5 5 5 4 3 -0 -1 3 5 5 2 1 2 1 0 1 0 -4 -2 -0 -1 -1 -3 -4 -5 -5 -5 -6 -5
8 6 6 7 5 6 7 6 6 6 4 5 5 5 5 8 11 11 10 8 8 7 6 5 3 -0 -1 -2 -1 2 1 1 -2 -1 -1 -0 -1 -1 -1 -1 -2 -4 -5 -3 -2 -1 -1 -2 -4 -4 -4 -4 -6 -7
4 4 4 4 6 8 7 5 5 6 5 5 6 5 4 3 4 7 9 9 8 8 5 5 6 5 -0 -2 -4 -4 -2 -0 -1 -1 -1 -1 -1 -3 -4 -3 -4 -4 -4 -5 -5 -4 -4 -3 -4 -4 -5 -6 -8 -8
5 4 5 7 7 7 8 8 6 5 6 6 8 7 4 2 3 6 8 7 7 7 5 3 2 0 -1 -1 -0 -2 -4 -4 -4 -2 -5 -5 -6 -6 -9 -10 -10 -11 -9 -8 -8 -9 -10 -10 -10 -11 -10 -11 -12 -12

GFSWCAN_sfc_30mbdewp_072.txt.gz
Dewpoint
34 31 30 31 34 35 36 37 35 35 36 35 36 37 37 37 38 36 35 36 30 25 24 28 28 26 27 26 20 23 22 26 25 24 25 24 20 22 21 20 22 19 22 23 24 21 16 33 33 23 35 36 34 33
35 32 32 34 35 36 37 35 34 36 36 36 37 37 38 38 38 38 34 37 35 30 26 33 33 31 29 28 27 26 26 26 29 25 26 27 25 26 25 18 31 19 25 25 24 23 32 33 32 32 39 38 35 34
36 30 32 33 35 36 35 35 37 35 35 36 37 38 38 39 39 38 37 37 36 31 28 28 26 28 33 32 30 26 28 31 31 33 29 28 24 28 23 25 28 31 35 30 31 33 32 32 32 32 31 30 35 34
33 32 31 33 36 35 36 36 34 34 36 37 38 38 39 39 40 40 38 37 35 30 23 22 29 28 30 31 31 31 29 32 32 33 29 29 25 31 25 29 28 31 32 29 31 33 34 34 33 32 30 30 29 29
31 32 33 33 36 35 35 34 35 36 37 38 38 39 39 40 40 40 41 38 36 29 23 25 28 27 29 30 29 31 31 29 28 26 29 25 28 31 31 31 28 30 28 26 26 30 31 28 30 31 28 27 27 25
33 35 35 35 35 35 35 35 36 37 38 39 40 41 41 43 42 34 29 35 38 36 28 20 25 27 30 30 29 30 30 30 29 32 29 30 35 32 27 25 29 30 32 33 29 31 29 28 27 28 25 25 25 25
35 35 34 34 35 35 34 35 37 38 39 40 41 43 43 43 38 32 29 32 38 37 27 22 23 27 32 32 32 31 32 30 30 27 27 27 29 34 29 24 27 29 29 29 30 32 28 27 24 24 21 20 20 19
35 34 35 35 34 34 35 37 38 39 40 41 44 42 40 39 38 35 38 38 37 31 29 22 22 25 35 29 29 32 30 32 31 27 31 30 30 33 24 24 25 26 29 26 24 25 24 23 22 21 20 19 18 17
34 33 33 34 34 34 36 38 39 40 41 43 40 38 35 31 32 36 38 37 34 27 23 23 20 16 32 31 31 33 32 27 30 29 29 30 27 23 22 22 23 24 23 25 24 23 23 22 21 20 19 17 16 15
32 33 34 35 35 36 38 38 40 42 40 38 35 28 26 35 38 35 32 29 26 26 31 26 25 24 30 29 29 28 28 24 23 26 32 27 17 22 23 23 23 22 22 23 25 23 22 20 19 18 18 18 17 15
33 33 35 35 36 37 37 39 42 39 36 31 29 28 32 38 32 28 26 23 23 24 27 27 28 26 32 26 29 31 27 27 22 27 28 21 16 19 22 20 20 21 21 21 20 20 20 19 18 17 16 16 15 14
32 33 35 36 36 39 40 41 39 35 33 32 32 35 35 31 26 21 22 24 25 21 26 26 28 30 30 35 29 30 27 28 24 30 25 18 16 19 19 18 18 18 18 18 18 18 17 16 16 15 14 13 12 11
34 36 38 39 40 41 42 40 35 36 35 35 30 28 26 26 21 19 18 18 21 25 29 31 30 31 33 33 30 29 25 24 30 23 18 15 18 19 18 17 17 17 16 15 15 14 13 13 13 12 11 10 10 9
38 38 40 42 43 42 40 38 38 38 35 29 25 22 24 20 21 20 19 21 28 31 32 32 30 30 29 26 26 21 25 26 21 19 16 15 17 18 17 16 13 12 12 12 11 11 11 11 10 10 10 9 9 8
40 41 42 43 42 40 38 38 34 30 25 22 21 20 20 21 23 24 26 29 30 32 32 30 27 25 23 22 22 22 22 19 17 16 12 15 16 15 13 12 11 11 10 10 11 11 11 11 11 11 11 10 9 7
41 42 41 41 40 39 37 31 30 27 24 21 20 20 22 21 22 24 26 27 30 31 32 25 23 20 21 21 18 16 17 16 12 11 12 14 12 12 12 12 12 12 11 11 12 12 12 11 11 11 10 10 7 5
42 39 40 40 38 34 32 32 31 25 20 19 19 19 18 19 20 22 24 24 28 29 24 21 20 19 21 16 15 12 13 11 10 12 14 12 12 13 13 13 13 14 13 13 13 14 13 13 12 10 9 10 10 9
38 40 40 34 28 26 25 26 26 21 19 19 18 19 17 16 19 18 21 22 26 25 22 21 17 17 17 15 12 11 11 10 12 14 13 13 13 14 15 14 15 15 15 15 15 14 13 12 11 10 10 10 9 9
36 34 34 31 29 29 26 21 22 18 20 21 20 20 19 17 18 19 21 21 20 20 16 14 12 12 12 11 11 9 11 12 13 14 15 16 16 16 17 17 17 17 17 16 16 16 15 15 14 14 12 10 9 10
34 32 30 29 26 22 20 20 22 19 17 19 19 19 17 16 16 16 18 18 17 15 12 11 11 12 12 13 11 12 13 15 15 14 15 17 18 18 18 18 17 17 15 14 12 12 11 10 12 12 13 13 11 10
32 31 30 27 25 23 22 21 20 20 20 17 17 16 16 16 14 13 13 16 14 13 12 13 14 16 15 14 15 16 16 15 13 13 14 15 17 17 17 17 15 13 10 9 8 9 9 8 8 7 5 4 5 6
34 33 28 27 22 22 21 22 19 21 20 20 20 17 15 12 10 11 14 12 12 13 14 15 16 17 17 17 16 16 16 16 16 16 16 16 15 15 14 13 10 9 8 8 9 8 8 9 7 5 2 3 3 5
35 34 31 28 20 16 17 26 18 19 14 18 17 14 14 13 11 15 11 13 13 16 18 18 18 19 18 18 18 17 17 16 15 14 13 11 10 9 10 10 9 9 9 8 8 7 6 5 4 5 3 3 1 2
28 26 22 20 18 17 21 21 21 20 20 17 13 12 13 13 12 8 8 11 13 17 18 18 17 16 17 15 14 14 14 13 11 10 10 9 8 7 8 8 8 7 7 6 5 3 0 3 3 3 2 3 1 2
22 18 19 20 20 18 18 17 18 16 15 13 13 13 12 12 8 7 7 10 13 14 15 15 14 13 12 10 11 12 12 12 11 10 9 8 7 7 6 6 6 6 5 5 5 4 3 -0 -1 0 -0 -0 1 -1
16 17 17 18 19 17 16 15 14 13 12 12 12 15 13 8 6 5 8 10 12 13 13 12 12 12 11 11 10 10 10 10 8 7 8 8 6 3 3 3 3 4 2 3 3 4 3 1 1 2 2 2 -0 -1
13 14 16 15 16 16 13 12 12 12 11 13 14 12 8 7 6 9 12 11 14 13 12 12 12 11 10 9 9 8 7 7 7 6 4 5 4 4 3 3 4 4 1 1 1 3 3 2 2 1 1 -1 -2 -2
12 11 12 9 8 8 9 7 8 10 9 11 9 8 7 4 6 9 10 11 12 12 10 9 9 9 8 7 5 4 3 3 4 4 4 4 2 0 0 1 3 2 -1 -2 -1 -2 -1 -1 -1 -1 -1 -1 -1 -3
7 6 5 4 5 5 5 5 6 8 10 7 4 4 5 8 8 8 11 11 11 11 9 6 4 2 2 1 1 1 3 3 1 1 2 2 1 3 -1 -1 -0 -2 -3 1 1 -0 -1 -0 -1 -1 -2 -3 -5 -9
6 5 4 2 2 2 4 4 6 6 8 8 9 8 6 7 9 11 11 10 9 8 5 4 3 3 3 2 3 3 -1 -2 2 5 4 4 2 -0 -0 1 0 -2 -5 -2 -1 -1 -1 -4 -4 -6 -6 -6 -7 -7
6 5 5 3 3 5 6 5 5 5 4 4 4 3 4 7 9 10 8 6 6 5 4 3 2 -0 3 3 3 4 3 0 -4 -4 -3 -2 -2 -2 -2 -2 -5 -7 -6 -4 -3 -2 -3 -4 -5 -4 -4 -4 -6 -8
3 3 3 2 4 7 6 4 5 6 6 5 5 2 2 3 4 6 7 6 6 6 4 4 5 2 -4 -7 -8 -8 -3 -1 -3 -3 -1 -1 -2 -5 -6 -7 -8 -7 -6 -6 -7 -5 -5 -5 -5 -6 -8 -10 -11 -11
4 3 3 5 6 5 6 5 4 5 6 6 7 4 1 1 3 5 6 5 7 6 4 2 0 -2 -2 -2 -1 -3 -3 -5 -6 -3 -4 -4 -5 -7 -11 -12 -12 -12 -9 -9 -10 -11 -11 -11 -12 -12 -12 -12 -12 -13

GFSWCAN_sfc_30mbdewp_075.txt.gz
Dewpoint
35 35 35 32 31 32 34 35 36 36 37 35 35 36 37 37 37 36 34 35 29 25 24 26 29 25 27 26 21 22 20 24 25 22 24 24 23 24 21 22 23 19 22 23 22 19 15 32 33 25 33 36 33 32
38 35 34 32 31 33 34 36 37 37 36 36 36 37 38 38 38 37 33 36 34 29 25 31 30 30 28 28 26 26 24 24 27 25 24 25 25 26 25 16 29 20 27 25 24 23 32 32 32 32 37 36 34 33
36 37 34 32 32 33 36 36 37 36 36 36 36 37 37 38 38 38 37 37 35 31 29 29 26 27 33 32 31 26 27 30 31 33 28 28 24 28 23 25 27 29 34 30 30 32 32 33 32 31 32 32 32 32
35 35 38 32 32 34 35 35 36 36 37 35 35 36 37 38 39 39 37 37 34 31 23 21 28 27 30 31 31 29 26 32 32 31 27 28 25 30 24 28 27 30 31 28 30 31 31 30 30 30 29 29 29 29
36 36 34 33 33 35 34 36 36 36 34 34 36 37 38 38 39 39 40 38 36 29 23 23 28 28 30 30 31 31 30 29 28 26 26 26 28 30 30 31 26 29 27 26 24 28 28 26 28 29 27 26 27 25
37 35 34 33 34 35 35 36 35 34 34 36 37 37 38 39 40 39 32 36 38 36 29 23 28 27 29 30 29 30 30 30 29 29 29 30 33 32 26 25 28 29 29 30 27 28 26 26 26 27 24 24 24 23
33 32 32 33 34 36 36 35 35 35 36 37 37 39 40 41 41 32 30 32 39 37 29 23 21 27 32 31 31 30 32 31 30 29 27 26 25 29 29 25 25 28 28 28 30 29 25 27 22 23 21 20 20 19
32 33 35 36 36 35 35 35 35 35 36 38 39 39 41 40 38 35 37 39 38 32 30 21 20 23 33 29 29 31 30 31 31 28 30 30 30 32 24 24 25 26 28 26 26 27 25 23 21 20 19 17 16 16
32 35 36 36 36 36 35 34 35 36 38 39 40 38 36 33 33 35 39 38 35 28 23 22 18 15 32 29 31 32 32 27 29 28 27 29 26 24 22 23 22 23 23 25 25 24 23 21 21 19 17 16 15 15
34 35 35 35 35 35 34 34 35 37 38 40 35 29 29 35 39 39 34 29 25 26 29 22 24 22 29 28 28 28 28 24 21 24 31 28 21 22 22 22 21 21 21 23 24 23 21 19 18 18 17 16 15 14
35 35 34 33 33 33 34 35 38 39 39 34 30 28 36 37 31 28 24 20 21 21 25 25 26 25 31 26 27 28 25 24 19 25 24 21 18 19 20 19 19 20 20 20 19 20 21 19 18 16 15 15 14 13
33 32 32 32 34 34 35 37 40 38 35 31 34 37 37 30 24 20 21 24 22 20 26 26 27 29 31 32 29 29 26 26 23 29 25 19 16 19 18 17 17 18 17 17 17 17 17 16 16 15 14 13 12 11
32 32 33 33 35 35 36 39 40 37 35 33 29 28 25 25 20 17 16 18 19 23 26 29 28 31 32 33 30 29 25 24 30 24 19 15 17 18 17 16 15 15 15 15 14 13 13 13 13 12 11 11 10 9
34 33 33 35 35 36 39 40 39 36 33 26 23 19 20 19 20 17 19 19 24 30 31 31 30 30 31 28 27 23 25 27 20 19 16 15 17 17 16 15 12 12 13 12 12 12 11 11 10 10 10 10 9 8
35 35 36 38 39 39 40 38 37 30 25 23 22 17 21 21 23 22 23 27 29 31 32 29 27 27 24 22 22 22 21 19 18 17 13 16 16 15 13 12 11 10 10 11 11 11 11 11 10 10 11 11 9 7
38 38 38 40 41 39 38 34 29 26 24 20 20 19 21 22 22 24 25 27 28 30 30 27 23 21 21 20 19 17 17 16 14 12 12 14 12 11 11 11 10 10 10 11 12 12 11 11 10 10 9 7 6 5
39 39 42 40 40 38 35 31 26 22 20 18 18 17 18 17 19 21 22 23 25 29 24 21 20 19 20 17 16 13 15 12 11 11 13 12 12 11 11 12 12 12 12 13 13 13 13 12 12 10 10 11 10 9
39 40 40 39 33 27 25 29 24 20 18 19 18 17 17 16 19 19 20 21 25 25 22 21 19 19 18 17 14 11 11 10 11 13 13 12 12 12 13 13 14 14 14 14 14 14 12 13 11 10 10 10 10 9
39 39 38 34 30 27 22 24 24 17 19 20 19 19 17 17 19 18 20 21 20 20 16 14 13 14 13 11 11 9 11 12 13 13 14 13 14 14 14 15 15 16 15 15 15 14 14 15 15 13 11 10 9 9
35 33 31 28 25 22 20 20 22 18 17 19 19 18 16 16 16 15 18 19 17 16 14 12 12 12 12 13 11 13 12 15 15 14 14 16 17 16 16 16 16 17 16 16 15 13 12 11 11 12 13 13 12 11
30 31 28 25 23 22 22 21 20 20 19 16 16 16 16 15 13 13 13 16 15 13 12 12 14 15 13 12 13 15 16 15 14 13 14 15 17 17 17 17 17 15 12 11 10 9 9 9 8 7 6 5 6 7
33 32 26 24 21 21 21 22 19 20 19 19 19 16 14 12 10 11 13 12 11 13 13 14 15 16 16 15 16 16 16 15 15 15 16 16 15 15 15 14 12 10 9 9 10 10 9 9 8 6 5 5 4 6
35 32 29 26 16 16 18 25 17 17 14 17 16 14 14 12 12 14 10 12 12 15 16 17 18 18 17 17 17 17 16 16 15 15 14 13 12 12 12 12 11 10 10 9 9 8 8 5 5 6 5 5 4 6
28 26 25 22 18 16 20 20 21 19 19 15 12 11 13 12 11 7 7 10 13 16 17 17 17 16 16 15 14 14 14 13 11 11 11 10 9 8 9 9 8 8 8 7 6 5 3 4 3 4 3 4 3 3
25 20 22 19 19 17 16 17 17 15 14 13 13 12 12 11 7 6 7 10 13 14 15 17 16 14 12 11 11 13 13 13 12 10 9 8 8 7 7 6 6 6 5 6 6 6 4 2 2 3 2 1 2 2
17 16 18 17 18 16 15 14 14 13 12 11 11 13 10 9 7 5 7 10 12 12 13 14 13 13 12 12 12 12 11 11 9 9 8 8 7 5 4 4 5 5 3 4 4 4 4 2 2 3 3 3 -1 -0
13 13 15 15 16 14 12 11 11 11 11 12 12 11 9 8 6 8 10 10 13 12 13 13 13 13 11 10 9 8 7 8 8 7 6 5 4 4 4 4 4 5 2 2 2 3 3 2 2 1 1 -0 -1 -1
11 11 12 9 8 6 9 7 9 10 9 11 10 10 9 6 6 8 9 10 10 11 10 9 9 10 9 7 5 4 3 3 3 4 4 3 1 1 1 2 2 1 1 -0 0 -1 -0 -0 0 0 -0 0 -0 -3
6 6 7 6 5 4 4 4 5 7 9 7 5 4 4 6 7 7 10 11 10 9 8 7 4 3 2 1 0 2 3 3 -0 -1 2 1 1 3 -1 -0 0 -1 -1 2 1 0 0 1 0 -1 -2 -3 -4 -8
5 5 3 2 1 2 3 4 5 5 7 7 8 7 5 6 8 10 10 11 10 8 6 5 3 5 4 4 3 2 -1 -1 3 4 3 4 4 1 0 1 1 -2 -3 -1 0 0 0 -2 -3 -5 -4 -4 -5 -5
5 4 3 2 2 4 5 5 4 5 4 4 2 3 4 6 8 8 7 6 5 5 4 3 1 1 2 2 2 3 4 0 -4 -3 -3 -2 -1 -1 -1 -3 -5 -5 -4 -2 -2 -2 -2 -3 -4 -4 -4 -4 -7 -10
2 2 1 1 3 6 5 4 5 5 6 5 4 0 1 3 5 5 5 6 6 6 4 3 3 2 -0 -2 -3 -4 -2 -1 -2 -2 -1 -1 -2 -5 -6 -6 -8 -6 -5 -5 -5 -5 -6 -7 -8 -10 -10 -10 -11 -11
2 1 1 4 5 4 5 3 3 5 5 6 5 2 -0 1 4 5 4 4 7 6 4 1 -3 -3 -4 -2 -2 -3 -4 -5 -6 -4 -5 -4 -5 -7 -9 -10 -10 -9 -8 -7 -8 -10 -10 -11 -10 -11 -11 -11 -12 -12

GFSWCAN_sfc_30mbdewp_078.txt.gz
Dewpoint
38 38 36 36 36 35 34 34 35 37 37 37 37 38 38 38 38 36 32 35 28 25 22 24 24 22 22 23 20 21 21 24 22 21 21 22 24 22 18 17 18 18 19 20 19 17 14 32 31 26 33 36 34 32
38 37 37 37 35 34 34 34 36 36 37 37 36 36 36 37 38 37 32 36 34 29 24 30 28 27 25 25 24 22 23 24 25 24 23 24 25 24 23 15 24 21 28 25 23 26 32 33 32 33 35 35 34 32
39 38 37 36 35 33 33 35 35 37 36 36 37 37 37 38 38 37 33 35 35 31 27 26 25 27 30 28 27 25 24 26 31 34 28 27 25 26 22 24 24 28 31 28 30 28 30 32 31 31 32 31 30 30
38 39 37 36 34 34 35 35 35 35 35 37 37 36 37 38 38 38 36 36 33 31 24 22 27 27 28 29 29 28 25 24 28 28 26 25 25 27 25 28 27 29 30 28 28 28 30 29 30 29 30 29 29 30
36 37 38 36 35 35 35 36 36 36 36 37 36 35 36 37 38 38 39 37 34 27 24 24 27 28 28 30 30 30 29 28 26 24 26 24 25 28 32 29 26 29 26 26 26 29 28 26 29 29 28 28 29 27
35 35 37 37 35 34 36 37 36 36 37 35 34 35 37 38 38 38 33 39 38 35 30 23 27 26 28 32 29 30 30 30 28 26 26 29 29 27 23 26 28 29 29 30 27 29 27 27 27 27 26 25 25 25
36 36 36 36 35 35 36 37 36 36 35 35 35 37 37 38 38 34 32 35 40 38 30 25 24 26 31 30 31 30 31 30 28 27 26 24 23 26 28 26 27 28 28 29 30 30 26 27 24 24 22 21 20 20
36 36 35 35 34 34 36 36 36 35 35 36 36 37 38 40 39 34 37 39 38 32 32 25 21 24 32 28 27 31 29 30 30 27 27 25 24 28 26 25 26 28 28 27 28 29 26 25 23 20 19 18 18 17
35 35 35 35 35 35 36 36 36 35 35 36 38 40 37 36 33 35 39 38 38 33 26 22 19 19 33 29 30 31 30 26 27 27 25 25 22 23 24 24 23 24 25 26 27 24 22 21 19 18 18 17 16 16
33 34 35 36 35 36 37 36 35 35 37 38 37 33 30 35 39 37 35 32 31 28 28 22 23 24 29 27 26 27 31 24 21 22 28 24 24 23 22 22 23 22 24 27 24 22 21 20 19 18 17 16 16 15
32 33 35 35 36 36 36 34 35 36 39 35 31 30 36 38 34 28 25 23 24 21 23 24 24 24 30 26 26 28 24 24 18 21 23 23 22 20 20 19 20 20 19 20 21 22 21 20 18 17 16 16 15 15
32 34 35 35 35 34 34 34 35 37 35 35 36 37 36 31 26 22 19 21 20 15 25 24 25 26 29 30 28 29 24 25 21 29 25 21 18 19 18 18 17 18 18 18 18 18 18 18 18 16 16 15 14 14
34 35 35 34 33 33 34 36 39 38 38 35 32 30 27 25 21 17 16 18 19 22 28 29 27 30 31 32 29 29 25 26 31 27 23 19 18 18 17 16 16 16 16 16 16 16 16 16 16 15 14 14 13 12
34 34 33 33 34 35 36 37 39 38 34 29 24 21 22 20 21 21 21 23 29 30 31 31 30 29 31 28 29 25 28 29 24 21 21 18 17 18 17 16 15 15 15 15 14 14 13 13 12 13 12 12 11 10
33 34 34 34 35 36 37 39 39 36 30 26 23 18 22 25 27 27 29 28 30 31 31 30 30 31 29 27 27 26 24 22 22 22 20 18 18 17 15 15 14 13 13 14 14 13 13 13 12 12 13 13 10 9
34 34 34 35 36 36 39 39 36 29 25 23 24 22 23 24 24 27 28 28 30 30 32 32 27 26 24 24 22 21 20 20 21 19 18 17 16 15 14 14 14 14 14 14 14 14 13 13 13 12 10 10 9 8
34 35 37 37 38 39 39 33 28 23 22 22 21 23 24 24 25 25 26 27 29 30 29 26 23 22 23 20 19 19 22 20 18 18 18 17 15 14 13 13 13 14 14 14 14 14 14 13 12 11 10 10 9 9
35 37 39 39 37 34 33 29 23 21 20 22 21 22 22 22 24 25 25 25 28 28 25 25 24 23 22 20 21 19 17 16 18 18 16 16 15 14 15 15 15 15 15 15 14 13 13 12 11 11 11 10 9 9
39 39 38 37 33 28 27 25 22 19 21 21 21 21 22 22 22 23 23 23 21 21 21 19 21 21 21 19 18 18 17 17 16 16 16 16 16 15 16 16 16 16 16 15 14 13 14 15 14 12 11 10 9 10
39 37 35 30 27 22 21 21 22 19 20 21 22 21 21 21 21 23 24 21 19 20 20 19 19 19 19 18 18 18 18 18 16 15 15 16 17 17 17 17 16 17 16 16 15 14 12 11 10 10 11 11 11 11
35 30 28 25 23 22 21 20 20 20 21 19 19 19 19 19 20 21 21 19 21 17 18 17 19 18 18 17 19 19 19 17 17 16 15 16 17 17 17 17 17 16 14 14 13 11 11 10 9 8 10 10 9 9
32 31 27 24 21 22 20 21 19 20 19 19 19 17 18 19 19 19 15 18 17 17 18 18 18 17 16 17 18 18 18 18 17 17 17 17 16 16 16 16 15 15 14 14 13 13 12 9 10 9 9 9 8 8
33 32 28 24 19 19 18 25 19 17 17 18 17 16 16 16 15 14 16 15 16 17 18 18 19 18 18 18 18 17 17 16 16 17 17 17 17 18 16 15 15 15 14 12 11 10 9 7 8 9 9 8 8 7
28 26 25 22 20 18 23 21 19 18 17 16 15 14 15 15 13 12 13 14 16 18 18 18 18 17 17 17 16 16 17 17 17 18 17 15 15 14 14 13 12 12 11 10 9 9 8 9 6 7 8 7 7 6
27 22 23 19 20 19 17 18 18 16 15 16 14 14 15 14 12 11 11 14 15 17 18 18 18 17 17 17 16 16 16 16 15 14 15 14 12 10 10 9 9 9 9 11 10 10 9 9 9 8 7 6 5 5
19 18 19 19 19 17 16 15 16 15 15 14 14 15 15 14 12 11 10 14 15 17 18 18 18 16 15 15 15 15 14 14 14 14 11 10 10 11 10 9 9 10 9 10 10 8 7 6 6 6 5 5 3 3
16 15 16 16 18 17 16 16 16 15 14 14 15 14 14 12 11 11 13 14 16 18 19 19 18 17 15 13 12 12 11 12 12 10 10 8 8 8 10 10 9 10 8 7 7 5 5 4 4 4 3 3 3 3
14 15 14 13 12 11 12 12 13 14 13 13 14 13 13 12 10 11 12 14 16 18 15 14 15 15 14 12 11 10 9 9 9 8 8 7 7 7 7 8 7 5 6 6 6 5 4 4 3 3 3 2 2 2
11 11 11 8 9 8 8 9 10 10 10 12 13 9 8 8 9 10 12 14 15 15 14 12 10 9 8 7 9 10 10 8 5 2 4 6 6 6 5 6 6 6 6 6 4 4 5 4 4 2 2 1 1 1
9 9 7 5 6 7 7 8 9 9 9 10 9 7 7 8 10 12 13 14 15 15 14 12 10 10 9 9 6 5 6 7 9 8 6 6 8 8 6 6 5 4 4 4 4 3 3 2 2 2 0 0 0 -0
8 8 6 5 5 7 8 8 9 9 9 9 8 9 8 9 10 10 10 12 11 10 10 9 9 10 10 9 9 7 6 6 3 4 6 6 6 6 5 4 3 3 3 2 2 2 1 0 0 -1 -2 -3 -5 -5
7 6 4 4 5 8 9 9 9 8 9 9 8 7 7 9 8 9 8 10 11 11 10 10 9 8 8 7 6 5 5 4 3 3 4 4 4 3 2 2 1 1 0 -1 -1 -1 -3 -4 -4 -5 -5 -5 -6 -6
5 6 6 6 6 6 7 7 6 6 7 7 8 7 6 8 8 8 7 8 11 12 10 9 7 5 3 4 4 3 2 2 2 2 1 1 1 1 -0 -1 -1 -1 -1 -1 -1 -3 -5 -6 -5 -6 -6 -6 -6 -6

GFSWCAN_sfc_30mbdewp_081.txt.gz
Dewpoint
40 40 40 38 37 37 36 37 35 36 38 38 38 38 38 38 39 36 33 32 29 26 21 22 21 19 19 19 18 21 20 25 22 21 21 23 21 22 17 14 17 17 15 17 18 16 16 31 28 27 33 35 34 32
39 39 38 37 38 38 37 36 36 37 37 38 38 38 38 38 38 38 34 32 31 30 27 28 28 27 24 22 21 21 21 22 24 23 21 25 25 24 23 17 23 23 29 29 28 27 32 31 31 33 34 34 33 31
38 39 38 38 38 37 37 36 36 36 37 38 38 37 37 37 38 38 34 34 33 30 27 25 23 26 28 28 27 23 21 23 29 33 30 25 25 26 22 26 27 28 27 28 29 28 29 31 31 31 31 30 29 28
38 39 38 38 37 36 35 35 36 36 36 37 37 37 37 38 38 38 33 35 31 29 24 23 26 25 26 27 27 27 27 27 24 23 25 25 24 26 25 27 27 27 28 27 28 29 29 29 31 32 30 30 30 30
37 37 39 37 37 35 35 36 36 35 36 36 37 37 37 37 38 38 38 36 33 28 27 27 26 24 26 27 27 27 27 26 24 25 25 25 25 30 27 27 26 27 26 26 26 29 28 27 30 32 30 29 31 28
36 37 39 37 36 36 37 37 36 36 37 36 37 36 36 36 38 36 33 39 39 36 31 22 28 26 26 27 27 26 27 27 28 26 26 26 29 25 20 26 28 29 29 31 28 30 29 29 30 31 28 27 28 27
35 36 37 38 36 36 37 38 36 37 37 36 36 35 35 37 37 35 32 36 40 38 30 26 21 26 26 27 28 27 29 28 28 27 23 24 24 24 25 26 28 28 29 30 31 32 29 30 27 27 24 23 22 21
35 36 37 37 36 36 37 38 37 37 36 36 35 35 37 38 39 36 39 39 39 33 32 26 21 24 28 25 25 27 28 29 29 26 26 24 24 24 25 27 27 29 30 29 30 32 29 28 24 22 21 20 19 19
35 37 37 37 36 36 36 37 37 36 35 35 36 37 39 37 33 36 39 40 38 35 28 24 20 20 31 27 28 29 28 24 23 25 24 24 23 22 26 26 25 26 26 28 29 27 23 22 20 19 19 18 18 18
35 37 37 36 36 35 35 37 37 36 36 36 37 32 29 33 40 38 35 31 31 33 30 23 21 22 27 27 27 25 27 22 22 24 25 23 24 24 23 24 24 24 28 30 26 22 22 21 20 19 18 18 18 17
35 36 36 36 36 36 36 36 36 35 36 35 32 31 37 38 35 34 27 26 25 24 23 23 22 22 28 25 24 25 24 24 18 20 22 23 24 22 21 21 21 21 21 22 23 23 23 21 20 18 17 17 17 18
34 34 34 35 36 36 36 36 36 36 35 35 36 38 37 34 28 23 20 20 19 13 19 22 23 22 26 27 27 26 22 23 19 29 24 22 21 21 19 19 19 20 20 19 20 19 19 19 19 18 17 16 16 15
33 34 35 36 36 35 36 35 36 36 39 37 34 31 28 25 22 19 15 17 18 21 28 28 25 25 27 26 28 28 25 23 31 27 24 22 20 19 18 18 18 17 17 17 17 18 17 17 18 16 15 15 15 14
33 34 35 36 36 35 35 35 37 36 37 31 27 23 23 21 21 21 20 22 31 31 29 29 28 29 31 29 30 26 30 31 24 22 23 21 19 19 19 17 17 17 17 17 16 16 15 15 14 15 14 14 13 12
35 36 36 35 35 35 36 37 39 38 35 30 23 20 23 28 29 30 31 29 30 33 33 31 31 32 29 29 29 28 26 24 24 24 22 21 20 18 18 17 16 15 16 15 15 15 15 15 15 14 15 14 11 10
35 35 32 35 35 36 37 38 36 33 27 26 26 24 26 25 25 28 30 30 32 32 33 33 29 28 27 26 23 22 21 21 23 22 21 20 18 17 17 16 16 17 16 16 16 16 15 15 15 14 12 11 11 10
34 26 33 35 36 37 38 36 34 25 25 25 24 26 27 28 28 29 30 30 31 31 29 31 26 26 26 22 21 22 24 24 21 21 22 19 18 16 16 16 16 16 16 16 16 16 15 14 13 11 11 11 10 11
27 33 35 36 37 37 35 33 26 23 23 24 23 24 25 26 28 28 30 30 30 31 28 28 26 25 24 21 23 23 21 22 21 20 19 18 17 17 17 17 17 17 17 17 15 14 13 13 12 12 11 11 10 9
31 35 37 38 37 35 32 28 23 22 23 23 23 23 24 24 26 26 27 28 27 25 25 24 26 23 25 25 24 22 21 20 19 18 18 18 17 17 17 17 18 18 16 15 14 16 15 16 14 11 10 9 9 10
36 37 38 37 33 27 24 23 23 22 22 23 24 23 24 24 24 26 27 24 23 23 24 24 25 25 24 23 24 22 21 20 18 16 17 17 17 18 17 17 17 17 17 17 16 14 12 11 10 10 10 9 10 12
37 37 35 32 25 24 22 21 21 22 22 22 23 23 23 24 24 24 25 23 25 24 24 24 23 21 22 23 23 22 21 19 19 18 17 17 17 18 18 21 18 18 18 17 17 13 12 11 9 8 11 11 11 10
34 33 28 25 23 23 21 21 21 21 21 21 22 20 21 22 23 23 21 24 23 22 23 22 22 20 20 20 20 20 21 21 21 19 19 18 18 18 18 18 17 18 17 17 13 14 12 9 9 9 10 11 8 9
32 32 29 24 23 23 20 24 21 19 20 20 20 19 20 21 20 18 20 21 22 20 20 20 20 19 20 20 19 18 18 18 18 18 19 20 20 21 19 18 18 17 14 12 10 11 11 7 8 9 9 9 9 9
29 28 27 25 23 21 23 21 19 18 19 18 18 18 18 19 17 17 19 19 20 19 19 19 19 18 18 17 17 17 18 19 19 20 18 17 16 16 16 14 14 13 12 10 9 10 9 10 8 8 8 8 8 7
26 23 26 22 22 21 20 19 19 18 18 18 17 17 18 17 18 18 17 19 18 19 19 19 18 18 18 18 18 18 18 17 17 17 17 17 15 13 12 10 10 10 11 12 11 11 10 10 9 8 7 7 6 5
22 22 22 22 21 20 19 18 18 18 18 18 18 17 18 18 17 17 14 19 19 20 20 20 20 20 18 17 17 16 16 16 16 16 13 13 13 14 12 10 10 12 11 12 12 10 8 7 6 5 5 5 5 4
20 20 19 18 21 20 20 20 19 18 17 17 18 18 17 15 16 16 15 20 19 22 21 22 20 18 17 17 17 16 15 16 16 14 13 11 11 12 13 12 10 14 11 10 9 8 7 5 5 4 4 4 4 4
18 19 18 18 18 18 18 18 18 17 18 17 18 16 16 16 16 15 16 17 23 22 22 23 23 19 18 16 16 15 14 13 13 12 12 11 12 12 12 11 10 8 9 8 8 6 6 5 5 4 4 3 3 3
16 17 16 13 15 15 16 16 17 15 14 16 17 16 14 12 12 14 16 17 20 18 17 16 16 17 16 15 15 15 15 13 11 8 6 9 9 9 9 9 8 8 7 7 6 5 5 5 4 4 2 3 3 3
14 16 14 12 12 14 14 14 14 13 12 14 13 10 10 12 12 14 16 17 19 20 19 17 16 15 14 14 13 13 13 13 13 9 8 8 11 10 9 8 7 6 6 6 5 4 3 4 4 5 3 2 2 2
13 14 13 12 11 12 12 12 12 12 13 13 13 15 12 12 13 13 16 17 17 17 16 16 16 16 15 13 12 11 10 10 9 10 11 10 10 9 8 6 6 6 5 4 3 3 2 2 2 1 0 -1 -2 -2
13 12 10 9 10 10 12 13 12 12 12 13 11 11 11 13 11 12 13 16 17 16 16 15 15 15 16 15 12 12 12 9 8 8 7 8 7 6 5 4 4 3 2 1 1 1 -1 -2 -1 -1 -1 -1 -1 -2
10 10 11 10 9 9 10 11 10 10 11 11 11 12 13 14 10 11 11 13 17 16 16 15 13 11 10 10 9 8 7 7 5 5 5 5 4 4 4 4 3 3 2 2 1 0 -1 -2 -2 -2 -2 -2 -3 -3

GFSWCAN_sfc_30mbdewp_084.txt.gz
Dewpoint
40 40 41 41 39 38 37 38 38 37 37 39 39 39 38 39 39 36 34 32 31 27 24 21 21 18 20 19 19 22 20 25 21 21 23 20 21 23 26 21 15 17 20 21 22 24 21 30 29 27 31 33 31 29
40 40 41 40 38 39 38 38 38 37 38 37 38 39 38 38 39 38 34 33 31 27 29 28 28 27 26 24 22 20 20 20 27 25 22 24 21 28 27 22 26 25 29 27 26 24 32 30 31 31 31 31 30 29
39 41 41 39 39 38 38 38 37 38 38 37 38 38 38 38 38 38 38 34 31 29 29 27 24 28 28 28 27 23 24 28 27 31 30 24 23 27 24 26 28 28 28 29 29 28 28 30 30 30 30 29 29 29
38 39 39 38 39 39 38 37 36 36 36 37 39 38 37 37 38 38 34 36 30 29 26 27 26 24 26 27 27 27 26 27 25 22 25 23 23 28 26 28 28 27 26 27 28 30 29 27 31 30 31 30 30 30
38 38 38 38 39 38 37 36 36 36 37 37 37 37 37 38 38 36 35 37 36 31 29 27 28 24 25 27 27 26 26 24 23 23 23 22 22 30 27 30 25 28 26 24 25 29 28 27 30 29 29 30 31 28
37 38 39 38 38 37 36 36 35 36 37 37 36 37 37 37 38 35 32 37 37 34 31 25 27 26 26 26 26 26 26 27 27 26 24 24 24 31 21 25 29 28 29 29 27 31 29 30 31 32 29 28 29 28
36 38 37 38 38 37 37 36 35 35 36 37 37 37 36 36 34 34 33 37 41 39 31 26 22 24 24 25 27 29 27 26 25 26 23 23 22 27 25 25 27 27 28 31 31 31 29 30 28 31 28 26 23 21
35 37 37 40 38 37 38 37 36 37 36 37 36 35 35 37 36 34 37 41 40 34 32 26 21 25 28 24 25 32 28 27 28 26 25 25 24 25 25 26 26 28 30 30 30 32 30 30 26 24 23 21 20 19
35 36 37 38 37 37 38 38 37 36 37 36 35 35 36 34 33 35 39 40 40 35 28 24 20 21 30 27 27 28 28 25 26 28 25 23 25 24 27 26 25 27 28 29 30 32 28 24 21 20 20 20 19 19
35 36 37 38 37 37 37 37 37 37 36 36 35 33 29 34 40 38 36 31 31 32 33 27 23 23 26 26 27 26 27 23 22 24 25 24 25 25 24 24 24 25 28 31 29 28 25 21 20 20 19 19 20 18
34 36 37 38 37 37 37 37 36 36 36 33 32 30 38 40 36 33 29 27 26 27 25 23 23 24 26 25 24 24 24 25 21 24 23 23 24 23 22 22 23 22 22 22 23 24 24 23 21 19 19 18 17 16
34 35 36 37 37 37 36 37 36 32 32 33 36 38 36 32 31 26 23 22 24 17 20 23 23 22 27 28 28 28 23 23 18 29 23 20 22 21 20 20 21 21 21 20 21 21 20 20 20 19 17 16 16 16
34 36 36 37 36 35 36 36 35 35 38 38 35 32 30 28 23 19 17 17 17 19 26 25 24 24 27 26 28 27 24 22 32 27 25 23 22 20 20 19 19 18 18 18 20 19 19 18 18 16 16 17 16 15
36 36 36 37 36 36 36 36 37 38 36 32 29 24 25 22 21 20 21 22 31 31 28 30 27 27 30 29 29 25 28 30 25 22 23 21 21 22 20 19 18 19 19 18 17 17 16 16 16 16 16 16 14 12
35 36 37 36 36 36 36 36 37 36 32 30 28 22 23 29 30 31 32 31 30 33 32 31 31 30 28 28 29 27 25 23 25 23 23 23 22 20 19 18 18 17 18 17 17 16 16 17 16 16 16 14 12 10
35 35 33 36 36 36 36 37 36 35 33 29 27 25 27 26 26 26 29 31 31 32 33 33 30 28 27 26 26 23 22 22 23 22 23 21 20 20 19 18 18 19 19 18 17 17 17 18 16 14 13 13 12 11
34 31 35 36 36 37 37 35 34 31 30 27 26 28 30 30 29 30 32 32 33 32 28 30 27 27 30 24 22 24 25 24 23 23 23 21 19 19 19 19 19 19 19 18 18 18 16 15 14 13 13 12 12 12
28 34 36 36 37 36 34 35 32 28 24 25 25 26 26 29 29 30 30 31 32 31 31 30 28 25 24 22 26 25 23 24 23 22 21 20 18 18 18 18 20 19 19 19 16 15 15 15 13 13 12 11 10 10
33 34 37 37 35 35 32 31 28 23 25 25 26 25 26 27 28 29 29 30 30 29 28 27 25 24 27 26 26 24 23 22 20 20 20 20 20 20 20 20 19 19 18 15 15 17 16 15 15 12 11 11 10 13
35 36 38 37 38 33 26 26 26 24 23 25 26 24 26 27 26 28 29 29 27 26 26 25 27 26 26 25 27 25 24 23 19 17 18 19 19 19 18 18 18 18 17 18 16 14 13 12 10 10 12 10 12 16
36 37 37 37 34 27 24 23 22 24 23 24 25 24 25 25 26 27 27 26 26 28 28 26 25 24 26 27 26 25 24 21 20 18 17 17 19 18 18 22 18 17 18 17 18 15 10 13 11 10 12 13 13 12
36 37 35 36 30 24 23 23 24 24 22 23 23 23 24 23 24 25 25 24 27 26 26 25 23 22 22 22 22 22 24 24 23 20 19 19 19 18 21 18 19 19 21 19 16 17 15 12 12 10 11 16 10 11
37 35 31 28 27 25 22 24 22 22 21 22 22 21 21 21 23 21 20 24 24 24 23 23 21 22 23 23 21 20 21 20 20 20 20 20 20 22 21 20 23 20 17 13 11 12 15 7 9 11 11 11 11 11
33 32 30 28 25 23 24 22 20 19 21 20 20 19 19 21 20 19 20 22 23 23 23 22 21 20 19 19 18 19 21 22 21 24 22 20 19 19 19 16 15 16 14 13 11 11 11 13 10 10 11 9 9 10
29 25 28 23 24 23 21 20 20 20 20 20 19 18 20 19 18 18 18 22 20 21 22 22 21 20 20 20 21 23 22 19 19 20 20 20 18 15 14 12 12 12 12 13 13 12 13 13 11 10 9 8 8 8
23 24 24 23 23 22 21 20 19 19 19 19 19 21 20 19 18 18 20 22 20 22 22 23 22 22 23 20 18 17 18 20 19 18 17 16 16 17 14 11 12 13 13 14 13 12 11 10 8 7 6 6 7 6
22 21 22 21 23 21 23 23 21 20 19 18 20 19 18 17 17 19 19 23 23 24 23 26 26 23 20 19 19 19 19 19 18 16 14 14 15 17 17 15 15 14 13 12 10 9 9 8 6 6 6 5 6 7
22 21 19 20 21 22 20 20 19 19 19 20 20 17 17 19 18 19 19 21 27 26 27 27 28 26 20 20 18 17 17 16 15 15 14 13 13 13 13 12 11 9 10 10 9 8 8 7 6 6 5 5 5 5
19 20 20 18 19 19 20 19 20 19 17 18 21 20 17 15 16 17 16 20 23 21 20 19 20 20 20 19 19 17 16 15 13 12 11 11 10 10 12 11 10 10 10 9 5 7 6 6 6 4 3 4 4 5
17 20 18 16 16 17 18 18 19 17 15 18 16 12 13 14 15 15 17 18 19 20 20 18 19 18 17 17 17 17 18 17 16 12 10 12 13 12 11 10 9 8 8 8 7 7 5 6 5 7 6 4 3 3
17 18 17 16 15 16 16 16 15 15 16 16 16 19 15 13 14 16 21 22 24 22 19 18 19 19 18 15 14 13 11 12 12 13 14 13 12 11 10 9 8 8 6 6 5 5 2 2 3 3 2 1 1 1
17 17 14 13 13 13 14 15 14 15 14 14 14 15 13 14 12 13 15 19 19 19 20 19 19 19 18 16 15 14 13 11 11 11 10 11 9 8 7 6 6 6 4 4 4 3 1 1 1 1 1 0 -0 -1
13 14 15 13 11 11 13 14 12 13 14 14 15 13 14 17 13 13 15 16 20 19 20 19 16 15 14 13 12 11 10 9 9 8 7 7 7 7 6 6 6 4 4 4 3 2 2 0 -0 -1 -1 -1 -2 -4

GFSWCAN_sfc_30mbdewp_087.txt.gz
Dewpoint
40 40 41 41 40 39 38 38 38 38 38 39 39 39 38 38 38 36 36 34 32 29 28 28 24 21 22 24 22 22 22 23 24 20 23 20 21 22 22 29 24 20 20 21 21 20 18 29 29 24 30 31 28 27
40 40 40 41 39 39 39 39 39 38 39 38 40 39 38 38 39 38 34 33 32 29 29 30 29 29 28 27 25 24 21 25 28 21 22 23 21 25 26 21 31 25 29 25 25 23 30 30 29 31 31 31 29 27
40 39 40 40 39 39 39 39 39 38 39 38 38 39 38 38 38 39 37 36 33 30 30 30 28 29 29 28 28 25 30 30 28 30 26 26 22 24 23 26 26 27 27 28 27 27 27 30 31 31 32 30 28 28
39 40 41 40 39 39 39 38 38 37 37 38 38 39 38 38 38 38 36 37 35 30 26 29 29 26 29 30 29 28 27 30 29 26 25 24 22 27 27 28 25 26 26 26 27 28 28 28 30 31 31 30 29 29
38 40 40 39 39 38 39 38 37 37 37 38 39 38 37 37 38 37 38 37 38 33 27 27 28 27 26 27 27 28 27 26 25 24 24 22 23 29 30 29 24 28 25 22 22 27 26 27 30 30 29 29 29 26
38 39 39 39 38 38 38 38 36 36 36 37 37 37 38 38 37 35 29 38 39 37 30 24 28 26 27 27 27 28 27 27 26 25 25 26 25 28 25 23 27 27 29 30 26 30 29 30 30 30 28 28 28 27
38 38 38 38 37 38 37 37 36 36 37 37 38 37 37 37 37 32 32 37 41 38 29 23 25 26 27 27 28 29 29 29 25 26 25 24 24 30 27 24 27 27 29 30 32 31 27 29 27 28 25 23 22 22
38 38 38 38 39 38 37 36 36 36 36 36 37 36 36 37 36 35 39 40 39 34 31 23 23 26 28 25 25 34 30 27 28 27 27 26 27 26 24 27 28 27 29 29 30 31 29 29 27 27 25 21 20 20
37 38 38 38 38 38 37 37 36 36 36 37 36 36 36 34 30 34 41 40 39 33 26 25 22 20 32 28 28 30 29 24 27 26 26 27 24 24 26 25 25 26 29 29 31 28 25 22 20 20 21 20 19 19
36 37 37 39 38 38 37 37 36 37 37 36 34 31 27 33 40 38 35 31 31 32 31 25 27 23 29 27 26 26 27 24 22 25 28 24 24 26 26 26 26 28 30 28 29 26 26 21 20 21 21 20 20 20
35 36 37 38 37 37 38 37 37 37 36 33 30 29 36 39 35 33 27 26 27 26 28 28 25 24 29 25 25 27 24 25 21 24 24 24 22 24 24 24 23 23 25 26 25 23 23 21 20 19 18 17 16 16
34 35 37 37 37 37 37 37 37 33 32 33 35 37 37 33 30 26 25 25 26 20 24 23 24 25 27 29 26 28 24 24 20 28 24 20 22 24 22 22 21 21 21 22 22 22 21 21 19 17 17 16 16 16
34 35 36 38 37 37 36 37 34 38 38 37 34 30 29 28 24 21 18 19 19 21 24 25 23 25 27 28 27 28 25 22 31 26 23 21 22 22 21 20 20 20 21 20 19 18 18 18 17 16 15 14 14 12
36 36 37 37 37 37 37 36 38 37 35 30 28 23 24 21 21 20 22 23 28 28 28 28 27 27 30 27 27 23 23 29 25 22 20 21 23 22 21 20 19 18 18 17 17 16 15 13 14 14 14 12 11 9
36 36 36 36 37 37 37 37 37 35 32 28 30 22 22 28 29 29 30 28 30 32 31 27 28 28 26 26 27 26 24 22 23 20 21 22 21 19 18 18 17 16 15 15 15 15 15 16 14 13 12 10 8 7
36 35 33 36 36 36 37 36 36 34 31 30 29 24 27 26 26 25 27 29 31 31 32 31 29 26 25 26 26 23 23 21 21 22 22 21 20 19 18 17 17 18 17 16 16 16 16 16 12 12 11 10 9 8
31 31 35 36 37 37 37 34 33 28 29 27 25 27 28 28 28 28 28 31 34 31 27 27 25 23 30 24 22 25 23 23 23 23 23 20 19 18 18 19 18 17 18 18 18 18 14 13 12 12 11 11 12 12
32 36 36 36 37 35 33 34 32 29 26 27 25 26 25 29 30 30 31 32 30 31 31 29 31 25 23 23 24 23 23 24 23 22 20 19 18 18 18 18 20 19 19 19 16 15 14 14 15 15 14 13 13 13
35 36 36 36 33 33 30 32 33 25 26 27 26 26 26 26 29 29 30 30 31 31 28 29 25 25 26 27 24 24 23 21 19 19 19 18 17 19 20 20 20 20 17 15 16 16 17 16 14 14 15 13 15 16
36 37 37 35 37 33 31 31 31 27 23 24 27 25 26 27 27 26 27 29 29 28 25 24 27 25 26 27 27 24 24 21 19 18 18 20 21 20 20 20 21 18 17 18 18 15 13 13 13 12 10 11 13 13
36 37 36 35 33 33 27 26 26 26 25 24 26 25 25 25 25 26 27 28 26 27 28 27 25 26 27 28 27 26 22 20 18 17 17 18 21 20 19 21 19 18 19 16 15 14 11 16 12 11 12 13 11 11
35 35 35 35 31 29 24 25 26 25 25 25 24 25 23 21 24 24 28 26 27 26 26 25 23 24 24 24 25 24 22 23 21 19 18 19 20 19 21 19 18 20 22 20 21 16 14 12 12 12 13 14 11 11
33 33 33 32 27 26 23 27 22 23 22 23 25 24 23 23 26 23 21 25 25 24 25 24 23 24 25 24 24 24 23 20 20 20 19 20 20 22 20 20 22 21 17 13 16 14 9 8 6 9 9 10 10 10
38 33 29 28 28 22 24 23 23 21 23 22 22 21 22 23 21 19 20 24 23 24 23 23 23 22 21 20 20 21 22 22 21 20 23 23 22 21 20 18 15 14 15 13 13 12 12 11 9 10 10 12 9 8
28 26 27 24 25 22 20 20 20 21 20 20 20 19 22 20 18 18 18 21 22 24 24 23 21 20 19 19 21 25 23 23 23 21 20 20 19 17 15 14 12 12 14 12 12 12 12 12 10 9 7 6 6 5
24 24 24 23 23 22 20 19 19 19 20 19 21 23 20 19 17 18 21 22 22 24 23 24 22 21 22 22 22 23 21 21 22 21 21 19 18 14 12 11 10 12 14 13 12 10 9 9 6 5 5 6 7 5
22 21 23 22 24 23 24 23 22 21 19 18 22 19 18 16 16 18 20 21 24 23 25 27 25 26 22 20 20 19 20 20 17 16 16 16 16 15 15 13 14 13 11 10 8 7 7 6 5 4 4 5 6 5
24 23 18 20 22 23 20 20 20 19 19 23 21 18 17 18 17 18 20 23 27 26 27 28 28 24 20 18 17 16 15 15 15 14 13 13 12 9 8 7 8 8 8 7 7 6 6 5 5 5 3 3 3 4
19 23 21 21 20 20 21 20 21 19 18 20 21 21 17 16 19 17 17 23 24 21 20 19 19 19 19 18 18 17 16 14 11 8 7 8 10 11 10 10 10 8 5 4 8 4 4 3 -1 -2 2 3 4 7
20 22 18 16 17 18 19 19 19 18 16 19 15 14 14 15 15 15 19 21 21 20 19 19 19 17 17 16 16 16 15 16 15 13 11 9 10 11 9 8 7 8 9 9 6 5 5 4 5 6 5 3 0 -0
19 21 18 17 17 17 17 16 16 16 17 18 17 19 14 13 14 16 19 21 21 21 19 18 18 18 18 16 14 12 11 12 13 13 13 12 11 11 10 9 8 7 5 5 3 0 -0 1 1 1 0 1 -1 -2
18 19 18 16 12 15 15 16 15 16 15 15 16 15 14 14 11 13 16 19 20 18 17 18 18 18 18 16 15 13 11 11 11 11 11 9 8 7 6 6 6 4 4 3 2 0 -0 -0 -1 -2 -2 -2 -4 -5
16 17 17 13 11 12 13 16 15 15 16 15 16 13 13 14 12 13 15 16 17 21 19 16 16 15 14 13 11 10 9 8 9 9 8 8 7 7 7 6 4 4 3 3 2 1 -1 -2 -2 -3 -5 -7 -9 -9

GFSWCAN_sfc_30mbdewp_090.txt.gz
Dewpoint
42 40 39 41 41 40 39 40 40 39 39 40 39 38 38 38 38 37 33 33 30 27 29 28 28 24 23 24 20 22 22 22 22 21 20 19 19 20 23 26 25 24 22 22 23 19 17 28 27 23 28 30 26 25
40 39 41 40 40 39 39 39 39 39 39 40 39 39 38 38 37 39 31 35 33 27 28 30 28 29 27 26 24 24 22 27 25 18 20 22 21 22 22 21 29 22 25 23 23 21 28 29 28 30 31 29 28 26
39 40 41 40 39 40 39 39 39 39 39 40 40 39 38 38 39 38 35 36 32 29 28 28 26 29 29 27 28 24 29 30 27 28 24 25 22 24 21 24 24 24 30 26 25 26 27 29 30 30 30 27 27 26
40 40 40 40 39 39 39 39 39 39 38 39 40 39 38 38 38 38 35 37 34 30 25 28 31 28 30 28 28 27 27 30 29 28 23 24 22 25 24 28 23 25 26 25 24 26 27 27 28 30 28 28 27 27
40 40 40 39 39 39 39 39 38 37 38 38 39 39 37 38 38 37 36 37 38 30 24 25 28 27 28 29 29 28 27 26 25 23 23 22 24 27 30 25 23 27 24 22 20 26 25 26 28 29 29 26 25 23
41 41 40 40 39 39 39 38 38 37 38 39 38 37 38 38 37 30 28 36 40 36 27 20 28 26 27 28 28 27 27 27 26 24 23 25 26 26 25 22 26 28 29 30 26 29 28 29 29 28 27 26 25 24
39 40 39 38 39 39 38 37 37 37 37 38 39 37 37 37 36 32 30 37 40 34 25 19 23 27 28 27 28 30 30 29 26 25 25 24 23 29 28 22 26 27 30 30 32 29 26 29 26 27 25 24 24 24
38 39 40 38 39 39 37 36 37 37 37 37 38 37 37 39 36 33 38 40 37 32 29 22 22 25 28 25 24 32 29 29 28 24 26 26 26 28 24 27 27 28 28 29 30 30 27 28 29 24 21 21 21 21
38 39 39 39 38 38 38 37 36 37 37 38 38 37 32 31 29 34 40 37 37 30 24 24 20 20 30 28 28 30 29 25 26 24 25 27 24 24 25 27 26 27 28 28 31 29 25 23 22 23 20 20 20 20
38 38 38 39 38 38 37 37 37 37 38 37 32 27 25 31 39 35 32 28 30 31 29 23 26 23 28 26 25 25 27 24 22 25 28 24 23 27 27 27 28 30 28 30 28 26 23 23 21 20 20 20 19 18
38 38 39 39 39 38 37 37 37 37 35 31 27 27 37 38 33 31 25 23 24 23 27 26 26 23 29 23 24 27 25 26 22 24 25 24 21 24 25 23 24 27 27 26 25 25 25 22 19 18 17 17 16 16
36 37 38 38 38 37 37 38 37 32 30 29 33 37 37 31 28 23 22 24 25 20 25 24 25 25 25 30 25 28 25 26 21 29 25 20 21 24 23 22 22 22 22 21 21 21 20 18 18 17 16 15 14 13
35 36 38 37 37 37 37 37 36 38 37 36 34 29 28 27 21 20 18 20 20 21 24 25 24 25 27 28 26 27 25 22 29 24 22 19 22 22 21 20 21 20 19 18 17 17 17 16 16 14 13 12 11 9
36 38 39 36 37 37 38 36 38 36 32 26 26 21 21 20 21 19 20 19 24 28 27 25 26 25 29 25 25 22 21 28 22 21 19 20 22 21 20 20 19 17 16 15 15 14 13 13 13 12 11 10 10 10
36 37 39 37 37 37 36 38 35 34 31 27 28 21 22 24 26 29 29 28 30 31 27 26 26 26 25 24 26 24 24 21 22 19 19 20 20 18 17 16 15 14 14 13 12 12 13 12 11 10 9 6 6 5
37 38 36 36 36 36 37 35 34 32 30 28 28 25 26 24 24 26 26 26 31 31 30 29 26 24 23 25 25 22 23 21 20 20 21 20 18 16 15 15 14 14 14 14 14 14 13 11 10 9 8 7 5 4
37 33 36 36 36 36 33 31 30 26 25 27 23 26 27 25 27 24 26 29 32 30 25 25 23 22 28 24 22 24 22 21 21 20 21 19 17 15 15 16 16 15 15 15 15 16 14 11 11 10 9 9 9 10
34 36 36 36 35 34 33 32 28 27 24 27 23 25 26 28 29 30 31 32 29 30 30 28 30 26 23 22 23 23 22 22 22 20 18 17 17 17 17 16 15 16 16 17 17 14 13 12 13 13 14 12 12 13
36 37 37 35 32 30 25 28 32 25 26 26 26 26 25 26 28 29 30 30 31 32 30 27 26 25 25 26 24 22 21 18 17 17 17 17 17 17 17 18 18 18 18 17 15 14 14 15 17 18 16 15 15 15
37 37 35 37 36 31 28 29 33 26 22 23 26 23 25 26 27 26 26 27 29 29 26 24 25 26 26 26 25 23 21 19 18 16 16 17 18 18 19 19 19 18 17 16 16 18 18 15 13 11 12 13 12 11
36 36 36 35 33 33 31 27 27 28 26 24 26 26 25 25 25 25 26 29 28 27 26 26 25 26 27 26 25 23 20 19 17 15 15 17 20 19 19 20 20 18 16 17 17 14 17 13 12 12 12 11 9 10
35 36 34 34 30 30 25 25 25 25 25 25 25 26 23 22 23 25 29 27 26 27 27 24 24 25 26 25 24 22 20 19 18 18 18 19 19 17 17 20 19 16 17 17 16 13 13 12 11 12 12 11 9 10
32 34 32 31 27 26 23 27 23 22 20 22 26 24 24 24 26 25 24 23 24 24 25 24 23 25 24 25 25 23 22 20 19 18 18 18 18 18 19 19 17 18 20 19 18 12 9 7 8 9 8 8 7 7
36 31 27 26 26 22 24 21 24 24 25 23 23 22 23 23 22 21 19 22 22 23 23 23 24 23 23 23 22 22 21 20 19 18 19 20 20 21 20 19 19 19 15 16 13 10 8 9 7 8 9 11 9 7
25 25 27 23 25 22 19 20 21 21 18 21 22 22 22 21 18 18 18 19 22 23 23 22 22 21 20 19 21 22 22 20 19 19 22 21 20 17 14 13 13 14 12 11 10 10 10 8 8 7 5 5 5 4
23 23 23 22 22 20 19 17 19 19 21 21 22 23 20 18 17 16 19 20 21 22 22 21 20 19 20 21 22 22 22 23 22 19 19 20 17 15 12 10 10 12 12 11 10 11 12 10 7 5 4 5 5 4
22 21 22 24 23 25 22 21 21 21 20 19 22 19 18 15 15 17 20 21 23 21 23 23 22 20 21 21 21 21 21 20 19 17 15 14 14 14 12 10 10 11 8 7 7 7 6 4 3 3 4 3 3 3
24 22 19 21 22 22 20 21 19 18 18 21 20 17 16 15 16 17 19 21 23 24 25 25 26 22 20 19 18 17 15 14 13 11 9 8 7 8 10 10 9 8 6 5 5 4 4 4 4 3 2 2 2 2
19 22 21 21 20 20 20 19 19 19 18 21 18 18 17 15 17 15 19 22 20 20 19 18 17 18 17 17 16 16 15 13 12 10 10 8 5 6 4 3 4 5 5 5 5 4 1 -1 -2 0 2 3 3 -0
21 19 17 17 17 17 18 18 17 16 16 16 14 14 14 14 14 14 19 21 19 18 16 16 18 17 16 15 14 13 14 13 11 11 8 6 5 9 7 7 6 4 4 4 5 4 4 2 5 4 1 -1 -2 -3
21 21 16 15 15 15 15 15 14 14 16 16 14 13 11 11 13 14 16 19 19 18 17 16 16 17 16 14 13 13 12 13 13 12 10 9 9 7 6 5 5 5 5 4 1 -0 -0 -1 -2 -2 -3 -4 -6 -7
19 19 17 14 12 14 14 13 12 13 13 12 13 12 11 10 8 10 13 17 19 17 16 16 16 16 16 15 15 14 12 11 11 10 10 9 8 7 6 4 4 3 2 0 -1 -1 -2 -3 -4 -4 -6 -8 -10 -11
16 17 14 11 10 11 12 14 13 13 13 12 13 12 10 10 10 11 13 16 17 17 17 16 15 14 14 13 11 10 10 10 10 9 8 7 6 5 4 3 3 3 1 -0 -1 -2 -3 -4 -6 -9 -11 -11 -12 -13

GFSWCAN_sfc_30mbdewp_093.txt.gz
Dewpoint
40 43 42 41 40 40 42 40 40 39 39 39 38 38 37 39 39 32 31 35 29 26 28 28 27 22 24 23 19 22 22 21 20 19 17 18 18 20 22 23 24 23 20 20 21 19 16 27 27 21 26 28 27 25
41 41 40 40 41 41 40 40 40 39 40 39 38 38 37 39 40 35 30 37 33 27 27 30 28 28 25 24 23 25 21 26 23 19 20 21 20 22 22 19 27 21 24 21 21 20 28 28 27 29 30 28 27 25
41 40 40 41 40 39 38 40 40 40 39 40 39 38 38 39 39 36 35 36 30 27 27 28 26 29 28 27 27 26 29 30 27 26 23 24 20 24 18 23 23 25 28 25 24 25 25 28 28 29 28 26 26 26
40 40 41 40 39 39 40 39 39 39 39 40 39 38 38 38 39 37 36 37 32 28 24 28 30 28 30 28 27 29 30 30 29 27 23 23 21 24 23 27 22 24 25 25 24 26 27 27 28 28 27 27 26 26
40 40 40 39 39 40 39 39 39 39 38 39 38 38 39 39 37 37 37 38 37 26 24 25 27 29 30 28 28 28 27 26 25 22 23 22 24 25 29 23 22 26 24 22 19 26 25 25 28 29 26 25 25 23
39 40 40 39 39 40 39 39 39 38 39 39 38 38 38 38 33 28 25 34 39 33 22 19 26 26 28 29 29 28 27 26 25 23 22 24 26 25 24 21 25 29 29 29 25 28 28 28 28 28 25 25 24 23
40 40 40 39 40 40 39 38 38 38 38 39 38 38 38 38 35 30 28 36 38 32 21 19 24 27 28 28 30 30 31 28 26 25 24 23 23 28 26 23 26 28 29 29 31 28 26 28 26 28 26 24 22 22
41 41 40 38 40 39 38 38 37 37 39 39 37 39 39 36 34 33 39 38 33 29 26 20 20 25 28 25 26 31 29 29 28 23 25 25 26 28 25 25 27 27 28 29 30 30 27 27 23 22 22 22 21 20
40 39 39 40 39 38 37 37 37 38 38 37 37 34 29 28 27 34 37 35 34 28 23 23 19 21 28 28 29 29 28 26 27 24 23 26 24 24 25 26 27 28 27 27 30 28 25 28 24 20 20 20 19 19
40 38 39 39 38 37 37 36 37 38 38 35 30 24 23 31 37 33 29 26 26 30 27 22 25 23 26 24 25 25 26 24 21 23 27 25 22 26 28 28 28 29 29 30 24 23 23 22 21 20 20 19 19 19
39 39 38 39 38 38 37 37 38 36 31 27 26 27 34 38 32 27 23 22 23 22 25 25 24 24 29 23 24 25 24 25 22 22 24 23 21 23 25 26 27 26 26 26 26 27 25 22 20 19 18 17 17 17
38 38 39 38 38 37 37 37 35 30 27 26 34 35 34 29 27 21 20 23 22 19 25 23 25 25 25 29 23 27 25 26 20 29 25 21 19 23 23 22 23 23 22 23 23 22 21 19 18 17 16 15 14 13
37 38 38 38 37 38 38 36 35 36 36 37 31 28 26 27 19 18 17 20 22 24 24 25 25 23 27 27 25 26 24 22 27 23 21 18 21 22 21 21 20 20 19 19 19 18 17 17 15 14 13 11 10 9
37 38 38 38 38 38 37 38 37 35 30 26 23 21 20 18 20 19 19 18 23 27 26 25 25 25 27 25 24 19 21 26 20 19 19 19 20 20 21 20 19 17 16 16 15 14 13 12 11 10 9 8 7 7
36 38 37 37 38 38 38 37 34 32 29 26 27 19 20 24 24 27 29 27 29 30 25 25 25 24 24 23 24 23 22 20 22 20 19 21 21 19 18 17 15 14 13 13 12 11 11 11 10 9 8 7 7 6
37 38 36 37 37 37 36 33 32 30 29 27 27 24 26 24 24 25 25 25 30 31 29 27 24 22 21 24 23 22 22 20 20 20 19 19 18 17 16 15 13 12 12 11 12 11 10 10 9 7 5 4 3 3
37 34 37 37 36 35 33 29 27 25 25 25 23 26 27 26 25 24 26 27 32 29 24 24 21 19 24 23 23 23 22 21 21 19 19 18 17 15 14 13 13 13 12 13 13 12 11 10 9 8 5 6 6 7
35 37 36 36 34 32 32 30 27 26 21 26 23 24 25 27 28 29 31 32 28 30 29 27 29 24 22 21 22 23 22 20 19 18 17 16 15 14 14 14 14 14 14 14 15 14 12 10 11 11 12 11 10 11
36 36 36 34 31 27 25 27 30 24 24 25 26 26 24 24 28 29 30 30 31 33 30 28 25 23 23 24 23 20 19 19 18 17 16 15 15 15 15 15 15 15 15 16 15 14 12 13 14 15 15 16 13 13
37 36 35 36 36 28 25 27 31 27 23 23 25 23 22 25 26 26 26 27 29 29 27 24 23 24 25 25 23 21 19 17 17 16 15 15 16 16 16 16 17 17 17 17 16 15 15 16 16 15 16 15 14 13
36 36 35 34 32 32 30 28 27 28 25 24 24 25 23 25 24 24 25 27 26 26 25 25 25 25 25 25 23 21 19 18 16 15 14 15 17 18 19 19 18 18 16 15 14 17 17 14 11 11 11 10 9 9
35 36 33 32 28 29 28 27 25 25 25 25 26 26 22 20 21 25 29 26 26 25 26 25 24 25 25 24 22 21 20 19 17 16 17 18 17 18 18 19 18 16 15 14 16 14 14 13 12 12 11 9 7 9
33 33 30 30 26 25 24 27 23 23 19 22 25 23 24 24 26 27 24 23 23 23 24 24 25 26 25 24 23 21 20 18 17 18 18 18 18 17 18 19 19 15 15 17 18 13 12 11 11 10 8 7 6 8
34 29 26 24 25 22 26 24 24 25 24 23 22 21 22 23 24 22 18 19 21 21 23 23 24 24 24 24 21 21 20 19 18 18 18 18 17 17 17 19 19 17 17 17 16 11 7 6 5 5 8 9 7 6
22 24 27 23 25 21 20 22 21 21 17 20 21 21 22 22 18 17 17 17 21 23 23 23 23 22 21 20 20 21 21 19 18 17 19 19 18 17 16 15 15 16 15 13 10 8 7 5 6 6 5 5 6 4
20 24 23 21 22 21 19 17 18 18 20 19 21 22 20 18 16 15 17 19 20 22 22 22 21 20 21 21 21 21 21 21 19 18 20 19 17 15 14 13 13 12 10 10 9 9 9 7 6 6 4 4 3 4
21 21 23 25 23 24 21 21 21 22 21 19 21 20 18 15 14 15 19 20 22 21 20 21 21 20 20 21 21 21 20 19 18 16 15 15 14 14 13 12 11 11 8 8 9 10 10 7 4 3 4 1 1 2
23 21 20 22 22 22 21 20 19 18 18 20 20 18 15 14 14 16 18 19 22 23 21 22 22 21 20 20 18 16 13 12 12 11 12 11 9 9 9 9 8 7 5 4 3 3 3 3 3 2 1 3 2 -3
22 21 21 21 20 20 19 19 19 19 19 21 19 16 16 15 15 16 19 19 21 20 21 19 17 17 17 16 16 15 14 14 15 14 13 11 10 9 6 6 6 5 4 5 6 4 3 1 0 2 1 1 -4 -7
19 19 19 18 18 19 18 17 18 15 16 15 15 15 14 13 14 11 17 19 19 20 17 16 16 16 15 14 13 13 13 14 14 15 13 11 8 5 3 4 3 2 4 4 5 5 6 4 3 -2 -2 -4 -6 -7
20 18 16 16 16 13 14 13 12 13 14 14 10 12 12 10 11 12 15 17 16 16 16 16 16 15 15 14 14 13 13 13 15 11 8 8 8 5 3 2 3 3 3 1 0 1 0 -1 -2 -3 -5 -7 -10 -12
19 19 16 14 12 13 14 12 11 11 11 12 13 9 10 10 10 9 11 16 16 16 15 15 15 15 15 15 15 15 14 13 13 10 9 8 7 5 5 4 3 2 -0 -1 -1 -2 -2 -3 -5 -7 -9 -12 -13 -14
17 16 12 11 10 10 12 14 12 12 11 11 11 11 10 10 10 10 11 12 16 15 15 14 14 14 14 13 12 11 10 10 10 10 8 7 5 4 2 2 1 -0 -1 -2 -3 -4 -5 -7 -9 -12 -13 -14 -14 -15

GFSWCAN_sfc_30mbdewp_096.txt.gz
Dewpoint
39 42 42 41 41 40 40 40 38 39 38 38 38 37 39 40 37 32 33 35 28 26 27 28 25 23 23 22 17 21 20 19 19 16 15 17 16 21 20 22 24 21 19 19 19 17 15 26 24 19 24 27 26 25
40 43 42 41 41 41 41 40 39 40 39 38 38 38 40 39 38 33 30 36 33 26 26 30 29 29 24 23 23 25 20 25 22 18 20 21 19 21 21 18 25 20 22 20 21 19 27 27 26 27 28 26 25 24
40 40 41 41 40 41 41 40 40 40 39 38 38 38 40 40 39 36 35 35 30 27 28 27 26 28 28 27 29 24 28 29 26 24 22 23 17 23 18 22 22 24 28 23 23 24 25 27 27 27 26 24 24 23
40 43 41 42 41 39 39 40 40 40 40 39 38 38 39 39 39 37 36 36 30 27 22 26 29 28 29 28 29 29 30 29 29 25 23 22 19 24 23 26 22 23 25 24 23 25 26 26 27 27 26 25 23 23
41 40 41 41 40 40 40 40 40 39 39 38 39 39 39 39 38 37 37 38 35 24 25 25 27 29 29 28 27 27 26 25 24 22 22 21 24 25 29 23 22 24 24 22 19 25 23 25 28 28 25 24 24 21
40 40 40 40 40 39 39 39 39 39 39 39 38 39 38 36 31 27 23 33 37 30 22 21 26 27 29 29 28 27 27 26 25 22 21 23 26 24 23 21 25 27 29 28 24 27 26 27 27 26 24 23 23 21
40 40 39 39 39 39 39 39 39 39 39 39 38 39 38 38 37 29 29 35 37 30 19 22 24 27 28 29 31 29 31 27 26 25 23 22 23 27 24 22 25 29 29 29 28 27 25 27 24 25 23 22 22 22
40 39 39 39 39 40 39 39 39 39 39 39 39 37 37 37 35 34 37 36 32 27 24 20 21 26 29 24 26 30 28 28 27 24 25 24 25 28 23 25 27 28 28 29 29 29 27 26 24 23 23 21 19 18
40 40 39 39 39 39 38 38 38 39 38 38 34 32 27 30 29 34 36 34 32 26 21 21 21 21 28 27 29 29 28 25 27 24 23 24 23 23 24 25 26 26 26 28 29 28 27 25 22 21 21 20 19 18
40 39 39 39 39 39 38 38 38 38 35 32 26 22 21 32 37 32 27 24 24 26 26 22 25 24 26 23 25 26 25 25 20 21 26 25 23 26 28 27 29 29 29 27 24 23 25 23 22 21 20 19 18 18
39 39 39 38 38 38 38 38 38 33 29 24 27 27 33 37 31 26 22 21 22 20 24 24 24 25 28 23 23 24 23 24 20 21 22 22 21 23 27 26 27 26 27 28 25 24 23 22 21 19 18 18 18 17
39 39 38 37 37 37 38 38 32 28 25 25 32 35 34 27 23 19 19 22 21 18 24 22 24 25 26 28 23 26 25 26 19 26 24 21 20 23 23 23 23 24 24 24 25 23 22 20 19 17 16 15 13 12
38 39 38 38 37 37 37 33 34 37 37 33 28 26 26 25 17 16 15 19 21 24 24 26 24 23 28 26 25 25 23 22 27 23 21 19 21 22 21 21 20 20 20 20 19 18 17 16 15 14 12 11 10 8
39 38 38 37 37 37 36 37 37 33 28 25 21 18 19 17 18 18 18 19 24 26 25 24 25 25 26 25 23 19 19 24 19 17 19 18 20 21 21 20 19 18 17 16 15 14 12 11 10 9 8 7 6 6
39 38 38 38 38 37 37 37 33 31 27 26 25 18 19 22 23 26 28 27 29 28 25 24 24 23 24 22 22 21 21 19 21 20 19 18 20 20 19 17 16 14 13 12 11 10 9 9 9 8 6 6 6 6
38 36 36 37 38 37 35 32 30 28 27 26 26 23 25 25 25 26 26 25 31 30 27 25 23 20 21 22 22 21 21 19 20 20 18 21 19 18 17 15 13 12 12 11 10 10 9 9 9 6 4 4 4 3
36 34 36 38 37 34 32 28 25 25 24 24 23 25 26 26 24 25 27 27 32 28 23 23 19 18 23 21 21 24 21 22 20 19 17 18 18 16 14 13 12 12 11 11 11 11 10 8 6 6 1 4 4 6
35 37 37 36 33 31 31 28 26 25 21 24 21 24 25 26 28 28 30 32 28 30 28 26 28 23 22 21 21 22 21 20 19 19 17 15 15 13 13 13 12 12 12 13 12 11 10 9 9 9 10 8 9 10
37 38 36 34 30 27 24 26 28 23 23 25 26 26 24 23 28 29 30 31 32 33 29 27 23 22 23 22 23 19 18 20 18 16 14 13 14 14 13 13 13 13 14 14 14 12 10 11 12 13 14 14 12 13
37 36 35 36 34 27 25 26 30 26 23 23 25 23 22 23 26 27 27 29 29 28 25 24 23 23 24 24 22 21 18 17 17 16 14 14 14 14 14 14 14 15 15 17 15 14 12 14 16 16 17 16 14 12
36 35 34 32 30 31 30 26 24 27 25 23 24 23 23 25 24 24 24 28 26 25 24 23 24 23 24 23 22 19 18 18 17 16 15 14 15 16 16 17 17 17 16 16 14 14 15 16 14 13 13 11 9 8
35 34 30 30 27 28 28 29 26 26 24 24 25 26 22 20 22 25 28 25 24 23 24 25 24 25 24 23 21 20 19 18 16 16 16 16 16 17 17 17 17 15 15 14 14 15 16 14 11 11 10 7 6 7
32 31 29 28 22 23 25 29 24 24 19 22 24 22 23 23 24 28 23 23 22 21 23 23 25 26 24 22 21 20 19 17 16 16 17 17 17 17 17 17 16 15 14 14 16 14 13 11 10 10 8 6 6 7
32 27 22 20 22 21 25 24 25 24 23 22 21 19 22 23 24 22 18 18 18 20 23 23 24 24 23 22 20 19 19 17 16 16 17 17 16 17 17 18 17 15 15 16 17 14 11 9 8 7 6 7 6 6
18 21 24 21 25 21 21 22 23 22 18 20 20 20 21 21 18 17 16 16 20 23 22 22 23 23 22 20 20 19 19 18 17 17 18 17 17 17 16 16 16 16 15 15 12 9 6 3 4 7 7 6 6 4
16 20 21 22 21 20 19 19 20 18 18 18 19 21 20 18 16 15 16 17 19 22 22 21 21 21 21 20 20 20 20 19 18 17 18 18 16 15 15 16 16 15 12 13 9 8 7 6 7 6 5 3 2 2
19 21 23 25 23 23 20 21 21 20 20 18 20 19 19 15 14 14 17 19 20 20 19 20 21 21 21 20 20 19 19 18 17 16 16 15 15 16 16 15 14 12 9 8 8 9 9 7 7 5 3 -0 -1 0
21 22 20 22 23 22 20 19 18 18 18 20 20 18 15 14 14 16 18 19 21 22 19 19 20 21 20 19 16 14 12 12 12 12 12 11 9 10 10 9 9 8 6 7 8 8 7 6 3 2 2 2 -1 -7
22 21 21 21 21 21 20 18 18 18 19 21 19 17 16 16 15 16 18 18 21 21 19 19 16 16 15 15 14 13 14 15 16 15 14 12 11 9 6 6 5 5 4 5 5 3 2 1 1 1 -1 -3 -8 -11
20 19 19 19 19 19 18 17 17 15 15 15 15 15 15 14 13 11 15 18 20 20 18 16 15 16 16 14 12 12 13 14 15 16 14 13 12 7 6 5 4 4 4 4 6 6 4 0 -1 -4 -5 -7 -8 -10
19 17 17 17 17 13 13 11 10 11 11 13 8 13 13 9 9 10 14 16 15 15 16 15 15 14 14 13 13 13 13 14 15 15 13 11 8 6 4 2 2 2 3 3 3 2 0 -2 -4 -5 -7 -9 -13 -14
18 19 18 16 14 13 13 13 11 11 10 12 12 7 9 11 14 9 9 13 15 15 14 14 14 14 14 14 15 16 14 13 10 8 8 7 5 3 3 2 1 0 -1 -1 -1 -2 -3 -4 -6 -8 -10 -13 -15 -16
17 15 13 12 11 11 12 14 13 12 10 10 9 9 9 11 12 9 9 9 13 14 14 13 13 14 14 14 13 11 11 11 11 10 8 6 5 4 3 2 -0 -1 -3 -3 -4 -5 -6 -8 -10 -13 -14 -15 -16 -17

GFSWCAN_sfc_30mbdewp_099.txt.gz
Dewpoint
39 38 39 42 40 40 40 39 38 38 38 38 38 38 40 39 37 32 33 35 28 26 27 28 25 22 23 22 18 22 18 19 20 15 15 17 17 22 20 21 23 21 19 17 17 16 14 25 22 18 23 26 25 24
39 39 40 41 40 40 40 39 39 39 38 38 37 39 40 39 36 33 29 35 34 26 26 30 29 28 24 22 23 24 19 24 22 17 20 21 20 22 20 18 25 19 23 20 21 19 26 27 25 26 27 24 24 23
40 39 41 41 41 41 40 40 40 39 38 38 39 40 40 39 38 35 33 34 30 27 26 27 26 29 29 28 30 23 28 27 26 24 22 23 20 22 20 21 22 25 27 23 23 24 25 26 27 26 26 23 24 23
40 42 40 41 40 41 40 40 40 40 39 38 40 40 40 40 39 37 35 36 30 27 23 26 29 29 30 30 30 30 29 29 28 25 23 22 20 24 24 24 22 22 24 24 23 25 26 26 26 26 25 24 23 23
38 40 40 41 40 40 40 40 40 40 39 37 40 40 39 38 38 37 37 36 32 23 25 25 27 29 30 28 27 27 26 25 23 22 21 21 24 26 28 23 22 23 22 22 20 25 24 25 27 27 24 23 23 20
39 41 41 40 39 40 39 39 40 39 39 40 39 38 37 35 31 27 22 32 36 29 24 22 26 27 29 29 28 28 27 26 25 22 21 23 26 25 23 21 24 24 28 27 24 28 26 26 26 25 22 22 21 20
42 41 40 40 40 39 38 39 40 40 39 39 38 38 38 37 36 30 28 33 36 28 23 23 24 27 29 30 31 30 30 27 26 25 23 21 23 27 24 22 24 29 27 27 27 25 24 25 23 23 21 21 20 19
40 40 40 39 38 38 38 39 39 40 40 39 39 38 38 37 36 32 36 35 31 25 24 22 23 26 28 24 26 30 28 28 27 24 26 24 26 28 21 24 28 29 29 28 27 28 27 25 24 22 21 19 18 17
40 39 39 39 39 39 38 38 38 40 38 34 33 33 30 32 31 32 36 32 32 25 19 21 22 21 28 27 30 29 28 24 27 25 24 24 22 22 24 26 26 26 26 28 28 26 24 22 22 21 20 18 17 17
40 39 39 39 38 38 38 37 38 37 33 31 26 22 23 33 37 31 26 21 23 25 25 23 24 26 26 24 25 26 26 25 21 22 26 24 23 26 28 27 27 27 29 28 25 24 24 22 21 20 19 18 17 17
39 39 39 39 39 38 38 37 35 30 26 26 28 27 32 36 30 25 20 20 21 19 23 24 25 26 28 23 23 25 24 24 19 21 21 20 20 24 28 28 29 30 29 27 25 25 26 23 22 20 19 18 17 16
38 39 39 38 38 38 38 34 30 26 24 28 31 34 32 27 22 18 18 21 20 18 24 22 24 25 28 27 24 25 24 25 19 25 22 20 20 25 24 24 24 26 26 26 24 23 23 22 20 18 17 16 14 13
38 38 38 38 39 37 33 33 34 35 35 30 26 26 22 22 16 14 13 19 20 24 25 26 23 24 28 26 25 25 21 22 27 23 20 20 22 23 22 22 22 22 22 21 21 20 19 17 16 15 13 12 11 9
38 37 37 38 37 35 37 37 35 31 27 23 19 17 16 16 17 18 18 20 24 25 24 24 24 25 26 24 23 18 19 23 19 18 19 19 21 21 21 21 20 19 19 18 16 15 13 12 10 10 9 9 8 8
38 37 37 37 37 38 37 34 32 30 26 25 22 17 19 22 23 25 27 28 29 27 25 24 24 24 24 22 22 20 19 18 20 19 21 19 21 20 20 18 17 15 14 13 12 11 10 9 9 6 5 6 5 4
37 36 36 38 38 36 33 30 28 27 27 26 24 22 24 24 25 27 27 27 31 30 26 24 22 19 20 21 20 20 20 18 20 21 19 19 20 19 18 16 15 13 12 11 10 10 9 9 9 8 7 7 5 4
35 35 38 37 35 33 31 26 25 25 23 24 23 24 25 25 25 27 28 29 32 27 21 22 17 18 23 20 19 23 21 22 20 19 19 19 19 17 15 13 13 12 11 10 10 10 9 7 5 5 2 4 5 7
34 38 37 34 30 29 30 28 25 23 22 24 22 24 25 27 27 28 30 31 29 29 27 25 27 23 21 19 20 22 22 20 20 19 17 16 16 14 14 13 12 12 12 12 12 10 7 8 6 5 7 8 9 11
37 38 35 33 29 26 23 25 27 21 23 25 26 25 24 24 28 29 29 31 32 31 29 25 22 21 23 22 23 20 20 21 19 17 14 12 14 14 13 13 13 13 13 13 11 8 9 11 12 12 12 12 12 14
37 35 35 35 31 26 23 26 28 24 22 23 25 23 22 23 26 27 27 29 28 27 24 23 23 24 24 24 22 23 20 19 17 17 15 13 14 13 14 14 14 14 14 14 13 11 12 13 15 16 17 16 15 14
35 35 33 30 30 30 27 24 23 27 24 22 22 22 22 25 24 23 24 27 25 23 21 23 23 22 22 24 21 20 19 19 18 19 17 15 14 14 15 15 15 15 15 15 14 13 14 15 15 15 15 13 10 11
33 32 27 29 27 27 27 28 26 26 23 24 24 25 21 20 21 24 27 24 23 22 23 24 24 24 23 22 21 20 19 18 17 16 16 15 15 16 16 16 16 15 15 15 14 14 15 16 13 13 12 9 8 9
31 29 27 25 20 21 24 29 24 24 19 21 23 21 21 21 23 27 22 23 22 20 21 23 24 25 23 21 21 20 19 17 17 16 17 17 17 17 17 17 16 15 15 15 15 15 16 13 11 11 9 9 9 8
31 25 20 19 20 20 24 24 25 23 22 20 19 18 21 22 24 21 17 18 17 19 22 23 24 23 22 21 19 19 18 17 16 16 17 17 16 17 17 17 16 16 16 15 16 14 13 12 10 10 8 8 8 8
16 19 20 18 23 20 20 21 23 20 18 19 19 19 20 21 19 17 16 16 19 22 23 23 23 23 22 20 19 19 18 17 17 16 17 17 17 17 17 17 16 16 16 16 15 14 10 8 8 8 9 9 7 5
13 18 18 20 20 19 18 18 19 18 17 17 19 20 20 19 16 15 15 17 19 21 22 22 22 21 21 20 20 19 18 18 18 17 17 17 17 17 16 15 15 16 15 16 14 12 9 7 8 7 6 4 2 3
15 19 22 25 23 24 21 21 21 19 18 17 19 19 18 15 14 14 16 18 20 20 19 19 21 22 22 20 19 18 18 18 17 17 16 16 16 16 17 17 17 16 13 13 12 10 9 8 7 6 3 1 0 1
20 21 19 21 22 23 21 19 18 17 19 19 19 18 16 14 15 16 19 19 21 21 19 18 20 21 20 18 15 14 13 12 13 13 13 12 11 11 12 12 12 11 10 10 10 9 9 8 6 4 3 2 -2 -6
21 22 21 20 21 21 21 19 18 18 19 20 19 18 18 16 16 17 18 18 22 20 18 18 16 15 15 14 14 14 14 16 16 15 15 13 13 11 9 9 8 8 9 8 8 6 5 3 3 2 -1 -2 -7 -9
19 19 20 19 20 20 19 17 18 15 14 15 15 16 16 15 14 12 15 18 20 20 20 17 16 16 16 15 13 13 13 15 15 17 15 14 14 9 8 8 7 7 8 8 7 4 2 -1 -3 -5 -5 -6 -7 -9
17 18 18 17 18 14 12 11 10 10 10 12 7 15 15 10 9 8 12 15 16 16 17 16 15 14 14 13 14 14 14 15 17 18 16 12 10 8 7 6 6 6 6 4 2 0 -1 -2 -3 -4 -6 -9 -12 -12
18 19 18 17 15 12 12 13 12 13 10 13 13 7 10 12 16 12 8 11 14 15 15 15 16 15 13 14 14 16 15 14 13 12 11 10 8 7 4 4 4 3 2 1 0 -1 -2 -3 -5 -7 -10 -13 -14 -15
16 15 14 14 13 12 13 14 14 13 10 10 10 8 8 11 14 9 7 7 11 13 14 13 12 13 14 15 15 14 12 12 11 10 9 7 5 4 3 3 2 1 0 -1 -2 -4 -5 -7 -10 -12 -13 -14 -16 -16

GFSWCAN_sfc_30mbdewp_102.txt.gz
Dewpoint
39 39 39 39 41 41 41 41 39 39 39 38 38 39 41 41 40 35 35 36 31 28 28 28 26 23 24 20 17 24 20 21 21 17 16 19 19 20 21 25 24 20 18 17 16 16 16 24 23 22 24 26 25 24
39 38 39 38 41 40 40 39 39 39 39 39 38 40 40 39 38 35 32 35 34 28 27 30 30 28 27 25 22 24 22 23 23 17 18 20 21 24 21 19 26 21 24 23 23 22 25 25 25 26 28 26 25 24
38 39 39 41 40 40 40 40 39 39 40 38 40 41 40 39 37 35 36 34 30 28 25 24 26 30 31 31 32 19 26 26 26 27 25 23 21 22 19 21 23 24 27 23 24 24 24 25 25 25 26 25 25 25
38 39 39 40 40 40 40 40 40 39 39 40 41 40 40 40 39 36 34 37 31 25 24 25 29 29 31 31 32 31 30 30 28 23 23 23 21 25 23 25 22 23 25 23 24 25 25 25 26 25 25 25 24 24
38 40 40 40 40 40 40 40 39 39 40 40 40 40 39 38 37 36 36 35 33 26 24 23 28 30 30 28 28 28 26 23 19 17 20 19 23 26 26 25 23 23 24 22 23 24 26 25 27 26 24 23 23 21
39 40 39 40 41 39 40 40 40 39 40 41 39 37 35 35 32 33 27 34 34 34 24 22 28 29 30 29 28 28 28 26 23 21 19 18 26 27 24 23 24 25 26 26 26 28 27 26 26 26 23 23 22 20
38 40 40 40 40 38 39 39 40 41 41 39 38 38 37 37 35 33 31 34 35 33 31 22 22 28 30 29 29 29 29 27 25 23 19 16 20 26 25 22 24 26 27 27 27 26 24 24 23 23 21 20 20 19
40 39 40 40 39 38 39 39 40 40 40 39 38 38 37 36 35 32 35 34 33 32 30 24 24 24 30 24 25 32 26 26 27 24 24 19 24 25 21 27 26 26 27 27 27 28 25 23 21 20 19 18 18 17
40 40 39 39 39 39 39 39 40 40 40 38 36 33 33 34 31 31 36 33 35 30 25 24 20 21 29 28 30 29 29 24 27 24 22 22 22 20 25 25 26 26 26 27 28 25 23 22 21 20 19 18 17 16
39 39 38 38 38 38 37 38 38 34 32 31 28 25 29 33 37 33 29 28 27 26 27 25 26 24 27 28 26 26 28 22 19 22 26 23 20 27 27 27 27 27 28 27 25 23 22 22 21 20 19 18 17 16
39 39 39 38 38 38 36 38 34 29 27 29 28 29 33 36 30 26 24 22 22 19 23 25 26 24 29 25 24 26 22 24 17 22 20 19 18 23 27 27 27 28 28 27 27 25 24 23 21 20 19 18 17 16
39 39 39 38 38 38 37 33 29 28 26 29 32 35 33 27 23 20 20 21 20 17 24 25 26 27 29 29 24 26 21 24 19 26 22 18 23 27 29 28 29 29 28 27 26 27 25 23 22 20 19 18 17 16
39 39 39 38 38 36 32 33 34 35 35 31 26 24 21 22 17 15 16 20 21 26 27 27 27 29 30 29 28 25 23 23 27 24 20 23 23 25 25 26 26 26 27 26 25 24 23 21 20 19 18 16 15 14
39 38 38 37 35 37 36 35 33 32 30 22 20 18 19 19 20 21 21 24 27 28 27 28 27 29 30 28 26 20 24 24 20 19 21 24 23 24 24 24 23 23 23 23 22 20 18 16 15 15 15 14 12 11
38 38 37 36 36 37 34 32 31 32 29 24 22 19 21 25 26 28 29 29 28 29 29 29 28 27 27 25 23 21 20 19 20 21 26 24 23 24 23 23 22 21 19 19 18 15 13 13 12 12 12 13 11 9
37 36 35 36 37 34 32 31 30 29 28 26 25 23 27 25 27 29 30 29 32 31 30 27 26 24 23 22 20 20 20 18 25 28 25 24 23 23 23 21 20 19 18 17 15 14 13 12 11 10 10 9 8 8
33 33 37 36 34 32 31 28 26 26 26 25 25 28 28 27 27 29 31 30 33 30 24 22 20 20 24 19 19 23 23 28 27 24 24 24 23 22 20 18 17 16 16 15 15 14 14 13 10 7 6 7 8 11
34 37 35 33 31 31 30 29 25 24 23 26 24 26 28 30 28 29 30 32 30 28 24 25 27 23 21 20 22 28 26 24 23 23 23 24 23 20 19 18 16 16 15 15 14 13 10 7 5 6 7 7 9 9
36 34 33 31 29 27 23 26 27 21 24 27 27 26 26 27 29 29 29 30 31 31 28 24 22 22 24 28 30 28 27 25 23 22 20 21 20 19 18 17 16 16 15 15 12 6 6 6 8 9 11 11 13 14
36 35 34 34 31 24 22 25 28 23 22 25 26 24 23 24 27 30 30 30 27 25 23 23 24 27 29 31 29 29 28 24 21 21 20 20 19 18 18 16 16 17 15 13 9 10 12 13 13 14 15 15 15 14
35 34 32 32 31 29 25 23 23 26 24 22 24 22 22 24 23 24 24 27 24 21 21 26 30 30 28 27 27 26 26 24 24 24 22 19 19 19 18 17 17 15 15 12 12 14 16 16 16 17 18 18 17 15
34 32 29 29 27 28 26 27 24 26 23 22 22 23 22 22 22 23 25 24 22 24 26 28 28 28 26 26 25 23 24 23 21 20 20 20 19 18 18 17 16 17 16 16 16 17 18 16 16 17 18 16 14 14
31 29 27 24 22 24 25 29 24 24 21 22 23 21 22 23 24 26 21 23 25 26 25 25 26 27 27 24 22 22 21 21 21 21 20 21 20 20 19 18 18 19 17 16 17 18 18 16 17 18 16 15 14 13
30 25 21 21 22 22 26 24 24 21 22 21 20 19 21 23 24 22 19 20 24 23 24 26 26 25 24 23 22 22 21 21 21 22 21 20 19 19 19 18 18 18 17 16 17 18 19 19 16 16 16 14 13 12
18 20 22 19 23 22 21 21 21 19 19 20 20 20 22 23 20 19 18 20 22 24 24 25 25 26 26 26 23 22 20 19 19 19 20 19 19 18 18 17 17 17 18 19 20 19 19 17 17 16 14 13 12 11
13 20 19 20 21 20 19 18 19 20 20 20 21 22 23 21 18 17 18 23 23 24 24 25 25 24 23 23 23 21 20 19 19 20 18 18 19 20 18 17 17 18 19 21 20 19 17 16 15 13 12 10 8 8
13 20 23 25 23 23 22 22 22 21 20 18 20 21 20 17 17 18 21 22 23 24 23 24 25 25 25 22 21 21 20 20 20 19 19 19 19 19 19 18 17 18 20 21 21 19 16 15 13 12 11 9 8 7
21 22 20 23 23 24 22 22 20 19 20 21 22 19 18 17 20 24 23 23 24 24 23 23 23 24 24 22 21 20 18 18 18 18 17 17 18 19 20 20 20 19 20 21 20 18 16 15 13 11 9 6 4 4
21 23 23 20 22 23 23 21 20 21 22 23 22 21 23 21 22 22 21 22 24 23 23 23 21 22 21 20 20 20 19 20 18 17 17 17 17 17 16 17 16 16 16 14 14 14 14 12 11 8 5 3 2 1
21 24 22 21 20 20 24 23 23 20 18 20 20 19 19 21 21 19 21 22 23 23 24 24 22 22 21 20 18 18 20 21 21 19 17 17 18 17 15 15 15 15 14 13 11 9 7 4 3 1 1 1 0 -2
21 22 21 21 21 20 18 16 16 16 17 18 15 20 22 19 19 16 18 21 23 22 22 21 20 21 21 20 20 18 18 20 20 21 21 20 17 16 15 15 14 13 10 8 7 6 4 4 3 1 -0 -3 -5 -5
21 20 20 18 19 16 16 18 19 19 18 18 20 15 18 19 21 20 13 16 19 20 21 22 21 20 21 21 21 21 20 20 20 17 17 17 16 14 13 12 11 9 7 6 5 4 3 2 1 -1 -5 -6 -7 -8
18 18 18 17 16 16 17 17 17 17 16 16 16 13 16 17 18 16 12 12 15 18 20 20 20 19 19 19 20 19 19 18 16 16 14 14 12 12 11 9 8 6 5 5 4 3 1 -1 -4 -5 -6 -9 -10 -10

GFSWCAN_sfc_30mbdewp_105.txt.gz
Dewpoint
37 39 39 39 39 40 40 42 43 41 40 39 38 37 39 40 41 40 39 38 36 31 28 27 25 24 23 20 20 22 20 21 17 17 14 17 18 16 20 27 20 17 15 14 13 16 18 24 24 22 25 26 24 24
38 39 39 38 41 40 43 41 39 40 39 39 36 39 41 42 41 41 38 36 35 31 29 30 30 30 29 27 21 23 22 17 21 17 16 18 20 22 21 17 26 22 27 26 23 23 25 25 25 26 26 25 26 25
38 38 38 39 42 42 41 40 40 39 39 39 39 39 38 40 42 39 35 34 31 29 27 26 27 29 30 31 33 18 21 25 23 29 25 22 23 21 19 23 23 24 27 25 24 25 24 25 25 26 26 25 25 25
38 38 39 39 40 40 39 40 40 40 39 37 38 39 38 39 40 38 33 35 33 26 24 25 27 29 29 29 29 30 28 29 26 25 25 24 20 27 25 24 28 23 25 24 24 24 24 24 25 25 25 25 25 25
37 39 40 40 40 40 40 40 40 39 38 38 39 40 40 40 39 36 35 34 33 30 22 23 26 28 26 26 25 25 24 20 16 16 23 20 23 25 25 23 21 24 27 24 26 25 27 25 26 25 24 24 24 21
37 38 40 40 40 40 40 40 39 38 38 40 40 39 39 38 38 33 36 33 34 25 22 21 27 28 28 27 27 26 26 23 19 19 16 19 28 26 24 24 26 25 26 28 27 29 28 26 26 25 24 24 22 21
37 40 40 40 40 40 40 39 39 39 39 39 38 38 37 34 33 34 31 33 34 35 29 20 19 27 29 26 27 26 26 24 22 19 16 14 19 24 24 22 24 25 27 28 27 26 24 25 24 23 22 21 21 20
38 40 39 40 40 40 39 40 40 39 40 39 38 38 37 35 36 31 33 34 36 35 28 21 22 23 28 21 24 27 23 23 23 22 21 17 20 20 20 27 25 27 27 26 26 27 25 24 22 20 20 19 18 18
40 41 40 38 38 39 39 41 40 40 40 38 36 35 32 32 29 28 36 34 35 30 24 22 20 20 27 25 27 25 25 23 23 21 19 18 21 20 23 25 25 26 26 27 26 25 23 21 20 19 19 18 18 17
40 40 39 38 36 37 39 40 41 39 36 30 26 28 31 32 36 35 31 30 27 24 26 23 24 24 26 25 25 24 24 19 19 20 23 20 18 26 24 26 27 26 27 26 24 23 22 21 20 19 19 19 18 18
40 39 39 39 37 39 39 36 34 31 31 24 28 30 32 35 30 25 25 21 20 18 22 23 25 24 27 24 23 22 19 21 16 22 18 18 16 24 27 28 28 27 28 26 26 25 24 23 21 20 19 18 18 17
39 39 39 38 36 38 36 32 28 25 25 28 31 32 32 26 24 23 20 21 17 15 23 24 22 24 26 25 23 22 18 21 19 24 19 15 25 25 28 28 28 28 27 27 28 26 26 24 22 21 19 19 19 19
39 39 39 38 37 36 32 32 34 34 33 31 26 24 22 22 21 17 18 19 21 24 27 25 26 27 27 26 26 23 24 23 25 23 18 24 25 26 29 31 29 29 28 27 30 27 25 23 22 21 20 20 18 17
39 39 39 37 36 36 36 35 33 31 27 23 22 21 22 21 21 21 22 26 28 28 26 29 29 27 29 27 26 20 24 23 19 18 20 25 25 25 27 28 27 27 29 28 27 25 24 22 21 20 19 18 16 15
39 38 36 37 37 35 34 32 32 30 28 24 22 20 21 25 28 29 30 29 30 31 28 27 27 26 26 25 23 22 20 18 19 23 26 26 26 26 26 27 25 25 25 24 23 20 19 18 17 17 17 17 15 13
37 35 35 37 34 33 31 30 28 29 27 26 26 24 27 25 28 30 31 29 31 30 30 26 26 24 23 22 20 19 19 18 26 27 26 26 26 25 26 25 24 24 23 22 20 18 17 16 16 17 15 12 11 11
33 33 37 34 32 31 29 26 25 26 25 25 26 29 31 30 28 30 31 31 32 29 26 22 21 20 22 18 18 22 25 27 26 26 26 25 25 25 24 23 22 21 21 20 19 18 16 17 14 10 8 9 11 13
33 35 34 33 31 29 28 27 25 22 23 28 25 27 29 30 29 28 29 32 29 25 23 24 25 21 20 19 22 28 28 26 26 25 25 25 26 24 22 21 20 20 20 19 18 17 16 11 6 7 8 9 10 10
33 32 33 30 28 25 22 26 25 21 25 26 26 26 28 28 29 29 30 31 31 28 25 24 22 21 24 29 30 28 28 27 25 24 24 24 24 23 22 21 20 20 19 18 16 14 10 7 10 9 9 9 11 13
34 33 32 32 32 21 21 25 26 22 24 24 24 23 23 25 27 31 30 28 26 24 22 22 24 29 30 31 31 31 30 28 25 23 22 22 22 22 21 20 20 19 18 16 13 9 9 11 11 12 13 15 15 14
31 32 32 30 29 25 23 22 23 23 22 23 23 23 23 23 23 24 26 25 24 21 20 26 30 31 31 30 30 30 29 27 27 27 24 22 22 21 20 20 20 18 17 14 12 13 14 15 15 16 18 19 19 16
30 30 28 27 25 26 24 26 23 23 22 21 22 22 22 22 22 24 25 23 22 24 27 27 28 30 29 28 27 26 28 26 25 25 24 23 22 21 20 20 19 18 18 17 16 18 19 19 18 19 21 19 16 15
29 27 25 22 25 24 23 28 24 22 21 21 22 21 22 23 23 23 21 22 24 30 28 26 28 28 29 26 25 24 24 23 24 24 24 23 23 23 22 21 20 21 19 18 18 20 21 18 19 21 19 17 15 14
29 26 25 24 23 23 26 22 21 21 21 20 20 20 21 22 24 21 19 21 28 27 26 26 26 26 26 25 25 24 24 24 25 25 25 23 21 21 21 20 21 21 20 19 20 22 21 19 20 18 18 17 15 13
19 23 26 21 23 22 20 19 19 18 19 20 20 20 21 23 20 19 20 23 25 26 25 25 26 26 27 27 26 25 23 23 23 23 23 22 21 20 20 20 21 22 21 22 22 21 21 20 19 20 17 16 13 11
16 24 22 21 22 19 19 18 18 19 19 20 21 22 23 21 19 19 19 26 26 25 26 25 26 26 25 26 26 24 22 21 21 23 20 21 21 21 20 19 21 21 21 23 22 21 20 19 19 17 16 15 12 10
15 20 23 25 22 21 21 22 20 20 20 19 20 21 20 18 19 21 27 26 26 26 26 27 27 26 26 25 24 23 22 22 23 22 21 20 21 23 22 21 20 19 23 24 23 21 19 18 17 16 14 13 11 9
21 22 20 23 22 22 22 22 21 19 20 20 21 20 19 20 22 28 28 27 26 26 26 26 25 25 26 24 24 23 22 22 22 21 21 21 22 24 25 26 26 22 24 25 24 23 20 19 16 15 13 10 8 8
22 24 23 22 23 23 23 23 23 22 23 23 22 22 24 24 28 28 26 25 26 25 25 24 24 24 24 23 23 23 23 22 21 19 18 18 18 19 21 22 22 22 22 22 22 20 19 17 15 13 9 7 6 5
21 24 22 22 21 20 25 27 28 26 23 25 25 23 22 27 28 26 26 26 25 26 26 25 25 24 23 23 22 22 23 24 24 21 19 18 19 20 20 20 20 20 19 17 15 14 12 11 8 7 5 4 3 1
23 24 23 22 21 24 24 23 23 23 24 25 24 25 26 27 27 24 24 26 26 25 26 24 24 24 23 23 22 21 20 22 23 25 26 25 21 20 20 20 19 18 16 13 11 11 8 7 6 5 4 3 0 -1
22 21 20 19 21 22 22 22 23 23 23 23 24 23 24 24 24 25 19 20 22 22 23 24 23 23 24 24 25 26 23 23 22 22 22 22 21 20 19 18 17 16 13 11 9 8 7 6 5 2 -1 -2 -2 -4
22 22 21 21 21 20 20 21 21 21 21 21 21 20 21 22 22 20 17 17 19 20 23 24 25 25 24 23 23 22 23 23 22 21 21 20 18 17 17 16 15 12 9 8 8 6 5 3 1 0 -1 -4 -5 -5

GFSWCAN_sfc_30mbdewp_108.txt.gz
Dewpoint
33 38 39 39 39 39 40 39 42 43 43 43 44 42 41 40 42 41 39 39 39 33 31 35 33 33 29 26 23 25 21 21 21 20 17 18 22 15 22 27 16 14 14 14 14 12 15 25 24 23 25 26 25 23
35 38 39 39 39 41 40 43 43 42 42 41 41 41 39 38 39 40 37 40 40 37 31 32 30 30 30 29 29 24 21 20 21 17 14 17 20 21 22 18 27 24 28 26 24 23 25 26 26 27 29 26 25 23
37 38 39 38 40 40 41 42 42 42 41 40 39 39 39 37 37 39 38 38 37 30 30 29 28 28 28 31 32 20 20 25 26 31 28 24 21 20 19 23 23 25 27 25 25 24 24 24 25 25 25 24 24 25
36 38 40 38 41 42 41 41 40 40 39 38 39 39 40 37 40 41 39 36 37 35 29 25 27 26 27 27 28 31 27 28 25 29 27 26 22 28 27 24 24 22 24 24 25 25 25 24 25 25 24 24 23 23
37 38 38 39 41 40 41 40 40 39 39 38 38 38 38 41 41 41 40 39 38 35 25 24 26 25 25 25 24 25 26 26 24 20 24 25 25 26 25 25 24 26 28 23 27 25 28 25 25 25 24 24 23 22
37 38 37 41 40 41 41 40 39 38 37 37 37 37 38 39 40 40 35 35 35 37 22 22 26 26 26 26 26 26 25 22 18 18 18 23 30 27 24 24 26 26 29 29 28 30 28 26 25 25 24 23 22 21
37 38 39 40 40 40 40 39 38 38 38 39 39 39 41 40 40 34 32 33 34 38 28 21 21 26 27 26 25 25 25 25 21 16 16 17 21 25 25 23 25 27 29 30 29 27 25 25 24 24 23 22 21 20
37 39 40 40 40 40 39 38 37 39 39 39 39 37 34 36 36 33 33 35 38 35 30 20 23 23 28 23 24 27 22 22 24 21 19 16 20 19 23 27 26 27 28 27 27 27 25 25 23 22 21 20 19 18
37 40 40 40 40 39 39 38 38 37 38 38 38 37 35 35 27 29 32 33 38 32 24 23 20 20 28 27 26 24 24 24 22 21 18 17 23 20 25 25 27 27 26 26 27 25 23 21 20 20 19 19 18 18
40 40 40 40 40 40 40 38 38 38 36 34 30 31 30 31 34 34 34 30 28 23 26 24 27 24 26 27 25 24 23 20 19 20 24 20 23 25 26 26 26 26 27 26 25 23 22 20 19 19 19 19 19 18
40 39 37 37 39 40 40 38 38 34 29 28 30 30 30 32 32 24 24 22 22 20 21 24 24 23 25 24 23 23 20 20 15 22 18 20 18 25 26 27 27 27 28 27 25 24 24 22 21 20 20 20 19 19
40 38 37 39 39 38 36 34 30 29 29 29 30 30 31 27 24 23 21 20 19 16 23 24 23 25 25 24 24 21 17 20 18 24 19 15 25 27 29 30 30 29 27 27 27 26 25 24 23 21 20 20 21 19
38 38 39 38 37 33 30 31 33 32 33 32 26 24 22 22 22 19 17 17 21 25 28 27 26 27 25 28 26 23 23 22 25 22 19 25 27 30 32 30 30 29 28 29 27 27 25 24 23 22 22 20 19 18
38 38 38 36 35 36 36 34 31 32 30 22 22 22 24 22 21 25 28 27 29 28 29 31 30 29 29 28 25 22 26 23 19 18 22 25 27 31 30 30 31 30 32 31 28 26 24 23 22 21 20 19 18 17
38 38 36 37 37 34 30 29 31 32 28 25 23 21 23 27 29 31 30 29 33 32 30 28 28 26 24 24 23 22 20 17 18 24 27 28 29 30 30 29 29 28 28 27 26 24 22 21 20 20 19 18 17 15
36 34 33 36 33 30 28 29 29 29 26 26 27 24 27 26 28 30 31 31 33 32 30 27 26 25 23 22 20 18 19 19 25 25 29 28 28 28 28 27 27 27 26 24 22 21 20 19 18 19 19 15 14 15
33 30 35 31 28 27 28 27 27 24 25 26 27 30 32 30 29 30 31 30 32 31 27 22 21 19 22 18 18 22 24 27 26 26 27 28 27 27 26 25 25 25 23 22 21 20 19 20 18 15 12 12 12 13
32 32 33 31 31 28 28 26 24 23 25 29 26 29 31 31 29 30 30 32 32 25 24 25 25 20 20 18 25 29 27 27 27 25 27 28 27 26 25 24 24 24 22 21 20 20 19 16 12 9 9 10 12 13
31 29 31 29 29 26 24 25 26 21 26 27 28 28 29 29 29 29 29 31 29 27 25 24 22 22 26 30 29 28 27 26 25 25 27 27 26 25 24 23 23 22 21 20 19 18 15 11 11 10 11 10 11 13
31 32 31 31 32 21 23 25 26 24 25 26 26 25 27 28 29 31 30 28 27 26 22 21 26 30 30 31 30 30 28 28 25 24 23 24 24 23 22 22 21 21 20 19 17 15 11 13 12 12 12 14 17 16
27 29 30 30 25 24 24 25 25 23 23 25 24 25 23 25 26 27 27 27 25 23 22 29 31 31 32 31 30 30 30 28 27 26 24 22 23 23 22 23 21 20 19 18 14 13 14 15 15 16 19 22 21 21
26 28 27 25 25 24 25 27 24 24 23 22 23 24 25 24 25 26 26 23 22 26 30 28 31 31 29 29 28 29 29 28 27 28 26 24 23 23 22 23 21 21 20 19 16 17 19 18 20 21 23 21 19 16
28 26 25 23 25 24 24 28 23 23 21 21 22 21 21 22 25 24 21 22 26 31 29 27 28 30 29 27 27 27 26 25 26 26 26 25 25 25 24 23 23 23 21 20 21 21 24 22 22 23 20 19 19 16
28 27 26 25 23 22 25 22 21 21 21 20 19 19 21 22 23 21 20 24 29 28 26 26 26 26 27 26 26 25 25 27 27 26 26 25 25 24 24 23 24 24 23 22 23 26 23 23 23 21 20 19 17 15
20 23 26 21 23 21 19 19 21 18 19 20 20 19 21 22 20 19 19 27 26 27 25 25 26 26 27 28 28 26 25 26 26 24 26 25 24 24 24 23 24 24 25 25 25 24 23 23 22 20 20 19 17 16
18 24 21 20 21 19 18 16 17 19 19 19 20 22 23 20 18 19 23 28 27 26 28 27 27 26 27 27 28 25 24 23 26 25 23 25 24 24 23 23 23 25 27 25 25 23 23 22 22 20 19 17 14 14
16 20 21 25 21 18 20 21 19 19 18 18 19 20 20 17 19 25 27 27 27 27 26 30 29 29 29 27 25 24 24 25 25 23 23 24 24 25 25 23 23 23 25 26 25 24 21 22 20 20 18 15 13 12
20 21 20 22 21 21 21 21 20 19 19 19 20 18 18 20 25 28 29 27 27 26 26 27 27 28 28 26 26 25 24 24 25 25 24 24 26 27 28 26 25 25 28 27 26 24 23 22 20 17 15 14 13 11
22 23 22 20 22 22 22 22 22 23 25 23 23 23 24 27 29 29 28 28 28 27 26 25 26 27 27 26 25 25 23 23 21 19 19 18 20 22 26 27 27 27 27 27 27 25 23 21 19 16 13 11 10 8
21 24 21 20 20 19 25 27 28 27 25 27 27 25 23 28 28 28 27 26 26 26 27 27 26 25 24 24 23 24 26 26 26 23 21 19 20 23 24 24 23 23 23 21 19 18 16 14 12 11 10 8 7 5
25 24 21 20 19 26 26 25 25 26 26 26 26 26 27 28 29 26 26 27 27 27 27 25 25 26 25 25 23 21 22 25 25 27 27 24 22 23 23 22 22 21 18 16 15 13 12 11 9 7 6 5 3 2
22 21 19 17 22 24 24 23 23 23 23 23 24 25 24 24 24 24 21 22 24 24 25 25 25 25 26 27 27 27 25 24 24 26 23 23 23 23 23 22 20 17 15 14 13 11 10 9 8 7 5 2 1 0
24 23 24 22 21 20 22 22 21 21 22 21 22 23 24 23 23 21 19 20 20 21 23 26 27 28 27 27 27 27 26 25 24 23 23 23 22 22 20 20 19 17 15 13 11 10 9 7 5 3 2 0 -2 -3

GFSWCAN_sfc_30mbdewp_111.txt.gz
Dewpoint
32 32 36 39 39 39 39 40 40 40 40 40 41 42 41 44 44 41 39 41 39 32 34 36 36 35 36 34 29 26 22 23 23 20 22 23 25 21 21 23 13 15 15 16 17 15 16 26 26 22 25 26 24 25
33 34 38 38 39 39 39 39 39 39 39 40 41 41 42 43 42 40 37 40 42 34 35 36 35 36 36 35 29 27 23 21 24 22 19 20 23 21 23 21 27 19 25 23 24 22 25 26 26 28 27 25 25 25
33 36 37 39 39 39 39 40 40 42 43 42 41 43 42 42 41 40 39 40 40 36 34 33 30 29 30 30 35 23 26 28 28 32 29 25 21 24 20 23 25 27 29 23 23 23 24 25 26 27 27 25 24 24
34 36 38 38 38 38 41 42 42 42 42 43 43 42 41 40 40 41 38 40 40 37 30 25 28 26 27 30 31 31 28 28 28 30 28 26 24 30 26 25 24 24 26 25 25 25 24 25 25 25 25 24 24 23
35 37 37 37 39 42 41 41 41 41 40 40 40 39 39 38 39 40 41 41 42 36 26 25 27 27 27 28 28 29 28 26 27 23 24 26 27 27 28 26 26 29 25 22 24 25 25 26 26 25 24 23 24 24
37 37 37 38 41 40 40 40 39 39 39 39 39 39 38 39 43 38 33 39 41 39 26 24 27 27 27 28 28 27 27 26 26 23 22 29 30 27 25 26 28 30 31 29 27 28 26 26 26 25 24 24 23 23
36 37 39 41 41 40 39 38 38 38 39 39 40 40 40 41 40 36 33 35 36 38 28 22 23 27 29 27 28 27 26 26 28 19 19 24 26 27 25 24 28 30 29 28 27 26 25 26 25 24 24 23 23 22
36 38 40 40 40 39 39 39 38 38 39 39 39 40 40 40 39 35 35 35 37 35 32 23 24 24 28 27 23 28 24 26 23 23 20 22 20 22 25 27 28 29 28 27 27 27 26 25 24 23 22 21 20 20
38 40 40 40 39 38 39 39 39 38 39 39 39 40 38 36 34 30 31 33 40 35 25 25 22 21 29 28 27 25 27 23 24 23 22 20 23 20 26 27 27 27 27 27 27 25 25 24 22 21 20 20 19 19
38 40 40 39 38 38 37 38 39 39 39 38 33 33 32 34 33 33 28 28 29 25 28 24 28 23 29 28 25 24 25 22 20 23 25 22 25 27 28 28 28 26 27 27 24 23 23 21 21 20 20 20 20 19
40 40 39 39 38 38 38 38 36 31 29 31 33 31 32 33 34 30 21 21 23 21 26 27 25 23 28 24 24 26 22 21 17 22 20 21 22 26 27 28 27 28 26 27 25 24 23 21 21 21 21 20 20 18
40 39 39 39 38 37 37 36 30 30 32 31 31 31 32 30 26 23 22 20 22 19 23 24 26 27 27 28 22 22 19 20 20 26 20 17 26 27 27 28 28 28 27 27 26 25 23 23 23 22 22 20 19 17
36 36 38 38 36 33 29 28 33 34 34 32 28 26 25 24 21 18 15 17 22 26 28 27 25 26 28 28 25 23 20 22 26 21 19 26 29 31 31 29 28 28 28 28 27 25 24 23 23 22 20 18 17 16
39 38 36 34 34 34 33 31 30 33 31 25 23 21 23 21 24 27 28 28 29 29 30 30 28 28 29 25 26 20 25 24 18 18 21 27 30 30 31 31 30 31 31 27 25 24 22 21 21 20 19 18 16 14
37 36 36 35 32 29 27 29 31 34 29 25 25 23 23 28 29 30 30 31 33 32 28 28 28 25 24 22 21 21 20 16 18 22 26 29 30 30 30 30 29 28 26 24 23 22 21 20 19 18 18 16 15 13
34 32 35 32 29 27 29 31 31 30 28 27 28 24 27 25 27 28 30 31 33 30 28 28 26 24 22 21 20 18 19 20 23 25 28 29 29 29 28 28 28 27 25 23 22 21 20 19 18 18 16 14 14 14
30 31 33 29 27 24 27 30 28 26 26 27 27 31 31 29 28 29 31 32 34 30 25 24 19 20 23 20 20 25 24 24 25 27 29 28 27 27 26 26 25 24 22 21 20 20 19 19 17 15 13 14 15 13
30 33 31 29 30 30 30 29 25 25 26 29 26 28 29 30 29 29 29 31 32 28 27 25 25 19 20 19 24 25 26 27 27 28 28 27 26 26 25 24 24 23 21 20 20 20 18 17 15 13 12 13 13 13
30 30 29 30 30 28 26 27 26 24 27 28 30 28 28 27 28 28 29 30 31 29 27 24 20 23 27 29 28 27 26 25 25 26 26 26 25 24 24 24 23 22 21 20 20 18 18 16 13 12 13 14 14 14
30 31 31 31 32 25 25 25 28 26 25 26 27 26 27 27 28 28 30 28 28 26 23 21 27 29 29 30 29 27 27 26 24 23 23 25 25 24 23 23 22 22 21 20 20 18 16 15 12 13 13 15 14 14
30 30 30 30 26 28 29 28 26 24 25 25 25 26 24 25 23 25 23 26 26 25 27 30 29 30 31 30 30 29 27 25 24 23 22 22 24 23 22 23 22 21 21 20 17 16 15 14 15 14 14 19 19 21
28 29 28 29 26 25 26 27 24 25 26 23 25 27 24 22 21 25 23 21 20 29 29 30 31 29 28 28 28 29 28 28 29 26 24 24 24 22 23 22 21 21 20 18 16 15 18 18 20 23 22 19 17 19
30 29 28 27 24 23 24 30 23 26 21 21 23 21 21 21 23 23 20 21 27 30 28 29 30 30 28 27 28 27 27 27 26 25 24 24 25 24 25 22 22 22 20 18 18 20 20 21 23 21 20 16 14 13
31 29 25 25 22 21 25 21 22 20 20 21 20 20 20 20 22 20 21 27 29 27 26 26 27 26 26 26 25 25 26 28 26 26 26 26 25 25 25 23 24 24 22 21 21 24 22 23 20 20 18 15 13 13
17 17 24 20 24 21 19 19 20 20 19 19 19 21 21 22 20 18 19 27 27 25 25 25 24 26 27 28 27 25 25 27 25 26 26 26 26 26 25 25 26 25 24 23 24 23 23 21 20 19 17 14 13 15
18 21 21 20 20 19 18 17 17 19 19 19 20 23 21 19 17 18 25 26 27 25 26 26 25 25 28 29 26 24 24 28 26 26 26 26 25 24 23 23 23 25 26 26 24 23 22 21 19 19 19 18 16 14
17 20 22 25 23 20 19 21 21 19 18 18 20 19 18 18 18 25 26 27 27 25 28 30 29 29 28 26 25 25 25 27 27 25 26 26 26 25 25 23 23 25 28 27 24 23 21 21 20 19 18 16 14 12
21 21 19 21 20 20 21 20 19 18 18 21 21 17 17 21 24 28 27 26 26 25 27 28 28 29 27 26 25 24 25 25 24 24 24 25 26 27 25 25 25 26 27 26 24 22 22 21 20 16 14 13 12 10
21 24 22 18 20 22 21 22 22 25 27 24 21 22 25 27 29 27 26 26 26 25 24 24 26 27 26 26 25 24 24 23 21 19 18 19 20 23 27 26 27 27 27 26 24 24 22 19 16 15 13 10 9 8
23 24 21 20 18 19 25 26 27 27 26 27 27 26 26 27 27 27 26 25 25 24 25 25 24 24 23 24 23 24 25 25 24 21 20 18 19 23 25 24 24 24 24 23 21 20 19 15 12 10 9 7 5 4
25 22 20 19 19 25 25 25 25 25 25 25 25 25 27 28 27 26 24 26 27 27 26 26 25 24 24 24 23 22 22 26 26 27 27 22 22 23 22 22 20 18 17 16 15 13 12 11 9 7 6 4 3 1
22 20 19 18 22 23 23 22 22 22 22 22 22 24 24 23 22 22 20 22 24 25 26 27 25 25 27 28 27 24 24 25 26 24 23 22 23 22 22 19 17 17 16 14 13 11 10 8 7 5 4 2 0 -1
23 23 23 23 21 20 22 21 19 19 21 20 21 24 24 23 21 19 20 22 21 21 22 25 28 29 28 28 28 27 25 26 27 26 24 23 23 21 19 18 17 16 14 12 12 10 8 7 6 4 2 0 -2 -4